| time (UTC) | temp F | wind direction | speed knots | gust knots | rain 1hr in | rain 24hr in | rain mn in | humidity % | barometer mb |
| 20260902182639 | 89 | 24 | 2.6 | 3.5 | 0.00 | 0.00 | 0.00 | 49 | 1016.3 |
| 20260902182537 | 89 | 20 | 1.7 | 3.5 | 0.00 | 0.00 | 0.00 | 50 | 1016.3 |
| 20260902182435 | 89 | 23 | 2.6 | 3.5 | 0.00 | 0.00 | 0.00 | 50 | 1016.3 |
| 20260902182334 | 89 | 23 | 0.9 | 2.6 | 0.00 | 0.00 | 0.00 | 49 | 1016.3 |
| 20260902182231 | 89 | 24 | 0.9 | 1.7 | 0.00 | 0.00 | 0.00 | 50 | 1016.3 |
| 20260902182130 | 89 | 23 | 0.0 | 0.9 | 0.00 | 0.00 | 0.00 | 50 | 1016.3 |
| 20260902182028 | 89 | 23 | 0.0 | 0.9 | 0.00 | 0.00 | 0.00 | 51 | 1016.3 |
| 20260902181951 | 89 | 23 | 0.0 | 0.9 | 0.00 | 0.00 | 0.00 | 51 | 1016.3 |
| 20260902181849 | 88 | 24 | 0.0 | 0.9 | 0.00 | 0.00 | 0.00 | 49 | 1016.3 |
| 20260902181728 | 88 | 23 | 0.0 | 1.7 | 0.00 | 0.00 | 0.00 | 50 | 1016.3 |
| 20260902181658 | 88 | 24 | 0.0 | 1.7 | 0.00 | 0.00 | 0.00 | 50 | 1016.3 |
| 20260902181535 | 88 | 23 | 0.0 | 1.7 | 0.00 | 0.00 | 0.00 | 49 | 1016.3 |
| 20260902181432 | 88 | 24 | 0.0 | 1.7 | 0.00 | 0.00 | 0.00 | 49 | 1016.3 |
| 20260902181334 | 88 | 24 | 0.0 | 1.7 | 0.00 | 0.00 | 0.00 | 50 | 1016.3 |
| 20260902181234 | 88 | 23 | 0.0 | 2.6 | 0.00 | 0.00 | 0.00 | 51 | 1017.4 |
| 20260902181137 | 88 | 23 | 0.0 | 2.6 | 0.00 | 0.00 | 0.00 | 51 | 1017.4 |
| 20260902181035 | 88 | 24 | 0.0 | 2.6 | 0.00 | 0.00 | 0.00 | 52 | 1017.4 |
| 20260902180932 | 88 | 18 | 0.9 | 2.6 | 0.00 | 0.00 | 0.00 | 52 | 1017.4 |
| 20260902180833 | 88 | 23 | 0.9 | 2.6 | 0.00 | 0.00 | 0.00 | 52 | 1017.4 |
| 20260902180751 | 88 | 23 | 0.9 | 2.6 | 0.00 | 0.00 | 0.00 | 52 | 1017.4 |
| 20260902180629 | 88 | 24 | 0.0 | 2.6 | 0.00 | 0.00 | 0.00 | 51 | 1017.4 |
| 20260902180528 | 88 | 23 | 0.9 | 2.6 | 0.00 | 0.00 | 0.00 | 51 | 1017.4 |
| 20260902180430 | 88 | 23 | 1.7 | 2.6 | 0.00 | 0.00 | 0.00 | 51 | 1017.4 |
| 20260902180327 | 88 | 23 | 1.7 | 2.6 | 0.00 | 0.00 | 0.00 | 50 | 1017.4 |
| 20260902180235 | 88 | 23 | 1.7 | 2.6 | 0.00 | 0.00 | 0.00 | 50 | 1017.4 |
| 20260902180146 | 88 | 21 | 0.0 | 2.6 | 0.00 | 0.00 | 0.00 | 51 | 1017.4 |
| 20260902180042 | 88 | 17 | 0.0 | 2.6 | 0.00 | 0.00 | 0.00 | 50 | 1017.4 |
| 20260902175941 | 88 | 20 | 0.0 | 2.6 | 0.00 | 0.00 | 0.00 | 53 | 1017.4 |
| 20260902175839 | 88 | 21 | 1.7 | 2.6 | 0.00 | 0.00 | 0.00 | 52 | 1017.4 |
| 20260902175737 | 88 | 18 | 0.9 | 2.6 | 0.00 | 0.00 | 0.00 | 51 | 1016.7 |
| 20260902175656 | 88 | 20 | 1.7 | 2.6 | 0.00 | 0.00 | 0.00 | 53 | 1016.7 |
| 20260902175539 | 87 | 20 | 1.7 | 2.6 | 0.00 | 0.00 | 0.00 | 51 | 1016.7 |
| 20260902175437 | 87 | 21 | 0.9 | 4.3 | 0.00 | 0.00 | 0.00 | 51 | 1016.7 |
| 20260902175335 | 87 | 13 | 0.0 | 4.3 | 0.00 | 0.00 | 0.00 | 50 | 1016.7 |
| 20260902175233 | 87 | 14 | 0.0 | 4.3 | 0.00 | 0.00 | 0.00 | 53 | 1016.7 |
| 20260902175152 | 87 | 16 | 1.7 | 4.3 | 0.00 | 0.00 | 0.00 | 53 | 1016.7 |
| 20260902175029 | 87 | 14 | 1.7 | 4.3 | 0.00 | 0.00 | 0.00 | 53 | 1016.7 |
| 20260902174928 | 87 | 14 | 1.7 | 4.3 | 0.00 | 0.00 | 0.00 | 54 | 1016.7 |
| 20260902174830 | 87 | 14 | 2.6 | 4.3 | 0.00 | 0.00 | 0.00 | 54 | 1016.7 |
| 20260902174738 | 87 | 14 | 1.7 | 4.3 | 0.00 | 0.00 | 0.00 | 56 | 1016.7 |
| 20260902174647 | 87 | 14 | 1.7 | 4.3 | 0.00 | 0.00 | 0.00 | 55 | 1016.7 |
| 20260902174545 | 87 | 10 | 0.9 | 4.3 | 0.00 | 0.00 | 0.00 | 55 | 1016.7 |
| 20260902174503 | 87 | 10 | 0.9 | 4.3 | 0.00 | 0.00 | 0.00 | 54 | 1016.7 |
| 20260902174340 | 87 | 11 | 1.7 | 4.3 | 0.00 | 0.00 | 0.00 | 54 | 1016.7 |
| 20260902174238 | 87 | 11 | 0.0 | 4.3 | 0.00 | 0.00 | 0.00 | 53 | 1017.0 |
| 20260902174137 | 87 | 11 | 0.9 | 4.3 | 0.00 | 0.00 | 0.00 | 55 | 1017.0 |
| 20260902174041 | 87 | 13 | 2.6 | 4.3 | 0.00 | 0.00 | 0.00 | 53 | 1017.0 |
| 20260902173939 | 87 | 11 | 2.6 | 4.3 | 0.00 | 0.00 | 0.00 | 53 | 1017.0 |
| 20260902173841 | 87 | 10 | 2.6 | 3.5 | 0.00 | 0.00 | 0.00 | 54 | 1017.0 |
| 20260902173759 | 87 | 8 | 1.7 | 3.5 | 0.00 | 0.00 | 0.00 | 55 | 1017.0 |
| 20260902173636 | 87 | 7 | 1.7 | 2.6 | 0.00 | 0.00 | 0.00 | 55 | 1017.0 |
| 20260902173535 | 87 | 8 | 0.9 | 2.6 | 0.00 | 0.00 | 0.00 | 57 | 1017.0 |
| 20260902173452 | 87 | 10 | 0.9 | 2.6 | 0.00 | 0.00 | 0.00 | 57 | 1017.0 |
| 20260902173330 | 86 | 10 | 0.9 | 2.6 | 0.00 | 0.00 | 0.00 | 57 | 1017.0 |
| 20260902173231 | 86 | 10 | 0.0 | 2.6 | 0.00 | 0.00 | 0.00 | 55 | 1017.0 |
| 20260902173202 | 86 | 7 | 0.0 | 2.6 | 0.00 | 0.00 | 0.00 | 55 | 1017.0 |
| 20260902173039 | 86 | 8 | 0.0 | 2.6 | 0.00 | 0.00 | 0.00 | 56 | 1017.0 |
| 20260902172938 | 86 | 10 | 0.9 | 2.6 | 0.00 | 0.00 | 0.00 | 55 | 1017.0 |
| 20260902172837 | 86 | 7 | 1.7 | 1.7 | 0.00 | 0.00 | 0.00 | 56 | 1017.0 |
| 20260902172739 | 86 | 7 | 0.9 | 1.7 | 0.00 | 0.00 | 0.00 | 58 | 1017.2 |
| 20260902172639 | 86 | 10 | 0.9 | 1.7 | 0.00 | 0.00 | 0.00 | 57 | 1017.2 |
| 20260902172542 | 86 | 7 | 0.9 | 1.7 | 0.00 | 0.00 | 0.00 | 56 | 1017.2 |
| 20260902172440 | 86 | 10 | 1.7 | 1.7 | 0.00 | 0.00 | 0.00 | 56 | 1017.2 |
| 20260902172359 | 86 | 10 | 0.9 | 1.7 | 0.00 | 0.00 | 0.00 | 55 | 1017.2 |
| 20260902172256 | 86 | 10 | 0.0 | 1.7 | 0.00 | 0.00 | 0.00 | 57 | 1017.2 |
| 20260902172134 | 86 | 10 | 0.0 | 1.7 | 0.00 | 0.00 | 0.00 | 57 | 1017.2 |
| 20260902172031 | 86 | 8 | 0.0 | 1.7 | 0.00 | 0.00 | 0.00 | 58 | 1017.2 |
| 20260902171930 | 86 | 8 | 0.0 | 1.7 | 0.00 | 0.00 | 0.00 | 59 | 1017.2 |
| 20260902171829 | 86 | 10 | 0.0 | 1.7 | 0.00 | 0.00 | 0.00 | 60 | 1017.2 |
| 20260902171742 | 86 | 8 | 0.0 | 1.7 | 0.00 | 0.00 | 0.00 | 60 | 1017.2 |
| 20260902171652 | 86 | 8 | 0.0 | 1.7 | 0.00 | 0.00 | 0.00 | 60 | 1017.2 |
| 20260902171529 | 86 | 10 | 0.9 | 1.7 | 0.00 | 0.00 | 0.00 | 61 | 1017.2 |
| 20260902171427 | 86 | 8 | 0.9 | 1.7 | 0.00 | 0.00 | 0.00 | 60 | 1017.2 |
| 20260902171326 | 86 | 10 | 0.0 | 1.7 | 0.00 | 0.00 | 0.00 | 59 | 1017.2 |
| 20260902171243 | 86 | 10 | 0.0 | 1.7 | 0.00 | 0.00 | 0.00 | 59 | 1018.3 |
| 20260902171143 | 86 | 7 | 0.9 | 1.7 | 0.00 | 0.00 | 0.00 | 59 | 1018.3 |
| 20260902171102 | 86 | 10 | 0.9 | 1.7 | 0.00 | 0.00 | 0.00 | 59 | 1018.3 |
| 20260902170943 | 86 | 7 | 0.9 | 1.7 | 0.00 | 0.00 | 0.00 | 59 | 1018.3 |
| 20260902170902 | 86 | 11 | 0.9 | 1.7 | 0.00 | 0.00 | 0.00 | 59 | 1018.3 |
| 20260902170738 | 86 | 10 | 0.9 | 2.6 | 0.00 | 0.00 | 0.00 | 59 | 1018.3 |
| 20260902170636 | 86 | 10 | 0.9 | 2.6 | 0.00 | 0.00 | 0.00 | 59 | 1018.3 |
| 20260902170535 | 86 | 8 | 0.9 | 2.6 | 0.00 | 0.00 | 0.00 | 59 | 1018.3 |
| 20260902170433 | 87 | 10 | 1.7 | 2.6 | 0.00 | 0.00 | 0.00 | 59 | 1018.3 |
| 20260902170331 | 87 | 10 | 0.0 | 2.6 | 0.00 | 0.00 | 0.00 | 59 | 1018.3 |
| 20260902170233 | 87 | 8 | 0.9 | 2.6 | 0.00 | 0.00 | 0.00 | 59 | 1018.3 |
| 20260902170203 | 87 | 10 | 1.7 | 4.3 | 0.00 | 0.00 | 0.00 | 59 | 1018.3 |
| 20260902170100 | 87 | 10 | 0.9 | 4.3 | 0.00 | 0.00 | 0.00 | 57 | 1018.3 |
| 20260902165937 | 87 | 10 | 0.9 | 5.2 | 0.00 | 0.00 | 0.00 | 58 | 1018.3 |
| 20260902165836 | 87 | 8 | 0.9 | 5.2 | 0.00 | 0.00 | 0.00 | 57 | 1018.3 |
| 20260902165734 | 87 | 7 | 0.9 | 5.2 | 0.00 | 0.00 | 0.00 | 58 | 1018.6 |
| 20260902165654 | 87 | 10 | 1.7 | 5.2 | 0.00 | 0.00 | 0.00 | 57 | 1018.6 |
| 20260902165531 | 87 | 10 | 0.9 | 5.2 | 0.00 | 0.00 | 0.00 | 57 | 1018.6 |
| 20260902165435 | 87 | 8 | 0.9 | 5.2 | 0.00 | 0.00 | 0.00 | 56 | 1018.6 |
| 20260902165333 | 87 | 10 | 1.7 | 5.2 | 0.00 | 0.00 | 0.00 | 56 | 1018.6 |
| 20260902165232 | 87 | 8 | 2.6 | 5.2 | 0.00 | 0.00 | 0.00 | 55 | 1018.6 |
| 20260902165130 | 87 | 11 | 2.6 | 5.2 | 0.00 | 0.00 | 0.00 | 55 | 1018.6 |
| 20260902165030 | 87 | 16 | 0.0 | 5.2 | 0.00 | 0.00 | 0.00 | 55 | 1018.6 |
| 20260902164948 | 87 | 17 | 0.9 | 5.2 | 0.00 | 0.00 | 0.00 | 56 | 1018.6 |
| 20260902164825 | 87 | 17 | 1.7 | 6.1 | 0.00 | 0.00 | 0.00 | 56 | 1018.6 |
| 20260902164756 | 87 | 14 | 1.7 | 6.1 | 0.00 | 0.00 | 0.00 | 56 | 1018.6 |
| 20260902164648 | 87 | 17 | 2.6 | 6.1 | 0.00 | 0.00 | 0.00 | 56 | 1018.6 |
| 20260902164526 | 87 | 17 | 2.6 | 6.1 | 0.00 | 0.00 | 0.00 | 58 | 1018.6 |
| 20260902164443 | 87 | 17 | 2.6 | 6.1 | 0.00 | 0.00 | 0.00 | 58 | 1018.6 |
| 20260902164343 | 87 | 14 | 2.6 | 6.1 | 0.00 | 0.00 | 0.00 | 57 | 1018.6 |
| 20260902164241 | 87 | 13 | 2.6 | 6.1 | 0.00 | 0.00 | 0.00 | 57 | 1018.7 |
| 20260902164139 | 87 | 14 | 2.6 | 6.1 | 0.00 | 0.00 | 0.00 | 57 | 1018.7 |
| 20260902164037 | 87 | 17 | 3.5 | 6.1 | 0.00 | 0.00 | 0.00 | 57 | 1018.7 |
| 20260902163940 | 87 | 10 | 3.5 | 6.1 | 0.00 | 0.00 | 0.00 | 57 | 1018.7 |
| 20260902163837 | 87 | 32 | 1.7 | 4.3 | 0.00 | 0.00 | 0.00 | 58 | 1018.7 |
| 20260902163736 | 87 | 32 | 0.0 | 4.3 | 0.00 | 0.00 | 0.00 | 58 | 1018.7 |
| 20260902163634 | 87 | 34 | 0.0 | 4.3 | 0.00 | 0.00 | 0.00 | 57 | 1018.7 |
| 20260902163553 | 87 | 34 | 0.9 | 4.3 | 0.00 | 0.00 | 0.00 | 58 | 1018.7 |
| 20260902163430 | 87 | 35 | 0.9 | 4.3 | 0.00 | 0.00 | 0.00 | 58 | 1018.7 |
| 20260902163330 | 87 | 34 | 1.7 | 5.2 | 0.00 | 0.00 | 0.00 | 58 | 1018.7 |
| 20260902163240 | 87 | 31 | 2.6 | 5.2 | 0.00 | 0.00 | 0.00 | 58 | 1018.7 |
| 20260902163153 | 87 | 34 | 1.7 | 5.2 | 0.00 | 0.00 | 0.00 | 59 | 1018.7 |
| 20260902163029 | 87 | 38 | 2.6 | 5.2 | 0.00 | 0.00 | 0.00 | 59 | 1018.7 |
| 20260902162928 | 87 | 37 | 3.5 | 5.2 | 0.00 | 0.00 | 0.00 | 59 | 1018.7 |
| 20260902162827 | 87 | 38 | 1.7 | 5.2 | 0.00 | 0.00 | 0.00 | 59 | 1018.7 |
| 20260902162727 | 86 | 35 | 0.9 | 5.2 | 0.00 | 0.00 | 0.00 | 58 | 1017.8 |
| 20260902162624 | 86 | 37 | 1.7 | 5.2 | 0.00 | 0.00 | 0.00 | 57 | 1017.8 |
| 20260902162546 | 86 | 40 | 2.6 | 5.2 | 0.00 | 0.00 | 0.00 | 56 | 1017.8 |
| 20260902162506 | 86 | 11 | 3.5 | 5.2 | 0.00 | 0.00 | 0.00 | 56 | 1017.8 |
| 20260902162403 | 86 | 6 | 4.3 | 5.2 | 0.00 | 0.00 | 0.00 | 57 | 1017.8 |
| 20260902162307 | 86 | 6 | 3.5 | 5.2 | 0.00 | 0.00 | 0.00 | 58 | 1017.8 |
| 20260902162141 | 86 | 6 | 1.7 | 4.3 | 0.00 | 0.00 | 0.00 | 59 | 1017.8 |
| 20260902162040 | 86 | 4 | 2.6 | 4.3 | 0.00 | 0.00 | 0.00 | 59 | 1017.8 |
| 20260902161958 | 86 | 1 | 2.6 | 4.3 | 0.00 | 0.00 | 0.00 | 59 | 1017.8 |
| 20260902161836 | 86 | 7 | 1.7 | 4.3 | 0.00 | 0.00 | 0.00 | 59 | 1017.8 |
| 20260902161734 | 86 | 8 | 1.7 | 4.3 | 0.00 | 0.00 | 0.00 | 59 | 1017.8 |
| 20260902161702 | 86 | 7 | 1.7 | 4.3 | 0.00 | 0.00 | 0.00 | 59 | 1017.8 |
| 20260902161540 | 86 | 8 | 2.6 | 4.3 | 0.00 | 0.00 | 0.00 | 59 | 1017.8 |
| 20260902161438 | 86 | 8 | 1.7 | 4.3 | 0.00 | 0.00 | 0.00 | 59 | 1017.8 |
| 20260902161340 | 86 | 7 | 1.7 | 4.3 | 0.00 | 0.00 | 0.00 | 58 | 1017.8 |
| 20260902161238 | 86 | 6 | 1.7 | 4.3 | 0.00 | 0.00 | 0.00 | 58 | 1017.9 |
| 20260902161137 | 86 | 6 | 0.9 | 4.3 | 0.00 | 0.00 | 0.00 | 60 | 1017.9 |
| 20260902161035 | 86 | 6 | 1.7 | 4.3 | 0.00 | 0.00 | 0.00 | 59 | 1017.9 |
| 20260902160935 | 86 | 4 | 1.7 | 4.3 | 0.00 | 0.00 | 0.00 | 61 | 1017.9 |
| 20260902160833 | 86 | 4 | 2.6 | 4.3 | 0.00 | 0.00 | 0.00 | 62 | 1017.9 |
| 20260902160736 | 85 | 1 | 2.6 | 4.3 | 0.00 | 0.00 | 0.00 | 62 | 1017.9 |
| 20260902160635 | 85 | 3 | 2.6 | 4.3 | 0.00 | 0.00 | 0.00 | 61 | 1017.9 |
| 20260902160533 | 85 | 360 | 2.6 | 4.3 | 0.00 | 0.00 | 0.00 | 61 | 1017.9 |
| 20260902160452 | 85 | 18 | 3.5 | 4.3 | 0.00 | 0.00 | 0.00 | 62 | 1017.9 |
| 20260902160351 | 85 | 18 | 2.6 | 4.3 | 0.00 | 0.00 | 0.00 | 62 | 1017.9 |
| 20260902160248 | 85 | 17 | 2.6 | 4.3 | 0.00 | 0.00 | 0.00 | 62 | 1017.9 |
| 20260902160158 | 85 | 18 | 1.7 | 4.3 | 0.00 | 0.00 | 0.00 | 62 | 1017.9 |
| 20260902160035 | 85 | 17 | 1.7 | 4.3 | 0.00 | 0.00 | 0.00 | 62 | 1017.9 |
| 20260902155934 | 85 | 16 | 1.7 | 4.3 | 0.00 | 0.00 | 0.00 | 61 | 1017.9 |
| 20260902155837 | 85 | 17 | 1.7 | 4.3 | 0.00 | 0.00 | 0.00 | 62 | 1017.9 |
| 20260902155755 | 85 | 16 | 1.7 | 4.3 | 0.00 | 0.00 | 0.00 | 61 | 1018.1 |
| 20260902155631 | 85 | 17 | 1.7 | 4.3 | 0.00 | 0.00 | 0.00 | 62 | 1018.1 |
| 20260902155550 | 85 | 13 | 1.7 | 4.3 | 0.00 | 0.00 | 0.00 | 62 | 1018.1 |
| 20260902155426 | 85 | 16 | 2.6 | 4.3 | 0.00 | 0.00 | 0.00 | 62 | 1018.1 |
| 20260902155324 | 85 | 17 | 0.9 | 4.3 | 0.00 | 0.00 | 0.00 | 61 | 1018.1 |
| 20260902155243 | 85 | 16 | 1.7 | 4.3 | 0.00 | 0.00 | 0.00 | 61 | 1018.1 |
| 20260902155122 | 85 | 14 | 2.6 | 4.3 | 0.00 | 0.00 | 0.00 | 61 | 1018.1 |
| 20260902155047 | 85 | 16 | 2.6 | 4.3 | 0.00 | 0.00 | 0.00 | 61 | 1018.1 |
| 20260902155007 | 85 | 14 | 1.7 | 4.3 | 0.00 | 0.00 | 0.00 | 61 | 1018.1 |
| 20260902154904 | 85 | 13 | 2.6 | 4.3 | 0.00 | 0.00 | 0.00 | 61 | 1018.1 |
| 20260902154733 | 84 | 10 | 3.5 | 4.3 | 0.00 | 0.00 | 0.00 | 63 | 1018.1 |
| 20260902154641 | 84 | 10 | 1.7 | 4.3 | 0.00 | 0.00 | 0.00 | 62 | 1018.1 |
| 20260902154543 | 84 | 8 | 0.9 | 4.3 | 0.00 | 0.00 | 0.00 | 63 | 1018.1 |
| 20260902154439 | 84 | 7 | 0.0 | 4.3 | 0.00 | 0.00 | 0.00 | 63 | 1018.1 |
| 20260902154337 | 84 | 8 | 0.9 | 4.3 | 0.00 | 0.00 | 0.00 | 64 | 1018.1 |
| 20260902154234 | 84 | 8 | 0.0 | 4.3 | 0.00 | 0.00 | 0.00 | 64 | 1018.1 |
| 20260902154137 | 84 | 10 | 0.0 | 4.3 | 0.00 | 0.00 | 0.00 | 64 | 1018.1 |
| 20260902154057 | 84 | 7 | 0.9 | 4.3 | 0.00 | 0.00 | 0.00 | 63 | 1018.1 |
| 20260902153933 | 84 | 8 | 2.6 | 4.3 | 0.00 | 0.00 | 0.00 | 63 | 1018.1 |
| 20260902153832 | 84 | 8 | 2.6 | 4.3 | 0.00 | 0.00 | 0.00 | 63 | 1018.1 |
| 20260902153730 | 84 | 7 | 3.5 | 4.3 | 0.00 | 0.00 | 0.00 | 64 | 1018.1 |
| 20260902153629 | 84 | 8 | 0.9 | 4.3 | 0.00 | 0.00 | 0.00 | 64 | 1018.1 |
| 20260902153528 | 84 | 7 | 2.6 | 4.3 | 0.00 | 0.00 | 0.00 | 65 | 1018.1 |
| 20260902153429 | 84 | 8 | 2.6 | 4.3 | 0.00 | 0.00 | 0.00 | 66 | 1018.1 |
| 20260902153328 | 84 | 6 | 0.0 | 2.6 | 0.00 | 0.00 | 0.00 | 67 | 1018.1 |
| 20260902153238 | 84 | 7 | 0.0 | 2.6 | 0.00 | 0.00 | 0.00 | 67 | 1018.1 |
| 20260902153148 | 84 | 4 | 0.9 | 2.6 | 0.00 | 0.00 | 0.00 | 66 | 1018.1 |
| 20260902153046 | 84 | 6 | 1.7 | 3.5 | 0.00 | 0.00 | 0.00 | 66 | 1018.1 |
| 20260902153005 | 84 | 6 | 1.7 | 3.5 | 0.00 | 0.00 | 0.00 | 65 | 1018.1 |
| 20260902152841 | 84 | 6 | 1.7 | 3.5 | 0.00 | 0.00 | 0.00 | 67 | 1018.1 |
| 20260902152738 | 84 | 4 | 1.7 | 3.5 | 0.00 | 0.00 | 0.00 | 67 | 1018.1 |
| 20260902152637 | 83 | 6 | 0.9 | 3.5 | 0.00 | 0.00 | 0.00 | 66 | 1018.1 |
| 20260902152541 | 83 | 13 | 0.9 | 3.5 | 0.00 | 0.00 | 0.00 | 66 | 1018.1 |
| 20260902152439 | 83 | 14 | 0.9 | 4.3 | 0.00 | 0.00 | 0.00 | 66 | 1018.1 |
| 20260902152337 | 83 | 16 | 1.7 | 4.3 | 0.00 | 0.00 | 0.00 | 65 | 1018.1 |
| 20260902152236 | 83 | 14 | 1.7 | 4.3 | 0.00 | 0.00 | 0.00 | 67 | 1018.1 |
| 20260902152134 | 83 | 14 | 1.7 | 4.3 | 0.00 | 0.00 | 0.00 | 66 | 1018.1 |
| 20260902152032 | 83 | 41 | 0.9 | 4.3 | 0.00 | 0.00 | 0.00 | 66 | 1018.1 |
| 20260902151934 | 83 | 42 | 0.9 | 5.2 | 0.00 | 0.00 | 0.00 | 66 | 1018.1 |
| 20260902151833 | 83 | 40 | 0.9 | 5.2 | 0.00 | 0.00 | 0.00 | 66 | 1018.1 |
| 20260902151803 | 83 | 51 | 1.7 | 5.2 | 0.00 | 0.00 | 0.00 | 66 | 1018.1 |
| 20260902151650 | 83 | 51 | 2.6 | 5.2 | 0.00 | 0.00 | 0.00 | 67 | 1018.1 |
| 20260902151528 | 83 | 54 | 1.7 | 5.2 | 0.00 | 0.00 | 0.00 | 67 | 1018.1 |
| 20260902151426 | 83 | 54 | 0.0 | 5.2 | 0.00 | 0.00 | 0.00 | 67 | 1018.1 |
| 20260902151325 | 83 | 56 | 0.0 | 5.2 | 0.00 | 0.00 | 0.00 | 68 | 1018.1 |
| 20260902151243 | 83 | 54 | 0.0 | 5.2 | 0.00 | 0.00 | 0.00 | 67 | 1017.9 |
| 20260902151125 | 83 | 56 | 2.6 | 5.2 | 0.00 | 0.00 | 0.00 | 67 | 1017.9 |
| 20260902151044 | 83 | 73 | 1.7 | 5.2 | 0.00 | 0.00 | 0.00 | 68 | 1017.9 |
| 20260902151003 | 83 | 200 | 0.9 | 1.7 | 0.00 | 0.00 | 0.00 | 68 | 1017.9 |
| 20260902150901 | 83 | 200 | 0.0 | 2.6 | 0.00 | 0.00 | 0.00 | 67 | 1017.9 |
| 20260902150738 | 83 | 196 | 0.0 | 2.6 | 0.00 | 0.00 | 0.00 | 67 | 1017.9 |
| 20260902150636 | 82 | 196 | 0.0 | 2.6 | 0.00 | 0.00 | 0.00 | 66 | 1017.9 |
| 20260902150535 | 82 | 199 | 0.0 | 2.6 | 0.00 | 0.00 | 0.00 | 66 | 1017.9 |
| 20260902150454 | 82 | 199 | 1.7 | 2.6 | 0.00 | 0.00 | 0.00 | 66 | 1017.9 |
| 20260902150331 | 82 | 200 | 0.9 | 2.6 | 0.00 | 0.00 | 0.00 | 66 | 1017.9 |
| 20260902150254 | 82 | 196 | 0.0 | 2.6 | 0.00 | 0.00 | 0.00 | 65 | 1017.9 |
| 20260902150203 | 82 | 198 | 0.0 | 2.6 | 0.00 | 0.00 | 0.00 | 64 | 1017.9 |
| 20260902150040 | 82 | 196 | 0.9 | 2.6 | 0.00 | 0.00 | 0.00 | 64 | 1017.9 |
| 20260902145939 | 82 | 196 | 0.9 | 2.6 | 0.00 | 0.00 | 0.00 | 64 | 1017.9 |
| 20260902145836 | 82 | 196 | 1.7 | 2.6 | 0.00 | 0.00 | 0.00 | 63 | 1017.9 |
| 20260902145755 | 82 | 195 | 0.0 | 2.6 | 0.00 | 0.00 | 0.00 | 65 | 1017.8 |
| 20260902145634 | 82 | 195 | 0.0 | 2.6 | 0.00 | 0.00 | 0.00 | 65 | 1017.8 |
| 20260902145532 | 82 | 193 | 0.9 | 2.6 | 0.00 | 0.00 | 0.00 | 65 | 1017.8 |
| 20260902145435 | 82 | 195 | 0.9 | 2.6 | 0.00 | 0.00 | 0.00 | 64 | 1017.8 |
| 20260902145334 | 82 | 195 | 1.7 | 2.6 | 0.00 | 0.00 | 0.00 | 65 | 1017.8 |
| 20260902145232 | 82 | 195 | 1.7 | 2.6 | 0.00 | 0.00 | 0.00 | 65 | 1017.8 |
| 20260902145131 | 82 | 193 | 1.7 | 2.6 | 0.00 | 0.00 | 0.00 | 66 | 1017.8 |
| 20260902145030 | 82 | 192 | 1.7 | 2.6 | 0.00 | 0.00 | 0.00 | 66 | 1017.8 |
| 20260902144930 | 82 | 193 | 1.7 | 2.6 | 0.00 | 0.00 | 0.00 | 65 | 1017.8 |
| 20260902144849 | 82 | 192 | 0.9 | 2.6 | 0.00 | 0.00 | 0.00 | 67 | 1017.8 |
| 20260902144742 | 82 | 191 | 1.7 | 2.6 | 0.00 | 0.00 | 0.00 | 67 | 1017.8 |
| 20260902144652 | 82 | 193 | 2.6 | 2.6 | 0.00 | 0.00 | 0.00 | 67 | 1017.8 |
| 20260902144550 | 82 | 192 | 0.9 | 2.6 | 0.00 | 0.00 | 0.00 | 67 | 1017.8 |
| 20260902144426 | 81 | 186 | 0.0 | 0.9 | 0.00 | 0.00 | 0.00 | 69 | 1017.8 |
| 20260902144324 | 81 | 186 | 0.0 | 0.9 | 0.00 | 0.00 | 0.00 | 69 | 1017.8 |
| 20260902144243 | 81 | 185 | 0.0 | 0.9 | 0.00 | 0.00 | 0.00 | 69 | 1017.7 |
| 20260902144144 | 81 | 186 | 0.0 | 0.9 | 0.00 | 0.00 | 0.00 | 69 | 1017.7 |
| 20260902144043 | 81 | 186 | 0.0 | 0.9 | 0.00 | 0.00 | 0.00 | 70 | 1017.7 |
| 20260902143925 | 81 | 184 | 0.0 | 0.9 | 0.00 | 0.00 | 0.00 | 69 | 1017.7 |
| 20260902143843 | 81 | 184 | 0.0 | 0.9 | 0.00 | 0.00 | 0.00 | 69 | 1017.7 |
| 20260902143741 | 81 | 186 | 0.0 | 0.9 | 0.00 | 0.00 | 0.00 | 69 | 1017.7 |
| 20260902143639 | 81 | 185 | 0.0 | 0.9 | 0.00 | 0.00 | 0.00 | 69 | 1017.7 |
| 20260902143537 | 81 | 185 | 0.0 | 1.7 | 0.00 | 0.00 | 0.00 | 69 | 1017.7 |
| 20260902143435 | 81 | 185 | 0.0 | 1.7 | 0.00 | 0.00 | 0.00 | 68 | 1017.7 |
| 20260902143334 | 81 | 186 | 0.0 | 2.6 | 0.00 | 0.00 | 0.00 | 69 | 1017.7 |
| 20260902143257 | 81 | 185 | 0.0 | 2.6 | 0.00 | 0.00 | 0.00 | 69 | 1017.7 |
| 20260902143205 | 81 | 185 | 0.0 | 2.6 | 0.00 | 0.00 | 0.00 | 69 | 1017.7 |
| 20260902143103 | 81 | 184 | 0.0 | 2.6 | 0.00 | 0.00 | 0.00 | 69 | 1017.7 |
| 20260902142940 | 81 | 185 | 0.0 | 2.6 | 0.00 | 0.00 | 0.00 | 68 | 1017.7 |
| 20260902142839 | 81 | 185 | 0.0 | 2.6 | 0.00 | 0.00 | 0.00 | 68 | 1017.7 |
| 20260902142738 | 81 | 185 | 0.9 | 2.6 | 0.00 | 0.00 | 0.00 | 68 | 1017.7 |
| 20260902142637 | 81 | 185 | 0.9 | 2.6 | 0.00 | 0.00 | 0.00 | 69 | 1017.7 |
| 20260902142535 | 81 | 184 | 1.7 | 2.6 | 0.00 | 0.00 | 0.00 | 69 | 1017.7 |
| 20260902142436 | 81 | 186 | 0.9 | 1.7 | 0.00 | 0.00 | 0.00 | 69 | 1017.7 |
| 20260902142334 | 81 | 185 | 0.9 | 1.7 | 0.00 | 0.00 | 0.00 | 69 | 1017.7 |
| 20260902142232 | 81 | 186 | 0.0 | 1.7 | 0.00 | 0.00 | 0.00 | 68 | 1017.7 |
| 20260902142131 | 80 | 186 | 0.0 | 1.7 | 0.00 | 0.00 | 0.00 | 68 | 1017.7 |
| 20260902142049 | 80 | 186 | 0.0 | 1.7 | 0.00 | 0.00 | 0.00 | 68 | 1017.7 |
| 20260902141927 | 80 | 185 | 0.0 | 1.7 | 0.00 | 0.00 | 0.00 | 68 | 1017.7 |
| 20260902141825 | 80 | 185 | 0.0 | 1.7 | 0.00 | 0.00 | 0.00 | 68 | 1017.7 |
| 20260902141738 | 80 | 188 | 0.9 | 1.7 | 0.00 | 0.00 | 0.00 | 68 | 1017.7 |
| 20260902141648 | 80 | 186 | 0.9 | 1.7 | 0.00 | 0.00 | 0.00 | 68 | 1017.7 |
| 20260902141525 | 80 | 186 | 0.9 | 1.7 | 0.00 | 0.00 | 0.00 | 68 | 1017.7 |
| 20260902141424 | 80 | 184 | 0.0 | 2.6 | 0.00 | 0.00 | 0.00 | 68 | 1017.7 |
| 20260902141343 | 80 | 186 | 0.0 | 2.6 | 0.00 | 0.00 | 0.00 | 68 | 1017.7 |
| 20260902141240 | 80 | 186 | 0.0 | 2.6 | 0.00 | 0.00 | 0.00 | 69 | 1017.6 |
| 20260902141159 | 80 | 185 | 0.0 | 2.6 | 0.00 | 0.00 | 0.00 | 69 | 1017.6 |
| 20260902141035 | 80 | 184 | 0.0 | 2.6 | 0.00 | 0.00 | 0.00 | 69 | 1017.6 |
| 20260902140938 | 80 | 185 | 0.0 | 2.6 | 0.00 | 0.00 | 0.00 | 68 | 1017.6 |
| 20260902140837 | 80 | 184 | 0.9 | 2.6 | 0.00 | 0.00 | 0.00 | 68 | 1017.6 |
| 20260902140734 | 80 | 186 | 0.9 | 2.6 | 0.00 | 0.00 | 0.00 | 69 | 1017.6 |
| 20260902140633 | 80 | 186 | 1.7 | 2.6 | 0.00 | 0.00 | 0.00 | 69 | 1017.6 |
| 20260902140531 | 80 | 185 | 0.0 | 2.6 | 0.00 | 0.00 | 0.00 | 69 | 1017.6 |
| 20260902140430 | 80 | 186 | 0.0 | 2.6 | 0.00 | 0.00 | 0.00 | 69 | 1017.6 |
| 20260902140332 | 80 | 182 | 0.9 | 2.6 | 0.00 | 0.00 | 0.00 | 68 | 1017.6 |
| 20260902140230 | 80 | 185 | 0.9 | 2.6 | 0.00 | 0.00 | 0.00 | 69 | 1017.6 |
| 20260902140202 | 80 | 186 | 0.9 | 2.6 | 0.00 | 0.00 | 0.00 | 69 | 1017.6 |
| 20260902140059 | 79 | 184 | 0.0 | 2.6 | 0.00 | 0.00 | 0.00 | 69 | 1017.6 |
| 20260902135937 | 79 | 181 | 0.0 | 2.6 | 0.00 | 0.00 | 0.00 | 70 | 1017.6 |
| 20260902135835 | 79 | 184 | 1.7 | 2.6 | 0.00 | 0.00 | 0.00 | 71 | 1017.6 |
| 20260902135732 | 79 | 182 | 0.9 | 1.7 | 0.00 | 0.00 | 0.00 | 71 | 1017.7 |
| 20260902135652 | 79 | 181 | 0.0 | 1.7 | 0.00 | 0.00 | 0.00 | 71 | 1017.7 |
| 20260902135551 | 79 | 181 | 0.0 | 1.7 | 0.00 | 0.00 | 0.00 | 72 | 1017.7 |
| 20260902135453 | 79 | 175 | 0.9 | 1.7 | 0.00 | 0.00 | 0.00 | 72 | 1017.7 |
| 20260902135330 | 79 | 181 | 0.0 | 1.7 | 0.00 | 0.00 | 0.00 | 72 | 1017.7 |
| 20260902135228 | 79 | 181 | 0.9 | 1.7 | 0.00 | 0.00 | 0.00 | 72 | 1017.7 |
| 20260902135146 | 79 | 179 | 0.0 | 0.0 | 0.00 | 0.00 | 0.00 | 72 | 1017.7 |
| 20260902135025 | 79 | 181 | 0.0 | 0.0 | 0.00 | 0.00 | 0.00 | 73 | 1017.7 |
| 20260902134944 | 79 | 178 | 0.0 | 0.0 | 0.00 | 0.00 | 0.00 | 73 | 1017.7 |
| 20260902134902 | 79 | 179 | 0.0 | 0.0 | 0.00 | 0.00 | 0.00 | 74 | 1017.7 |
| 20260902134739 | 79 | 179 | 0.0 | 0.0 | 0.00 | 0.00 | 0.00 | 75 | 1017.7 |
| 20260902134709 | 79 | 181 | 0.0 | 0.0 | 0.00 | 0.00 | 0.00 | 75 | 1017.7 |
| 20260902134530 | 79 | 179 | 0.0 | 1.7 | 0.00 | 0.00 | 0.00 | 75 | 1017.7 |
| 20260902134429 | 79 | 179 | 0.0 | 2.6 | 0.00 | 0.00 | 0.00 | 75 | 1017.7 |
| 20260902134327 | 79 | 179 | 0.0 | 2.6 | 0.00 | 0.00 | 0.00 | 76 | 1017.7 |
| 20260902134247 | 79 | 181 | 0.0 | 2.6 | 0.00 | 0.00 | 0.00 | 76 | 1017.8 |
| 20260902134124 | 79 | 179 | 0.0 | 2.6 | 0.00 | 0.00 | 0.00 | 76 | 1017.8 |
| 20260902134043 | 79 | 179 | 0.0 | 2.6 | 0.00 | 0.00 | 0.00 | 75 | 1017.8 |
| 20260902133943 | 79 | 179 | 0.0 | 2.6 | 0.00 | 0.00 | 0.00 | 75 | 1017.8 |
| 20260902133824 | 79 | 179 | 0.0 | 2.6 | 0.00 | 0.00 | 0.00 | 75 | 1017.8 |
| 20260902133742 | 79 | 179 | 0.9 | 2.6 | 0.00 | 0.00 | 0.00 | 75 | 1017.8 |
| 20260902133642 | 79 | 179 | 1.7 | 2.6 | 0.00 | 0.00 | 0.00 | 75 | 1017.8 |
| 20260902133538 | 79 | 179 | 1.7 | 2.6 | 0.00 | 0.00 | 0.00 | 76 | 1017.8 |
| 20260902133437 | 79 | 181 | 0.0 | 1.7 | 0.00 | 0.00 | 0.00 | 76 | 1017.8 |
| 20260902133335 | 78 | 176 | 0.0 | 1.7 | 0.00 | 0.00 | 0.00 | 76 | 1017.8 |
| 20260902133244 | 78 | 179 | 0.9 | 1.7 | 0.00 | 0.00 | 0.00 | 76 | 1017.8 |
| 20260902133155 | 78 | 179 | 0.9 | 1.7 | 0.00 | 0.00 | 0.00 | 76 | 1017.8 |
| 20260902133035 | 78 | 179 | 0.9 | 1.7 | 0.00 | 0.00 | 0.00 | 76 | 1017.8 |
| 20260902132933 | 78 | 178 | 0.9 | 1.7 | 0.00 | 0.00 | 0.00 | 75 | 1017.8 |
| 20260902132852 | 78 | 181 | 1.7 | 1.7 | 0.00 | 0.00 | 0.00 | 75 | 1017.8 |
| 20260902132729 | 78 | 179 | 0.9 | 0.9 | 0.00 | 0.00 | 0.00 | 75 | 1017.7 |
| 20260902132628 | 78 | 181 | 0.9 | 0.9 | 0.00 | 0.00 | 0.00 | 75 | 1017.7 |
| 20260902132546 | 78 | 179 | 0.9 | 0.9 | 0.00 | 0.00 | 0.00 | 75 | 1017.7 |
| 20260902132443 | 78 | 179 | 0.0 | 0.9 | 0.00 | 0.00 | 0.00 | 75 | 1017.7 |
| 20260902132341 | 78 | 179 | 0.0 | 0.0 | 0.00 | 0.00 | 0.00 | 75 | 1017.7 |
| 20260902132224 | 78 | 179 | 0.0 | 0.0 | 0.00 | 0.00 | 0.00 | 75 | 1017.7 |
| 20260902132143 | 78 | 178 | 0.0 | 0.0 | 0.00 | 0.00 | 0.00 | 75 | 1017.7 |
| 20260902132041 | 78 | 179 | 0.0 | 0.0 | 0.00 | 0.00 | 0.00 | 75 | 1017.7 |
| 20260902131939 | 78 | 178 | 0.0 | 0.0 | 0.00 | 0.00 | 0.00 | 75 | 1017.7 |
| 20260902131836 | 78 | 179 | 0.0 | 0.0 | 0.00 | 0.00 | 0.00 | 75 | 1017.7 |
| 20260902131755 | 78 | 179 | 0.0 | 0.0 | 0.00 | 0.00 | 0.00 | 75 | 1017.7 |
| 20260902131725 | 78 | 181 | 0.0 | 0.0 | 0.00 | 0.00 | 0.00 | 75 | 1017.7 |
| 20260902131543 | 78 | 179 | 0.0 | 0.0 | 0.00 | 0.00 | 0.00 | 75 | 1017.7 |
| 20260902131424 | 78 | 179 | 0.0 | 0.0 | 0.00 | 0.00 | 0.00 | 74 | 1017.7 |
| 20260902131325 | 78 | 179 | 0.0 | 0.0 | 0.00 | 0.00 | 0.00 | 74 | 1017.7 |
| 20260902131224 | 77 | 179 | 0.0 | 0.0 | 0.00 | 0.00 | 0.00 | 74 | 1017.6 |
| 20260902131142 | 77 | 181 | 0.0 | 0.0 | 0.00 | 0.00 | 0.00 | 74 | 1017.6 |
| 20260902131041 | 77 | 179 | 0.0 | 0.0 | 0.00 | 0.00 | 0.00 | 74 | 1017.6 |
| 20260902130939 | 77 | 179 | 0.0 | 0.0 | 0.00 | 0.00 | 0.00 | 74 | 1017.6 |
| 20260902130837 | 77 | 181 | 0.0 | 0.0 | 0.00 | 0.00 | 0.00 | 74 | 1017.6 |
| 20260902130740 | 77 | 179 | 0.0 | 0.0 | 0.00 | 0.00 | 0.00 | 74 | 1017.6 |
| 20260902130640 | 77 | 179 | 0.0 | 0.0 | 0.00 | 0.00 | 0.00 | 74 | 1017.6 |
| 20260902130538 | 77 | 181 | 0.0 | 0.0 | 0.00 | 0.00 | 0.00 | 74 | 1017.6 |
| 20260902130437 | 77 | 179 | 0.0 | 0.0 | 0.00 | 0.00 | 0.00 | 74 | 1017.6 |
| 20260902130335 | 77 | 179 | 0.0 | 0.0 | 0.00 | 0.00 | 0.00 | 74 | 1017.6 |
| 20260902130233 | 77 | 179 | 0.0 | 0.0 | 0.00 | 0.00 | 0.00 | 74 | 1017.6 |
| 20260902130203 | 77 | 181 | 0.0 | 0.0 | 0.00 | 0.00 | 0.00 | 74 | 1017.6 |
| 20260902125942 | 77 | 179 | 0.0 | 0.0 | 0.00 | 0.00 | 0.00 | 74 | 1017.6 |
| 20260902125903 | 77 | 181 | 0.0 | 0.0 | 0.00 | 0.00 | 0.00 | 74 | 1017.6 |
| 20260902125741 | 77 | 178 | 0.0 | 0.0 | 0.00 | 0.00 | 0.00 | 74 | 1017.7 |
| 20260902125700 | 77 | 181 | 0.0 | 0.0 | 0.00 | 0.00 | 0.00 | 74 | 1017.7 |
| 20260902125538 | 77 | 181 | 0.0 | 0.0 | 0.00 | 0.00 | 0.00 | 74 | 1017.7 |
| 20260902125456 | 77 | 179 | 0.0 | 0.0 | 0.00 | 0.00 | 0.00 | 74 | 1017.7 |
| 20260902125333 | 77 | 179 | 0.0 | 0.0 | 0.00 | 0.00 | 0.00 | 74 | 1017.7 |
| 20260902125231 | 77 | 181 | 0.0 | 0.0 | 0.00 | 0.00 | 0.00 | 74 | 1017.7 |
| 20260902125135 | 77 | 181 | 0.0 | 0.0 | 0.00 | 0.00 | 0.00 | 74 | 1017.7 |
| 20260902125034 | 77 | 179 | 0.0 | 0.0 | 0.00 | 0.00 | 0.00 | 74 | 1017.7 |
| 20260902124952 | 77 | 181 | 0.0 | 0.0 | 0.00 | 0.00 | 0.00 | 74 | 1017.7 |
| 20260902124827 | 77 | 181 | 0.0 | 0.0 | 0.00 | 0.00 | 0.00 | 74 | 1017.7 |
| 20260902124736 | 77 | 181 | 0.0 | 0.0 | 0.00 | 0.00 | 0.00 | 74 | 1017.7 |
| 20260902124645 | 77 | 178 | 0.0 | 0.0 | 0.00 | 0.00 | 0.00 | 74 | 1017.7 |
| 20260902124543 | 77 | 179 | 0.0 | 0.0 | 0.00 | 0.00 | 0.00 | 74 | 1017.7 |
| 20260902124442 | 77 | 178 | 0.0 | 0.0 | 0.00 | 0.00 | 0.00 | 74 | 1017.7 |
| 20260902124343 | 77 | 181 | 0.0 | 0.0 | 0.00 | 0.00 | 0.00 | 74 | 1017.7 |
| 20260902124242 | 77 | 179 | 0.0 | 0.0 | 0.00 | 0.00 | 0.00 | 74 | 1017.7 |
| 20260902124141 | 77 | 179 | 0.0 | 0.0 | 0.00 | 0.00 | 0.00 | 74 | 1017.7 |
| 20260902124039 | 77 | 179 | 0.0 | 0.0 | 0.00 | 0.00 | 0.00 | 74 | 1017.7 |
| 20260902123937 | 77 | 179 | 0.0 | 0.9 | 0.00 | 0.00 | 0.00 | 74 | 1017.7 |
| 20260902123835 | 77 | 181 | 0.0 | 0.9 | 0.00 | 0.00 | 0.00 | 74 | 1017.7 |
| 20260902123733 | 77 | 179 | 0.0 | 0.9 | 0.00 | 0.00 | 0.00 | 74 | 1017.7 |
| 20260902123636 | 77 | 178 | 0.0 | 1.7 | 0.00 | 0.00 | 0.00 | 74 | 1017.7 |
| 20260902123538 | 76 | 179 | 0.0 | 2.6 | 0.00 | 0.00 | 0.00 | 74 | 1017.7 |
| 20260902123437 | 76 | 178 | 0.0 | 2.6 | 0.00 | 0.00 | 0.00 | 74 | 1017.7 |
| 20260902123358 | 76 | 178 | 0.0 | 2.6 | 0.00 | 0.00 | 0.00 | 74 | 1017.7 |
| 20260902123316 | 76 | 181 | 0.0 | 2.6 | 0.00 | 0.00 | 0.00 | 74 | 1017.7 |
| 20260902123205 | 76 | 181 | 0.0 | 2.6 | 0.00 | 0.00 | 0.00 | 74 | 1017.7 |
| 20260902123042 | 76 | 179 | 0.0 | 2.6 | 0.00 | 0.00 | 0.00 | 74 | 1017.7 |
| 20260902122943 | 76 | 178 | 0.0 | 2.6 | 0.00 | 0.00 | 0.00 | 74 | 1017.7 |
| 20260902122905 | 76 | 178 | 0.9 | 2.6 | 0.00 | 0.00 | 0.00 | 73 | 1017.7 |
| 20260902122742 | 76 | 178 | 1.7 | 2.6 | 0.00 | 0.00 | 0.00 | 73 | 1017.5 |
| 20260902122641 | 76 | 178 | 1.7 | 2.6 | 0.00 | 0.00 | 0.00 | 73 | 1017.5 |
| 20260902122559 | 76 | 181 | 1.7 | 2.6 | 0.00 | 0.00 | 0.00 | 73 | 1017.5 |
| 20260902122436 | 76 | 179 | 1.7 | 2.6 | 0.00 | 0.00 | 0.00 | 73 | 1017.5 |
| 20260902122334 | 76 | 179 | 0.9 | 1.7 | 0.00 | 0.00 | 0.00 | 73 | 1017.5 |
| 20260902122252 | 76 | 178 | 0.9 | 1.7 | 0.00 | 0.00 | 0.00 | 73 | 1017.5 |
| 20260902122129 | 76 | 179 | 0.0 | 1.7 | 0.00 | 0.00 | 0.00 | 73 | 1017.5 |
| 20260902122032 | 76 | 179 | 0.0 | 0.9 | 0.00 | 0.00 | 0.00 | 73 | 1017.5 |
| 20260902121930 | 76 | 179 | 0.0 | 0.9 | 0.00 | 0.00 | 0.00 | 74 | 1017.5 |
| 20260902121828 | 76 | 179 | 0.0 | 0.9 | 0.00 | 0.00 | 0.00 | 74 | 1017.5 |
| 20260902121726 | 76 | 178 | 0.0 | 1.7 | 0.00 | 0.00 | 0.00 | 74 | 1017.5 |
| 20260902121656 | 76 | 179 | 0.0 | 1.7 | 0.00 | 0.00 | 0.00 | 74 | 1017.5 |
| 20260902121554 | 76 | 176 | 0.0 | 1.7 | 0.00 | 0.00 | 0.00 | 74 | 1017.5 |
| 20260902121431 | 76 | 176 | 0.0 | 2.6 | 0.00 | 0.00 | 0.00 | 74 | 1017.5 |
| 20260902121333 | 76 | 176 | 0.0 | 2.6 | 0.00 | 0.00 | 0.00 | 73 | 1017.5 |
| 20260902121232 | 76 | 176 | 0.0 | 2.6 | 0.00 | 0.00 | 0.00 | 73 | 1017.2 |
| 20260902121149 | 76 | 178 | 0.0 | 2.6 | 0.00 | 0.00 | 0.00 | 73 | 1017.2 |
| 20260902121024 | 76 | 176 | 0.0 | 2.6 | 0.00 | 0.00 | 0.00 | 72 | 1017.2 |
| 20260902120943 | 76 | 178 | 0.9 | 2.6 | 0.00 | 0.00 | 0.00 | 72 | 1017.2 |
| 20260902120842 | 76 | 175 | 0.9 | 2.6 | 0.00 | 0.00 | 0.00 | 72 | 1017.2 |
| 20260902120740 | 76 | 178 | 0.9 | 2.6 | 0.00 | 0.00 | 0.00 | 72 | 1017.2 |
| 20260902120640 | 76 | 175 | 1.7 | 2.6 | 0.00 | 0.00 | 0.00 | 72 | 1017.2 |
| 20260902120543 | 76 | 174 | 1.7 | 2.6 | 0.00 | 0.00 | 0.00 | 72 | 1017.2 |
| 20260902120502 | 76 | 178 | 1.7 | 2.6 | 0.00 | 0.00 | 0.00 | 72 | 1017.2 |
| 20260902120338 | 76 | 178 | 1.7 | 2.6 | 0.00 | 0.00 | 0.00 | 72 | 1017.2 |
| 20260902120238 | 76 | 178 | 1.7 | 2.6 | 0.00 | 0.00 | 0.00 | 72 | 1017.2 |
| 20260902120207 | 76 | 175 | 1.7 | 2.6 | 0.00 | 0.00 | 0.00 | 72 | 1017.2 |
| 20260902120043 | 76 | 175 | 1.7 | 2.6 | 0.00 | 0.00 | 0.00 | 72 | 1017.2 |
| 20260902115942 | 76 | 178 | 2.6 | 2.6 | 0.00 | 0.00 | 0.00 | 72 | 1017.2 |
| 20260902115841 | 76 | 178 | 1.7 | 4.3 | 0.00 | 0.00 | 0.00 | 72 | 1017.2 |
| 20260902115759 | 76 | 176 | 1.7 | 4.3 | 0.00 | 0.00 | 0.00 | 72 | 1017.0 |
| 20260902115640 | 76 | 176 | 1.7 | 4.3 | 0.00 | 0.00 | 0.00 | 72 | 1017.0 |
| 20260902115538 | 76 | 176 | 1.7 | 4.3 | 0.00 | 0.00 | 0.00 | 72 | 1017.0 |
| 20260902115457 | 76 | 178 | 1.7 | 4.3 | 0.00 | 0.00 | 0.00 | 72 | 1017.0 |
| 20260902115334 | 76 | 176 | 1.7 | 4.3 | 0.00 | 0.00 | 0.00 | 72 | 1017.0 |
| 20260902115231 | 76 | 176 | 2.6 | 4.3 | 0.00 | 0.00 | 0.00 | 72 | 1017.0 |
| 20260902115130 | 76 | 176 | 1.7 | 4.3 | 0.00 | 0.00 | 0.00 | 72 | 1017.0 |
| 20260902115029 | 76 | 178 | 2.6 | 4.3 | 0.00 | 0.00 | 0.00 | 72 | 1017.0 |
| 20260902114932 | 76 | 178 | 1.7 | 3.5 | 0.00 | 0.00 | 0.00 | 72 | 1017.0 |
| 20260902114852 | 76 | 178 | 2.6 | 3.5 | 0.00 | 0.00 | 0.00 | 72 | 1017.0 |
| 20260902114811 | 76 | 174 | 1.7 | 3.5 | 0.00 | 0.00 | 0.00 | 72 | 1017.0 |
| 20260902114657 | 76 | 178 | 2.6 | 3.5 | 0.00 | 0.00 | 0.00 | 72 | 1017.0 |
| 20260902114535 | 76 | 176 | 2.6 | 3.5 | 0.00 | 0.00 | 0.00 | 73 | 1017.0 |
| 20260902114432 | 76 | 178 | 2.6 | 4.3 | 0.00 | 0.00 | 0.00 | 73 | 1017.0 |
| 20260902114351 | 76 | 178 | 2.6 | 4.3 | 0.00 | 0.00 | 0.00 | 73 | 1017.0 |
| 20260902114249 | 76 | 176 | 2.6 | 4.3 | 0.00 | 0.00 | 0.00 | 73 | 1016.8 |
| 20260902114145 | 76 | 178 | 1.7 | 4.3 | 0.00 | 0.00 | 0.00 | 72 | 1016.8 |
| 20260902114043 | 76 | 178 | 1.7 | 4.3 | 0.00 | 0.00 | 0.00 | 73 | 1016.8 |
| 20260902113926 | 76 | 178 | 2.6 | 4.3 | 0.00 | 0.00 | 0.00 | 73 | 1016.8 |
| 20260902113824 | 76 | 176 | 1.7 | 4.3 | 0.00 | 0.00 | 0.00 | 73 | 1016.8 |
| 20260902113742 | 76 | 178 | 2.6 | 4.3 | 0.00 | 0.00 | 0.00 | 73 | 1016.8 |
| 20260902113642 | 76 | 174 | 2.6 | 4.3 | 0.00 | 0.00 | 0.00 | 73 | 1016.8 |
| 20260902113540 | 76 | 178 | 1.7 | 2.6 | 0.00 | 0.00 | 0.00 | 73 | 1016.8 |
| 20260902113437 | 76 | 176 | 1.7 | 2.6 | 0.00 | 0.00 | 0.00 | 73 | 1016.8 |
| 20260902113335 | 76 | 175 | 1.7 | 2.6 | 0.00 | 0.00 | 0.00 | 73 | 1016.8 |
| 20260902113237 | 76 | 176 | 2.6 | 2.6 | 0.00 | 0.00 | 0.00 | 73 | 1016.8 |
| 20260902113147 | 76 | 178 | 2.6 | 2.6 | 0.00 | 0.00 | 0.00 | 73 | 1016.8 |
| 20260902113043 | 76 | 175 | 1.7 | 2.6 | 0.00 | 0.00 | 0.00 | 72 | 1016.8 |
| 20260902113002 | 76 | 178 | 1.7 | 2.6 | 0.00 | 0.00 | 0.00 | 72 | 1016.8 |
| 20260902112839 | 76 | 176 | 2.6 | 2.6 | 0.00 | 0.00 | 0.00 | 73 | 1016.8 |
| 20260902112735 | 76 | 176 | 2.6 | 2.6 | 0.00 | 0.00 | 0.00 | 73 | 1016.7 |
| 20260902112634 | 76 | 176 | 2.6 | 2.6 | 0.00 | 0.00 | 0.00 | 73 | 1016.7 |
| 20260902112532 | 76 | 176 | 1.7 | 2.6 | 0.00 | 0.00 | 0.00 | 73 | 1016.7 |
| 20260902112451 | 76 | 175 | 1.7 | 2.6 | 0.00 | 0.00 | 0.00 | 73 | 1016.7 |
| 20260902112352 | 76 | 176 | 2.6 | 2.6 | 0.00 | 0.00 | 0.00 | 73 | 1016.7 |
| 20260902112251 | 76 | 178 | 2.6 | 2.6 | 0.00 | 0.00 | 0.00 | 73 | 1016.7 |
| 20260902112128 | 76 | 178 | 1.7 | 2.6 | 0.00 | 0.00 | 0.00 | 73 | 1016.7 |
| 20260902112027 | 76 | 178 | 1.7 | 2.6 | 0.00 | 0.00 | 0.00 | 73 | 1016.7 |
| 20260902111927 | 76 | 178 | 1.7 | 2.6 | 0.00 | 0.00 | 0.00 | 72 | 1016.7 |
| 20260902111826 | 76 | 178 | 1.7 | 2.6 | 0.00 | 0.00 | 0.00 | 72 | 1016.7 |
| 20260902111737 | 76 | 178 | 2.6 | 2.6 | 0.00 | 0.00 | 0.00 | 72 | 1016.7 |
| 20260902111645 | 76 | 178 | 1.7 | 2.6 | 0.00 | 0.00 | 0.00 | 72 | 1016.7 |
| 20260902111527 | 76 | 176 | 1.7 | 2.6 | 0.00 | 0.00 | 0.00 | 73 | 1016.7 |
| 20260902111424 | 76 | 178 | 1.7 | 2.6 | 0.00 | 0.00 | 0.00 | 73 | 1016.7 |
| 20260902111343 | 76 | 178 | 2.6 | 2.6 | 0.00 | 0.00 | 0.00 | 72 | 1016.7 |
| 20260902111242 | 76 | 178 | 1.7 | 2.6 | 0.00 | 0.00 | 0.00 | 72 | 1016.7 |
| 20260902111142 | 76 | 176 | 1.7 | 2.6 | 0.00 | 0.00 | 0.00 | 72 | 1016.7 |
| 20260902111043 | 76 | 178 | 1.7 | 4.3 | 0.00 | 0.00 | 0.00 | 72 | 1016.7 |
| 20260902110941 | 76 | 178 | 1.7 | 4.3 | 0.00 | 0.00 | 0.00 | 71 | 1016.7 |
| 20260902110823 | 76 | 175 | 1.7 | 4.3 | 0.00 | 0.00 | 0.00 | 71 | 1016.7 |
| 20260902110742 | 76 | 178 | 1.7 | 4.3 | 0.00 | 0.00 | 0.00 | 71 | 1016.7 |
| 20260902110640 | 76 | 178 | 1.7 | 4.3 | 0.00 | 0.00 | 0.00 | 71 | 1016.7 |
| 20260902110600 | 76 | 178 | 2.6 | 4.3 | 0.00 | 0.00 | 0.00 | 71 | 1016.7 |
| 20260902110458 | 76 | 176 | 1.7 | 4.3 | 0.00 | 0.00 | 0.00 | 71 | 1016.7 |
| 20260902110334 | 76 | 175 | 1.7 | 4.3 | 0.00 | 0.00 | 0.00 | 71 | 1016.7 |
| 20260902110303 | 76 | 176 | 2.6 | 4.3 | 0.00 | 0.00 | 0.00 | 71 | 1016.7 |
| 20260902110151 | 76 | 178 | 2.6 | 4.3 | 0.00 | 0.00 | 0.00 | 71 | 1016.7 |
| 20260902110028 | 76 | 176 | 2.6 | 3.5 | 0.00 | 0.00 | 0.00 | 71 | 1016.7 |
| 20260902105932 | 76 | 179 | 1.7 | 3.5 | 0.00 | 0.00 | 0.00 | 71 | 1016.7 |
| 20260902105830 | 76 | 178 | 2.6 | 4.3 | 0.00 | 0.00 | 0.00 | 71 | 1016.7 |
| 20260902105728 | 76 | 178 | 1.7 | 4.3 | 0.00 | 0.00 | 0.00 | 71 | 1016.6 |
| 20260902105629 | 76 | 178 | 2.6 | 4.3 | 0.00 | 0.00 | 0.00 | 71 | 1016.6 |
| 20260902105551 | 76 | 179 | 2.6 | 4.3 | 0.00 | 0.00 | 0.00 | 71 | 1016.6 |
| 20260902105428 | 76 | 178 | 2.6 | 4.3 | 0.00 | 0.00 | 0.00 | 72 | 1016.6 |
| 20260902105327 | 76 | 179 | 2.6 | 4.3 | 0.00 | 0.00 | 0.00 | 72 | 1016.6 |
| 20260902105227 | 76 | 178 | 2.6 | 4.3 | 0.00 | 0.00 | 0.00 | 72 | 1016.6 |
| 20260902105129 | 76 | 178 | 2.6 | 4.3 | 0.00 | 0.00 | 0.00 | 72 | 1016.6 |
| 20260902105028 | 76 | 174 | 2.6 | 4.3 | 0.00 | 0.00 | 0.00 | 72 | 1016.6 |
| 20260902104926 | 76 | 178 | 2.6 | 4.3 | 0.00 | 0.00 | 0.00 | 72 | 1016.6 |
| 20260902104845 | 76 | 178 | 2.6 | 4.3 | 0.00 | 0.00 | 0.00 | 72 | 1016.6 |
| 20260902104803 | 76 | 178 | 2.6 | 4.3 | 0.00 | 0.00 | 0.00 | 72 | 1016.6 |
| 20260902104650 | 76 | 178 | 3.5 | 4.3 | 0.00 | 0.00 | 0.00 | 72 | 1016.6 |
| 20260902104527 | 76 | 178 | 3.5 | 4.3 | 0.00 | 0.00 | 0.00 | 72 | 1016.6 |
| 20260902104446 | 76 | 178 | 3.5 | 4.3 | 0.00 | 0.00 | 0.00 | 72 | 1016.6 |
| 20260902104404 | 76 | 178 | 3.5 | 4.3 | 0.00 | 0.00 | 0.00 | 72 | 1016.6 |
| 20260902104305 | 76 | 175 | 2.6 | 4.3 | 0.00 | 0.00 | 0.00 | 72 | 1016.5 |
| 20260902104201 | 76 | 178 | 2.6 | 4.3 | 0.00 | 0.00 | 0.00 | 72 | 1016.5 |
| 20260902104037 | 76 | 178 | 2.6 | 4.3 | 0.00 | 0.00 | 0.00 | 72 | 1016.5 |
| 20260902103936 | 76 | 178 | 3.5 | 4.3 | 0.00 | 0.00 | 0.00 | 72 | 1016.5 |
| 20260902103834 | 76 | 178 | 2.6 | 4.3 | 0.00 | 0.00 | 0.00 | 73 | 1016.5 |
| 20260902103732 | 76 | 178 | 2.6 | 4.3 | 0.00 | 0.00 | 0.00 | 72 | 1016.5 |
| 20260902103630 | 76 | 178 | 2.6 | 4.3 | 0.00 | 0.00 | 0.00 | 72 | 1016.5 |
| 20260902103529 | 76 | 178 | 2.6 | 4.3 | 0.00 | 0.00 | 0.00 | 72 | 1016.5 |
| 20260902103430 | 76 | 178 | 2.6 | 4.3 | 0.00 | 0.00 | 0.00 | 73 | 1016.5 |
| 20260902103329 | 76 | 178 | 1.7 | 4.3 | 0.00 | 0.00 | 0.00 | 73 | 1016.5 |
| 20260902103239 | 76 | 178 | 3.5 | 4.3 | 0.00 | 0.00 | 0.00 | 74 | 1016.5 |
| 20260902103149 | 76 | 178 | 2.6 | 4.3 | 0.00 | 0.00 | 0.00 | 74 | 1016.5 |
| 20260902103025 | 76 | 178 | 3.5 | 4.3 | 0.00 | 0.00 | 0.00 | 74 | 1016.5 |
| 20260902102942 | 76 | 179 | 2.6 | 4.3 | 0.00 | 0.00 | 0.00 | 74 | 1016.5 |
| 20260902102841 | 76 | 179 | 3.5 | 4.3 | 0.00 | 0.00 | 0.00 | 73 | 1016.5 |
| 20260902102743 | 76 | 179 | 3.5 | 4.3 | 0.00 | 0.00 | 0.00 | 74 | 1016.3 |
| 20260902102642 | 76 | 181 | 3.5 | 4.3 | 0.00 | 0.00 | 0.00 | 74 | 1016.3 |
| 20260902102541 | 77 | 182 | 2.6 | 4.3 | 0.00 | 0.00 | 0.00 | 73 | 1016.3 |
| 20260902102441 | 77 | 181 | 2.6 | 4.3 | 0.00 | 0.00 | 0.00 | 73 | 1016.3 |
| 20260902102339 | 77 | 181 | 2.6 | 4.3 | 0.00 | 0.00 | 0.00 | 73 | 1016.3 |
| 20260902102236 | 77 | 178 | 2.6 | 2.6 | 0.00 | 0.00 | 0.00 | 73 | 1016.3 |
| 20260902102136 | 77 | 181 | 2.6 | 2.6 | 0.00 | 0.00 | 0.00 | 73 | 1016.3 |
| 20260902102038 | 77 | 181 | 2.6 | 2.6 | 0.00 | 0.00 | 0.00 | 73 | 1016.3 |
| 20260902101935 | 77 | 182 | 2.6 | 2.6 | 0.00 | 0.00 | 0.00 | 73 | 1016.3 |
| 20260902101834 | 77 | 181 | 2.6 | 2.6 | 0.00 | 0.00 | 0.00 | 72 | 1016.3 |
| 20260902101744 | 77 | 181 | 1.7 | 2.6 | 0.00 | 0.00 | 0.00 | 72 | 1016.3 |
| 20260902101652 | 77 | 181 | 2.6 | 2.6 | 0.00 | 0.00 | 0.00 | 72 | 1016.3 |
| 20260902101530 | 77 | 181 | 2.6 | 2.6 | 0.00 | 0.00 | 0.00 | 72 | 1016.3 |
| 20260902101429 | 77 | 181 | 2.6 | 2.6 | 0.00 | 0.00 | 0.00 | 71 | 1016.3 |
| 20260902101332 | 77 | 181 | 2.6 | 2.6 | 0.00 | 0.00 | 0.00 | 71 | 1016.3 |
| 20260902101230 | 77 | 181 | 2.6 | 2.6 | 0.00 | 0.00 | 0.00 | 71 | 1016.3 |
| 20260902101129 | 77 | 181 | 1.7 | 2.6 | 0.00 | 0.00 | 0.00 | 71 | 1016.3 |
| 20260902101028 | 77 | 181 | 1.7 | 2.6 | 0.00 | 0.00 | 0.00 | 71 | 1016.3 |
| 20260902100925 | 77 | 178 | 2.6 | 2.6 | 0.00 | 0.00 | 0.00 | 71 | 1016.3 |
| 20260902100843 | 77 | 181 | 2.6 | 2.6 | 0.00 | 0.00 | 0.00 | 71 | 1016.3 |
| 20260902100741 | 77 | 181 | 1.7 | 2.6 | 0.00 | 0.00 | 0.00 | 71 | 1016.3 |
| 20260902100643 | 77 | 182 | 2.6 | 2.6 | 0.00 | 0.00 | 0.00 | 71 | 1016.3 |
| 20260902100603 | 77 | 179 | 2.6 | 2.6 | 0.00 | 0.00 | 0.00 | 71 | 1016.3 |
| 20260902100440 | 77 | 181 | 1.7 | 2.6 | 0.00 | 0.00 | 0.00 | 71 | 1016.3 |
| 20260902100338 | 77 | 179 | 2.6 | 2.6 | 0.00 | 0.00 | 0.00 | 70 | 1016.3 |
| 20260902100207 | 77 | 182 | 1.7 | 2.6 | 0.00 | 0.00 | 0.00 | 70 | 1016.3 |
| 20260902095940 | 77 | 182 | 1.7 | 2.6 | 0.00 | 0.00 | 0.00 | 70 | 1016.3 |
| 20260902095842 | 77 | 181 | 1.7 | 2.6 | 0.00 | 0.00 | 0.00 | 70 | 1016.3 |
| 20260902095800 | 77 | 181 | 1.7 | 2.6 | 0.00 | 0.00 | 0.00 | 70 | 1016.1 |
| 20260902095642 | 77 | 181 | 1.7 | 2.6 | 0.00 | 0.00 | 0.00 | 70 | 1016.1 |
| 20260902095600 | 77 | 181 | 1.7 | 2.6 | 0.00 | 0.00 | 0.00 | 70 | 1016.1 |
| 20260902095437 | 77 | 181 | 1.7 | 2.6 | 0.00 | 0.00 | 0.00 | 70 | 1016.1 |
| 20260902095335 | 77 | 181 | 1.7 | 2.6 | 0.00 | 0.00 | 0.00 | 70 | 1016.1 |
| 20260902095233 | 77 | 179 | 1.7 | 2.6 | 0.00 | 0.00 | 0.00 | 70 | 1016.1 |
| 20260902095132 | 77 | 178 | 1.7 | 2.6 | 0.00 | 0.00 | 0.00 | 71 | 1016.1 |
| 20260902095034 | 77 | 181 | 1.7 | 2.6 | 0.00 | 0.00 | 0.00 | 71 | 1016.1 |
| 20260902094933 | 77 | 182 | 1.7 | 2.6 | 0.00 | 0.00 | 0.00 | 70 | 1016.1 |
| 20260902094831 | 77 | 179 | 1.7 | 2.6 | 0.00 | 0.00 | 0.00 | 70 | 1016.1 |
| 20260902094751 | 77 | 178 | 1.7 | 2.6 | 0.00 | 0.00 | 0.00 | 70 | 1016.1 |
| 20260902094659 | 77 | 178 | 1.7 | 2.6 | 0.00 | 0.00 | 0.00 | 70 | 1016.1 |
| 20260902094537 | 77 | 181 | 1.7 | 2.6 | 0.00 | 0.00 | 0.00 | 70 | 1016.1 |
| 20260902094436 | 77 | 181 | 1.7 | 2.6 | 0.00 | 0.00 | 0.00 | 71 | 1016.1 |
| 20260902094332 | 77 | 181 | 1.7 | 2.6 | 0.00 | 0.00 | 0.00 | 71 | 1016.1 |
| 20260902094234 | 77 | 181 | 1.7 | 2.6 | 0.00 | 0.00 | 0.00 | 71 | 1016.0 |
| 20260902094133 | 77 | 181 | 1.7 | 2.6 | 0.00 | 0.00 | 0.00 | 70 | 1016.0 |
| 20260902094030 | 77 | 181 | 1.7 | 2.6 | 0.00 | 0.00 | 0.00 | 70 | 1016.0 |
| 20260902093948 | 77 | 181 | 1.7 | 2.6 | 0.00 | 0.00 | 0.00 | 70 | 1016.0 |
| 20260902093824 | 77 | 181 | 1.7 | 2.6 | 0.00 | 0.00 | 0.00 | 70 | 1016.0 |
| 20260902093742 | 77 | 181 | 1.7 | 2.6 | 0.00 | 0.00 | 0.00 | 70 | 1016.0 |
| 20260902093641 | 77 | 182 | 1.7 | 2.6 | 0.00 | 0.00 | 0.00 | 70 | 1016.0 |
| 20260902093559 | 77 | 181 | 1.7 | 2.6 | 0.00 | 0.00 | 0.00 | 70 | 1016.0 |
| 20260902093439 | 77 | 181 | 1.7 | 2.6 | 0.00 | 0.00 | 0.00 | 69 | 1016.0 |
| 20260902093338 | 77 | 181 | 1.7 | 2.6 | 0.00 | 0.00 | 0.00 | 69 | 1016.0 |
| 20260902093235 | 77 | 182 | 1.7 | 2.6 | 0.00 | 0.00 | 0.00 | 69 | 1016.0 |
| 20260902093205 | 77 | 178 | 1.7 | 2.6 | 0.00 | 0.00 | 0.00 | 69 | 1016.0 |
| 20260902093039 | 77 | 179 | 0.9 | 2.6 | 0.00 | 0.00 | 0.00 | 69 | 1016.0 |
| 20260902093000 | 77 | 182 | 1.7 | 2.6 | 0.00 | 0.00 | 0.00 | 69 | 1016.0 |
| 20260902092841 | 77 | 181 | 1.7 | 2.6 | 0.00 | 0.00 | 0.00 | 69 | 1016.0 |
| 20260902092739 | 77 | 179 | 1.7 | 2.6 | 0.00 | 0.00 | 0.00 | 69 | 1015.8 |
| 20260902092636 | 77 | 179 | 0.9 | 2.6 | 0.00 | 0.00 | 0.00 | 69 | 1015.8 |
| 20260902092538 | 77 | 182 | 0.9 | 2.6 | 0.00 | 0.00 | 0.00 | 69 | 1015.8 |
| 20260902092436 | 77 | 181 | 0.0 | 1.7 | 0.00 | 0.00 | 0.00 | 69 | 1015.8 |
| 20260902092335 | 77 | 181 | 0.9 | 1.7 | 0.00 | 0.00 | 0.00 | 69 | 1015.8 |
| 20260902092233 | 77 | 181 | 0.0 | 1.7 | 0.00 | 0.00 | 0.00 | 69 | 1015.8 |
| 20260902092132 | 77 | 181 | 0.9 | 1.7 | 0.00 | 0.00 | 0.00 | 69 | 1015.8 |
| 20260902092030 | 77 | 179 | 0.9 | 1.7 | 0.00 | 0.00 | 0.00 | 69 | 1015.8 |
| 20260902091949 | 77 | 181 | 0.9 | 1.7 | 0.00 | 0.00 | 0.00 | 69 | 1015.8 |
| 20260902091847 | 77 | 181 | 0.9 | 1.7 | 0.00 | 0.00 | 0.00 | 69 | 1015.8 |
| 20260902091747 | 77 | 181 | 0.0 | 1.7 | 0.00 | 0.00 | 0.00 | 68 | 1015.8 |
| 20260902091656 | 77 | 182 | 0.0 | 1.7 | 0.00 | 0.00 | 0.00 | 68 | 1015.8 |
| 20260902091533 | 77 | 179 | 0.0 | 2.6 | 0.00 | 0.00 | 0.00 | 68 | 1015.8 |
| 20260902091433 | 77 | 179 | 0.0 | 2.6 | 0.00 | 0.00 | 0.00 | 68 | 1015.8 |
| 20260902091332 | 77 | 181 | 0.9 | 2.6 | 0.00 | 0.00 | 0.00 | 68 | 1015.8 |
| 20260902091230 | 77 | 182 | 0.0 | 2.6 | 0.00 | 0.00 | 0.00 | 68 | 1015.7 |
| 20260902091129 | 77 | 181 | 0.9 | 2.6 | 0.00 | 0.00 | 0.00 | 69 | 1015.7 |
| 20260902091031 | 77 | 182 | 0.9 | 2.6 | 0.00 | 0.00 | 0.00 | 69 | 1015.7 |
| 20260902090954 | 77 | 179 | 0.9 | 2.6 | 0.00 | 0.00 | 0.00 | 68 | 1015.7 |
| 20260902090831 | 77 | 181 | 0.9 | 2.6 | 0.00 | 0.00 | 0.00 | 69 | 1015.7 |
| 20260902090729 | 77 | 181 | 1.7 | 2.6 | 0.00 | 0.00 | 0.00 | 69 | 1015.7 |
| 20260902090630 | 77 | 181 | 1.7 | 2.6 | 0.00 | 0.00 | 0.00 | 69 | 1015.7 |
| 20260902090529 | 77 | 182 | 1.7 | 2.6 | 0.00 | 0.00 | 0.00 | 68 | 1015.7 |
| 20260902090426 | 77 | 181 | 1.7 | 2.6 | 0.00 | 0.00 | 0.00 | 68 | 1015.7 |
| 20260902090343 | 77 | 181 | 0.9 | 2.6 | 0.00 | 0.00 | 0.00 | 68 | 1015.7 |
| 20260902090237 | 77 | 182 | 1.7 | 2.6 | 0.00 | 0.00 | 0.00 | 68 | 1015.7 |
| 20260902090147 | 77 | 181 | 1.7 | 2.6 | 0.00 | 0.00 | 0.00 | 68 | 1015.7 |
| 20260902090043 | 77 | 181 | 1.7 | 2.6 | 0.00 | 0.00 | 0.00 | 68 | 1015.7 |
| 20260902085940 | 77 | 179 | 1.7 | 2.6 | 0.00 | 0.00 | 0.00 | 68 | 1015.7 |
| 20260902085838 | 77 | 179 | 1.7 | 3.5 | 0.00 | 0.00 | 0.00 | 69 | 1015.7 |
| 20260902085735 | 77 | 181 | 1.7 | 3.5 | 0.00 | 0.00 | 0.00 | 69 | 1015.6 |
| 20260902085633 | 77 | 181 | 1.7 | 3.5 | 0.00 | 0.00 | 0.00 | 69 | 1015.6 |
| 20260902085551 | 77 | 181 | 1.7 | 3.5 | 0.00 | 0.00 | 0.00 | 69 | 1015.6 |
| 20260902085450 | 77 | 181 | 1.7 | 3.5 | 0.00 | 0.00 | 0.00 | 69 | 1015.6 |
| 20260902085334 | 77 | 181 | 1.7 | 3.5 | 0.00 | 0.00 | 0.00 | 69 | 1015.6 |
| 20260902085233 | 77 | 181 | 1.7 | 3.5 | 0.00 | 0.00 | 0.00 | 69 | 1015.6 |
| 20260902085131 | 77 | 181 | 1.7 | 3.5 | 0.00 | 0.00 | 0.00 | 70 | 1015.6 |
| 20260902085051 | 77 | 178 | 2.6 | 3.5 | 0.00 | 0.00 | 0.00 | 70 | 1015.6 |
| 20260902084928 | 77 | 182 | 1.7 | 2.6 | 0.00 | 0.00 | 0.00 | 69 | 1015.6 |
| 20260902084826 | 77 | 181 | 1.7 | 2.6 | 0.00 | 0.00 | 0.00 | 69 | 1015.6 |
| 20260902084735 | 77 | 179 | 2.6 | 2.6 | 0.00 | 0.00 | 0.00 | 69 | 1015.6 |
| 20260902084645 | 77 | 182 | 1.7 | 2.6 | 0.00 | 0.00 | 0.00 | 69 | 1015.6 |
| 20260902084528 | 77 | 181 | 2.6 | 2.6 | 0.00 | 0.00 | 0.00 | 69 | 1015.6 |
| 20260902084427 | 77 | 181 | 1.7 | 2.6 | 0.00 | 0.00 | 0.00 | 68 | 1015.6 |
| 20260902084325 | 77 | 182 | 2.6 | 2.6 | 0.00 | 0.00 | 0.00 | 68 | 1015.6 |
| 20260902084243 | 77 | 182 | 1.7 | 2.6 | 0.00 | 0.00 | 0.00 | 68 | 1015.4 |
| 20260902084143 | 77 | 181 | 1.7 | 3.5 | 0.00 | 0.00 | 0.00 | 68 | 1015.4 |
| 20260902084042 | 78 | 181 | 1.7 | 3.5 | 0.00 | 0.00 | 0.00 | 68 | 1015.4 |
| 20260902083941 | 78 | 181 | 1.7 | 3.5 | 0.00 | 0.00 | 0.00 | 68 | 1015.4 |
| 20260902083844 | 78 | 181 | 1.7 | 3.5 | 0.00 | 0.00 | 0.00 | 68 | 1015.4 |
| 20260902083741 | 78 | 181 | 1.7 | 4.3 | 0.00 | 0.00 | 0.00 | 68 | 1015.4 |
| 20260902083639 | 78 | 182 | 1.7 | 4.3 | 0.00 | 0.00 | 0.00 | 68 | 1015.4 |
| 20260902083538 | 78 | 179 | 1.7 | 4.3 | 0.00 | 0.00 | 0.00 | 68 | 1015.4 |
| 20260902083436 | 78 | 178 | 2.6 | 4.3 | 0.00 | 0.00 | 0.00 | 68 | 1015.4 |
| 20260902083338 | 78 | 181 | 2.6 | 4.3 | 0.00 | 0.00 | 0.00 | 68 | 1015.4 |
| 20260902083256 | 78 | 182 | 2.6 | 4.3 | 0.00 | 0.00 | 0.00 | 68 | 1015.4 |
| 20260902083212 | 78 | 181 | 2.6 | 4.3 | 0.00 | 0.00 | 0.00 | 68 | 1015.4 |
| 20260902083027 | 78 | 181 | 2.6 | 4.3 | 0.00 | 0.00 | 0.00 | 68 | 1015.4 |
| 20260902082926 | 78 | 181 | 2.6 | 4.3 | 0.00 | 0.00 | 0.00 | 67 | 1015.4 |
| 20260902082845 | 78 | 181 | 2.6 | 4.3 | 0.00 | 0.00 | 0.00 | 68 | 1015.4 |
| 20260902082804 | 78 | 181 | 1.7 | 2.6 | 0.00 | 0.00 | 0.00 | 67 | 1015.4 |
| 20260902082701 | 78 | 181 | 1.7 | 2.6 | 0.00 | 0.00 | 0.00 | 67 | 1015.4 |
| 20260902082538 | 78 | 181 | 2.6 | 2.6 | 0.00 | 0.00 | 0.00 | 67 | 1015.4 |
| 20260902082437 | 78 | 181 | 1.7 | 2.6 | 0.00 | 0.00 | 0.00 | 66 | 1015.4 |
| 20260902082340 | 78 | 181 | 2.6 | 2.6 | 0.00 | 0.00 | 0.00 | 66 | 1015.4 |
| 20260902082238 | 78 | 181 | 2.6 | 2.6 | 0.00 | 0.00 | 0.00 | 66 | 1015.4 |
| 20260902082136 | 78 | 182 | 1.7 | 2.6 | 0.00 | 0.00 | 0.00 | 66 | 1015.4 |
| 20260902082031 | 78 | 182 | 1.7 | 2.6 | 0.00 | 0.00 | 0.00 | 66 | 1015.4 |
| 20260902081930 | 78 | 182 | 1.7 | 2.6 | 0.00 | 0.00 | 0.00 | 66 | 1015.4 |
| 20260902081829 | 78 | 181 | 1.7 | 2.6 | 0.00 | 0.00 | 0.00 | 66 | 1015.4 |
| 20260902081739 | 78 | 179 | 1.7 | 2.6 | 0.00 | 0.00 | 0.00 | 66 | 1015.4 |
| 20260902081647 | 78 | 181 | 1.7 | 2.6 | 0.00 | 0.00 | 0.00 | 66 | 1015.4 |
| 20260902081529 | 78 | 181 | 1.7 | 2.6 | 0.00 | 0.00 | 0.00 | 66 | 1015.4 |
| 20260902081448 | 78 | 181 | 1.7 | 2.6 | 0.00 | 0.00 | 0.00 | 66 | 1015.4 |
| 20260902081345 | 78 | 181 | 1.7 | 2.6 | 0.00 | 0.00 | 0.00 | 66 | 1015.4 |
| 20260902081242 | 78 | 179 | 1.7 | 2.6 | 0.00 | 0.00 | 0.00 | 66 | 1015.2 |
| 20260902081140 | 78 | 181 | 1.7 | 3.5 | 0.00 | 0.00 | 0.00 | 66 | 1015.2 |
| 20260902081040 | 78 | 182 | 2.6 | 3.5 | 0.00 | 0.00 | 0.00 | 66 | 1015.2 |
| 20260902080938 | 78 | 181 | 1.7 | 3.5 | 0.00 | 0.00 | 0.00 | 66 | 1015.2 |
| 20260902080836 | 78 | 181 | 2.6 | 3.5 | 0.00 | 0.00 | 0.00 | 66 | 1015.2 |
| 20260902080739 | 78 | 181 | 1.7 | 3.5 | 0.00 | 0.00 | 0.00 | 66 | 1015.2 |
| 20260902080637 | 78 | 181 | 2.6 | 3.5 | 0.00 | 0.00 | 0.00 | 66 | 1015.2 |
| 20260902080557 | 78 | 181 | 1.7 | 3.5 | 0.00 | 0.00 | 0.00 | 66 | 1015.2 |
| 20260902080434 | 78 | 179 | 2.6 | 3.5 | 0.00 | 0.00 | 0.00 | 66 | 1015.2 |
| 20260902080332 | 78 | 181 | 2.6 | 3.5 | 0.00 | 0.00 | 0.00 | 66 | 1015.2 |
| 20260902080251 | 78 | 181 | 2.6 | 3.5 | 0.00 | 0.00 | 0.00 | 65 | 1015.2 |
| 20260902080201 | 78 | 181 | 2.6 | 2.6 | 0.00 | 0.00 | 0.00 | 65 | 1015.2 |
| 20260902080038 | 78 | 181 | 1.7 | 2.6 | 0.00 | 0.00 | 0.00 | 65 | 1015.2 |
| 20260902075940 | 78 | 178 | 1.7 | 2.6 | 0.00 | 0.00 | 0.00 | 65 | 1015.2 |
| 20260902075839 | 78 | 181 | 1.7 | 2.6 | 0.00 | 0.00 | 0.00 | 65 | 1015.2 |
| 20260902075758 | 78 | 181 | 1.7 | 2.6 | 0.00 | 0.00 | 0.00 | 65 | 1015.2 |
| 20260902075637 | 78 | 181 | 1.7 | 2.6 | 0.00 | 0.00 | 0.00 | 65 | 1015.2 |
| 20260902075536 | 78 | 181 | 1.7 | 2.6 | 0.00 | 0.00 | 0.00 | 65 | 1015.2 |
| 20260902075454 | 78 | 182 | 2.6 | 4.3 | 0.00 | 0.00 | 0.00 | 65 | 1015.2 |
| 20260902075333 | 78 | 181 | 1.7 | 4.3 | 0.00 | 0.00 | 0.00 | 65 | 1015.2 |
| 20260902075251 | 78 | 176 | 2.6 | 4.3 | 0.00 | 0.00 | 0.00 | 65 | 1015.2 |
| 20260902075152 | 78 | 181 | 2.6 | 4.3 | 0.00 | 0.00 | 0.00 | 65 | 1015.2 |
| 20260902075030 | 78 | 179 | 2.6 | 4.3 | 0.00 | 0.00 | 0.00 | 65 | 1015.2 |
| 20260902074950 | 78 | 181 | 1.7 | 4.3 | 0.00 | 0.00 | 0.00 | 65 | 1015.2 |
| 20260902074827 | 78 | 181 | 1.7 | 4.3 | 0.00 | 0.00 | 0.00 | 65 | 1015.2 |
| 20260902074726 | 78 | 182 | 1.7 | 4.3 | 0.00 | 0.00 | 0.00 | 65 | 1015.2 |
| 20260902074655 | 78 | 181 | 2.6 | 4.3 | 0.00 | 0.00 | 0.00 | 65 | 1015.2 |
| 20260902074531 | 78 | 178 | 2.6 | 4.3 | 0.00 | 0.00 | 0.00 | 65 | 1015.2 |
| 20260902074430 | 78 | 181 | 2.6 | 4.3 | 0.00 | 0.00 | 0.00 | 65 | 1015.2 |
| 20260902074329 | 78 | 181 | 2.6 | 4.3 | 0.00 | 0.00 | 0.00 | 65 | 1015.2 |
| 20260902074231 | 78 | 182 | 2.6 | 4.3 | 0.00 | 0.00 | 0.00 | 65 | 1015.1 |
| 20260902074129 | 78 | 181 | 2.6 | 4.3 | 0.00 | 0.00 | 0.00 | 65 | 1015.1 |
| 20260902074028 | 78 | 181 | 2.6 | 4.3 | 0.00 | 0.00 | 0.00 | 65 | 1015.1 |
| 20260902073927 | 78 | 181 | 2.6 | 4.3 | 0.00 | 0.00 | 0.00 | 65 | 1015.1 |
| 20260902073845 | 78 | 182 | 2.6 | 3.5 | 0.00 | 0.00 | 0.00 | 64 | 1015.1 |
| 20260902073805 | 78 | 178 | 2.6 | 3.5 | 0.00 | 0.00 | 0.00 | 64 | 1015.1 |
| 20260902073702 | 78 | 178 | 2.6 | 3.5 | 0.00 | 0.00 | 0.00 | 64 | 1015.1 |
| 20260902073541 | 78 | 181 | 1.7 | 3.5 | 0.00 | 0.00 | 0.00 | 64 | 1015.1 |
| 20260902073505 | 78 | 178 | 2.6 | 3.5 | 0.00 | 0.00 | 0.00 | 64 | 1015.1 |
| 20260902073403 | 78 | 182 | 2.6 | 3.5 | 0.00 | 0.00 | 0.00 | 65 | 1015.1 |
| 20260902073232 | 78 | 181 | 2.6 | 3.5 | 0.00 | 0.00 | 0.00 | 65 | 1015.1 |
| 20260902073144 | 78 | 181 | 2.6 | 3.5 | 0.00 | 0.00 | 0.00 | 65 | 1015.1 |
| 20260902073043 | 78 | 181 | 2.6 | 3.5 | 0.00 | 0.00 | 0.00 | 65 | 1015.1 |
| 20260902072942 | 78 | 182 | 2.6 | 2.6 | 0.00 | 0.00 | 0.00 | 65 | 1015.1 |
| 20260902072841 | 78 | 179 | 1.7 | 2.6 | 0.00 | 0.00 | 0.00 | 65 | 1015.1 |
| 20260902072738 | 78 | 181 | 1.7 | 2.6 | 0.00 | 0.00 | 0.00 | 65 | 1015.3 |
| 20260902072641 | 78 | 182 | 1.7 | 2.6 | 0.00 | 0.00 | 0.00 | 64 | 1015.3 |
| 20260902072537 | 78 | 181 | 1.7 | 2.6 | 0.00 | 0.00 | 0.00 | 65 | 1015.3 |
| 20260902072435 | 78 | 181 | 1.7 | 2.6 | 0.00 | 0.00 | 0.00 | 64 | 1015.3 |
| 20260902072333 | 78 | 182 | 2.6 | 2.6 | 0.00 | 0.00 | 0.00 | 65 | 1015.3 |
| 20260902072231 | 78 | 181 | 1.7 | 2.6 | 0.00 | 0.00 | 0.00 | 65 | 1015.3 |
| 20260902072130 | 78 | 182 | 1.7 | 2.6 | 0.00 | 0.00 | 0.00 | 65 | 1015.3 |
| 20260902072028 | 78 | 182 | 1.7 | 2.6 | 0.00 | 0.00 | 0.00 | 66 | 1015.3 |
| 20260902071931 | 78 | 182 | 1.7 | 2.6 | 0.00 | 0.00 | 0.00 | 66 | 1015.3 |
| 20260902071830 | 78 | 181 | 0.9 | 2.6 | 0.00 | 0.00 | 0.00 | 66 | 1015.3 |
| 20260902071741 | 78 | 179 | 1.7 | 2.6 | 0.00 | 0.00 | 0.00 | 66 | 1015.3 |
| 20260902071649 | 78 | 179 | 1.7 | 2.6 | 0.00 | 0.00 | 0.00 | 66 | 1015.3 |
| 20260902071526 | 78 | 181 | 1.7 | 2.6 | 0.00 | 0.00 | 0.00 | 67 | 1015.3 |
| 20260902071424 | 78 | 181 | 1.7 | 2.6 | 0.00 | 0.00 | 0.00 | 68 | 1015.3 |
| 20260902071342 | 78 | 181 | 1.7 | 3.5 | 0.00 | 0.00 | 0.00 | 68 | 1015.3 |
| 20260902071225 | 78 | 182 | 2.6 | 3.5 | 0.00 | 0.00 | 0.00 | 68 | 1015.4 |
| 20260902071142 | 78 | 182 | 2.6 | 3.5 | 0.00 | 0.00 | 0.00 | 66 | 1015.4 |
| 20260902071040 | 78 | 179 | 1.7 | 4.3 | 0.00 | 0.00 | 0.00 | 66 | 1015.4 |
| 20260902070938 | 78 | 181 | 1.7 | 5.2 | 0.00 | 0.00 | 0.00 | 66 | 1015.4 |
| 20260902070838 | 78 | 181 | 2.6 | 5.2 | 0.00 | 0.00 | 0.00 | 65 | 1015.4 |
| 20260902070737 | 78 | 182 | 2.6 | 5.2 | 0.00 | 0.00 | 0.00 | 65 | 1015.4 |
| 20260902070636 | 78 | 181 | 2.6 | 5.2 | 0.00 | 0.00 | 0.00 | 65 | 1015.4 |
| 20260902070538 | 78 | 181 | 2.6 | 5.2 | 0.00 | 0.00 | 0.00 | 65 | 1015.4 |
| 20260902070436 | 78 | 181 | 2.6 | 5.2 | 0.00 | 0.00 | 0.00 | 65 | 1015.4 |
| 20260902070334 | 78 | 181 | 2.6 | 5.2 | 0.00 | 0.00 | 0.00 | 65 | 1015.4 |
| 20260902070231 | 78 | 182 | 2.6 | 5.2 | 0.00 | 0.00 | 0.00 | 66 | 1015.4 |
| 20260902070201 | 78 | 181 | 3.5 | 5.2 | 0.00 | 0.00 | 0.00 | 66 | 1015.4 |
| 20260902070040 | 78 | 184 | 2.6 | 5.2 | 0.00 | 0.00 | 0.00 | 66 | 1015.4 |
| 20260902065958 | 78 | 184 | 2.6 | 5.2 | 0.00 | 0.00 | 0.00 | 66 | 1015.4 |
| 20260902065840 | 78 | 185 | 3.5 | 5.2 | 0.00 | 0.00 | 0.00 | 66 | 1015.4 |
| 20260902065738 | 78 | 186 | 2.6 | 5.2 | 0.00 | 0.00 | 0.00 | 66 | 1015.6 |
| 20260902065637 | 78 | 186 | 2.6 | 5.2 | 0.00 | 0.00 | 0.00 | 65 | 1015.6 |
| 20260902065534 | 78 | 184 | 2.6 | 5.2 | 0.00 | 0.00 | 0.00 | 65 | 1015.6 |
| 20260902065454 | 78 | 186 | 2.6 | 5.2 | 0.00 | 0.00 | 0.00 | 66 | 1015.6 |
| 20260902065331 | 78 | 186 | 3.5 | 5.2 | 0.00 | 0.00 | 0.00 | 66 | 1015.6 |
| 20260902065228 | 78 | 186 | 3.5 | 5.2 | 0.00 | 0.00 | 0.00 | 66 | 1015.6 |
| 20260902065131 | 78 | 186 | 2.6 | 5.2 | 0.00 | 0.00 | 0.00 | 66 | 1015.6 |
| 20260902065050 | 78 | 188 | 3.5 | 5.2 | 0.00 | 0.00 | 0.00 | 66 | 1015.6 |
| 20260902064927 | 78 | 189 | 2.6 | 5.2 | 0.00 | 0.00 | 0.00 | 66 | 1015.6 |
| 20260902064846 | 78 | 191 | 2.6 | 5.2 | 0.00 | 0.00 | 0.00 | 66 | 1015.6 |
| 20260902064743 | 78 | 192 | 2.6 | 5.2 | 0.00 | 0.00 | 0.00 | 66 | 1015.6 |
| 20260902064652 | 78 | 189 | 3.5 | 5.2 | 0.00 | 0.00 | 0.00 | 67 | 1015.6 |
| 20260902064530 | 78 | 191 | 3.5 | 5.2 | 0.00 | 0.00 | 0.00 | 67 | 1015.6 |
| 20260902064429 | 78 | 192 | 4.3 | 5.2 | 0.00 | 0.00 | 0.00 | 67 | 1015.6 |
| 20260902064328 | 78 | 191 | 3.5 | 5.2 | 0.00 | 0.00 | 0.00 | 67 | 1015.6 |
| 20260902064230 | 78 | 192 | 3.5 | 5.2 | 0.00 | 0.00 | 0.00 | 67 | 1015.6 |
| 20260902064152 | 78 | 193 | 3.5 | 5.2 | 0.00 | 0.00 | 0.00 | 67 | 1015.6 |
| 20260902064029 | 78 | 193 | 3.5 | 5.2 | 0.00 | 0.00 | 0.00 | 67 | 1015.6 |
| 20260902063930 | 78 | 192 | 4.3 | 5.2 | 0.00 | 0.00 | 0.00 | 67 | 1015.6 |
| 20260902063829 | 78 | 200 | 3.5 | 5.2 | 0.00 | 0.00 | 0.00 | 67 | 1015.6 |
| 20260902063726 | 78 | 203 | 3.5 | 5.2 | 0.00 | 0.00 | 0.00 | 67 | 1015.6 |
| 20260902063625 | 78 | 202 | 3.5 | 5.2 | 0.00 | 0.00 | 0.00 | 67 | 1015.6 |
| 20260902063551 | 78 | 203 | 3.5 | 5.2 | 0.00 | 0.00 | 0.00 | 67 | 1015.6 |
| 20260902063428 | 78 | 200 | 2.6 | 4.3 | 0.00 | 0.00 | 0.00 | 67 | 1015.6 |
| 20260902063326 | 78 | 202 | 3.5 | 4.3 | 0.00 | 0.00 | 0.00 | 68 | 1015.6 |
| 20260902063237 | 78 | 203 | 4.3 | 4.3 | 0.00 | 0.00 | 0.00 | 68 | 1015.6 |
| 20260902063148 | 78 | 202 | 3.5 | 4.3 | 0.00 | 0.00 | 0.00 | 68 | 1015.6 |
| 20260902063044 | 78 | 205 | 2.6 | 4.3 | 0.00 | 0.00 | 0.00 | 68 | 1015.6 |
| 20260902062942 | 78 | 206 | 2.6 | 4.3 | 0.00 | 0.00 | 0.00 | 68 | 1015.6 |
| 20260902062839 | 78 | 206 | 3.5 | 4.3 | 0.00 | 0.00 | 0.00 | 68 | 1015.6 |
| 20260902062742 | 78 | 212 | 2.6 | 4.3 | 0.00 | 0.00 | 0.00 | 68 | 1015.7 |
| 20260902062640 | 78 | 212 | 2.6 | 4.3 | 0.00 | 0.00 | 0.00 | 68 | 1015.7 |
| 20260902062538 | 78 | 212 | 3.5 | 4.3 | 0.00 | 0.00 | 0.00 | 68 | 1015.7 |
| 20260902062437 | 78 | 213 | 3.5 | 4.3 | 0.00 | 0.00 | 0.00 | 68 | 1015.7 |
| 20260902062355 | 78 | 215 | 3.5 | 4.3 | 0.00 | 0.00 | 0.00 | 68 | 1015.7 |
| 20260902062131 | 78 | 212 | 2.6 | 4.3 | 0.00 | 0.00 | 0.00 | 68 | 1015.7 |
| 20260902062032 | 78 | 213 | 3.5 | 4.3 | 0.00 | 0.00 | 0.00 | 68 | 1015.7 |
| 20260902061931 | 78 | 227 | 2.6 | 3.5 | 0.00 | 0.00 | 0.00 | 68 | 1015.7 |
| 20260902061830 | 78 | 224 | 2.6 | 3.5 | 0.00 | 0.00 | 0.00 | 68 | 1015.7 |
| 20260902061740 | 78 | 227 | 2.6 | 3.5 | 0.00 | 0.00 | 0.00 | 68 | 1015.7 |
| 20260902061649 | 78 | 227 | 2.6 | 2.6 | 0.00 | 0.00 | 0.00 | 68 | 1015.7 |
| 20260902061545 | 78 | 227 | 1.7 | 2.6 | 0.00 | 0.00 | 0.00 | 68 | 1015.7 |
| 20260902061401 | 78 | 227 | 1.7 | 2.6 | 0.00 | 0.00 | 0.00 | 68 | 1015.7 |
| 20260902061238 | 78 | 229 | 1.7 | 2.6 | 0.00 | 0.00 | 0.00 | 68 | 1015.7 |
| 20260902061156 | 78 | 226 | 2.6 | 2.6 | 0.00 | 0.00 | 0.00 | 68 | 1015.7 |
| 20260902061038 | 78 | 227 | 2.6 | 2.6 | 0.00 | 0.00 | 0.00 | 69 | 1015.7 |
| 20260902060936 | 78 | 227 | 2.6 | 2.6 | 0.00 | 0.00 | 0.00 | 68 | 1015.7 |
| 20260902060832 | 78 | 227 | 1.7 | 2.6 | 0.00 | 0.00 | 0.00 | 68 | 1015.7 |
| 20260902060732 | 78 | 227 | 1.7 | 2.6 | 0.00 | 0.00 | 0.00 | 68 | 1015.7 |
| 20260902060631 | 78 | 227 | 1.7 | 2.6 | 0.00 | 0.00 | 0.00 | 68 | 1015.7 |
| 20260902060530 | 78 | 227 | 1.7 | 2.6 | 0.00 | 0.00 | 0.00 | 68 | 1015.7 |
| 20260902060449 | 78 | 229 | 1.7 | 2.6 | 0.00 | 0.00 | 0.00 | 68 | 1015.7 |
| 20260902060350 | 78 | 227 | 1.7 | 2.6 | 0.00 | 0.00 | 0.00 | 68 | 1015.7 |
| 20260902060248 | 78 | 227 | 0.9 | 1.7 | 0.00 | 0.00 | 0.00 | 68 | 1015.7 |
| 20260902060158 | 78 | 227 | 1.7 | 1.7 | 0.00 | 0.00 | 0.00 | 68 | 1015.7 |
| 20260902060035 | 78 | 227 | 1.7 | 1.7 | 0.00 | 0.00 | 0.00 | 68 | 1015.7 |
| 20260902055933 | 78 | 229 | 1.7 | 1.7 | 0.00 | 0.00 | 0.00 | 68 | 1015.7 |
| 20260902055832 | 78 | 227 | 1.7 | 1.7 | 0.00 | 0.00 | 0.00 | 68 | 1015.7 |
| 20260902055730 | 78 | 227 | 0.9 | 1.7 | 0.00 | 0.00 | 0.00 | 68 | 1015.8 |
| 20260902055629 | 78 | 227 | 0.9 | 1.7 | 0.00 | 0.00 | 0.00 | 68 | 1015.8 |
| 20260902055532 | 78 | 227 | 0.9 | 1.7 | 0.00 | 0.00 | 0.00 | 68 | 1015.8 |
| 20260902055431 | 78 | 229 | 0.9 | 1.7 | 0.00 | 0.00 | 0.00 | 68 | 1015.8 |
| 20260902055329 | 78 | 229 | 0.9 | 1.7 | 0.00 | 0.00 | 0.00 | 68 | 1015.8 |
| 20260902055229 | 78 | 227 | 0.9 | 1.7 | 0.00 | 0.00 | 0.00 | 68 | 1015.8 |
| 20260902055131 | 78 | 227 | 0.9 | 1.7 | 0.00 | 0.00 | 0.00 | 68 | 1015.8 |
| 20260902055030 | 78 | 229 | 0.9 | 1.7 | 0.00 | 0.00 | 0.00 | 68 | 1015.8 |
| 20260902054927 | 78 | 227 | 0.9 | 1.7 | 0.00 | 0.00 | 0.00 | 68 | 1015.8 |
| 20260902054831 | 78 | 227 | 0.9 | 1.7 | 0.00 | 0.00 | 0.00 | 68 | 1015.8 |
| 20260902054750 | 78 | 227 | 1.7 | 1.7 | 0.00 | 0.00 | 0.00 | 68 | 1015.8 |
| 20260902054719 | 78 | 227 | 1.7 | 1.7 | 0.00 | 0.00 | 0.00 | 68 | 1015.8 |
| 20260902054536 | 78 | 226 | 1.7 | 1.7 | 0.00 | 0.00 | 0.00 | 68 | 1015.8 |
| 20260902054434 | 78 | 227 | 1.7 | 1.7 | 0.00 | 0.00 | 0.00 | 68 | 1015.8 |
| 20260902054334 | 78 | 229 | 1.7 | 1.7 | 0.00 | 0.00 | 0.00 | 68 | 1015.8 |
| 20260902054232 | 78 | 229 | 0.9 | 1.7 | 0.00 | 0.00 | 0.00 | 68 | 1016.0 |
| 20260902054151 | 78 | 227 | 0.0 | 0.0 | 0.00 | 0.00 | 0.00 | 68 | 1016.0 |
| 20260902054031 | 78 | 226 | 0.0 | 0.0 | 0.00 | 0.00 | 0.00 | 68 | 1016.0 |
| 20260902053930 | 78 | 227 | 0.0 | 0.0 | 0.00 | 0.00 | 0.00 | 68 | 1016.0 |
| 20260902053848 | 78 | 229 | 0.0 | 0.0 | 0.00 | 0.00 | 0.00 | 68 | 1016.0 |
| 20260902053745 | 78 | 227 | 0.0 | 0.0 | 0.00 | 0.00 | 0.00 | 68 | 1016.0 |
| 20260902053626 | 78 | 227 | 0.0 | 0.0 | 0.00 | 0.00 | 0.00 | 68 | 1016.0 |
| 20260902053548 | 78 | 229 | 0.0 | 0.0 | 0.00 | 0.00 | 0.00 | 68 | 1016.0 |
| 20260902053426 | 78 | 227 | 0.0 | 0.0 | 0.00 | 0.00 | 0.00 | 68 | 1016.0 |
| 20260902053343 | 78 | 226 | 0.0 | 0.0 | 0.00 | 0.00 | 0.00 | 68 | 1016.0 |
| 20260902053245 | 78 | 229 | 0.0 | 0.0 | 0.00 | 0.00 | 0.00 | 68 | 1016.0 |
| 20260902053156 | 78 | 229 | 0.0 | 0.0 | 0.00 | 0.00 | 0.00 | 68 | 1016.0 |
| 20260902053032 | 78 | 226 | 0.0 | 0.0 | 0.00 | 0.00 | 0.00 | 68 | 1016.0 |
| 20260902052930 | 78 | 227 | 0.0 | 0.0 | 0.00 | 0.00 | 0.00 | 68 | 1016.0 |
| 20260902052828 | 78 | 227 | 0.0 | 0.0 | 0.00 | 0.00 | 0.00 | 68 | 1016.0 |
| 20260902052748 | 78 | 229 | 0.0 | 0.0 | 0.00 | 0.00 | 0.00 | 68 | 1015.9 |
| 20260902052645 | 78 | 229 | 0.0 | 0.0 | 0.00 | 0.00 | 0.00 | 68 | 1015.9 |
| 20260902052602 | 78 | 227 | 0.0 | 0.0 | 0.00 | 0.00 | 0.00 | 68 | 1015.9 |
| 20260902052439 | 78 | 229 | 0.0 | 0.0 | 0.00 | 0.00 | 0.00 | 68 | 1015.9 |
| 20260902052342 | 78 | 227 | 0.0 | 0.0 | 0.00 | 0.00 | 0.00 | 68 | 1015.9 |
| 20260902052240 | 78 | 226 | 0.0 | 0.0 | 0.00 | 0.00 | 0.00 | 68 | 1015.9 |
| 20260902052138 | 78 | 227 | 0.0 | 0.0 | 0.00 | 0.00 | 0.00 | 68 | 1015.9 |
| 20260902052037 | 78 | 227 | 0.0 | 0.0 | 0.00 | 0.00 | 0.00 | 68 | 1015.9 |
| 20260902051935 | 78 | 229 | 0.0 | 0.0 | 0.00 | 0.00 | 0.00 | 68 | 1015.9 |
| 20260902051834 | 78 | 229 | 0.0 | 0.0 | 0.00 | 0.00 | 0.00 | 68 | 1015.9 |
| 20260902051804 | 78 | 229 | 0.0 | 0.0 | 0.00 | 0.00 | 0.00 | 68 | 1015.9 |
| 20260902051656 | 78 | 227 | 0.0 | 0.0 | 0.00 | 0.00 | 0.00 | 68 | 1015.9 |
| 20260902051533 | 78 | 229 | 0.0 | 0.0 | 0.00 | 0.00 | 0.00 | 68 | 1015.9 |
| 20260902051452 | 78 | 229 | 0.0 | 0.0 | 0.00 | 0.00 | 0.00 | 68 | 1015.9 |
| 20260902051349 | 78 | 227 | 0.0 | 0.0 | 0.00 | 0.00 | 0.00 | 68 | 1015.9 |
| 20260902051227 | 78 | 226 | 0.0 | 0.0 | 0.00 | 0.00 | 0.00 | 68 | 1015.9 |
| 20260902051125 | 79 | 229 | 0.0 | 0.0 | 0.00 | 0.00 | 0.00 | 68 | 1015.9 |
| 20260902051044 | 79 | 226 | 0.0 | 0.0 | 0.00 | 0.00 | 0.00 | 68 | 1015.9 |
| 20260902050942 | 79 | 229 | 0.0 | 0.0 | 0.00 | 0.00 | 0.00 | 68 | 1015.9 |
| 20260902050825 | 79 | 227 | 0.0 | 0.0 | 0.00 | 0.00 | 0.00 | 68 | 1015.9 |
| 20260902050743 | 79 | 226 | 0.0 | 0.0 | 0.00 | 0.00 | 0.00 | 68 | 1015.9 |
| 20260902050643 | 79 | 227 | 0.0 | 0.0 | 0.00 | 0.00 | 0.00 | 68 | 1015.9 |
| 20260902050542 | 79 | 229 | 0.0 | 0.0 | 0.00 | 0.00 | 0.00 | 67 | 1015.9 |
| 20260902050440 | 79 | 229 | 0.0 | 0.0 | 0.00 | 0.00 | 0.00 | 67 | 1015.9 |
| 20260902050339 | 79 | 227 | 0.0 | 0.0 | 0.00 | 0.00 | 0.00 | 67 | 1015.9 |
| 20260902050237 | 79 | 229 | 0.0 | 0.0 | 0.00 | 0.00 | 0.00 | 67 | 1015.9 |
| 20260902050212 | 79 | 227 | 0.0 | 0.0 | 0.00 | 0.00 | 0.00 | 67 | 1015.9 |
| 20260902050047 | 79 | 227 | 0.0 | 0.0 | 0.00 | 0.00 | 0.00 | 67 | 1015.9 |
| 20260902050007 | 79 | 229 | 0.0 | 0.0 | 0.00 | 0.00 | 0.00 | 67 | 1015.9 |
| 20260902045842 | 79 | 229 | 0.0 | 0.0 | 0.00 | 0.00 | 0.00 | 67 | 1015.9 |
| 20260902045740 | 79 | 226 | 0.0 | 0.0 | 0.00 | 0.00 | 0.00 | 67 | 1016.0 |
| 20260902045639 | 79 | 226 | 0.0 | 0.0 | 0.00 | 0.00 | 0.00 | 67 | 1016.0 |
| 20260902045536 | 79 | 229 | 0.0 | 0.0 | 0.00 | 0.00 | 0.00 | 67 | 1016.0 |
| 20260902045456 | 79 | 227 | 0.0 | 0.9 | 0.00 | 0.00 | 0.00 | 67 | 1016.0 |
| 20260902045335 | 79 | 226 | 0.0 | 1.7 | 0.00 | 0.00 | 0.00 | 67 | 1016.0 |
| 20260902045234 | 79 | 229 | 0.0 | 1.7 | 0.00 | 0.00 | 0.00 | 68 | 1016.0 |
| 20260902045134 | 79 | 229 | 0.0 | 1.7 | 0.00 | 0.00 | 0.00 | 68 | 1016.0 |
| 20260902045031 | 79 | 227 | 0.0 | 1.7 | 0.00 | 0.00 | 0.00 | 68 | 1016.0 |
| 20260902044930 | 79 | 229 | 0.0 | 1.7 | 0.00 | 0.00 | 0.00 | 67 | 1016.0 |
| 20260902044828 | 79 | 229 | 0.0 | 1.7 | 0.00 | 0.00 | 0.00 | 67 | 1016.0 |
| 20260902044757 | 79 | 227 | 0.0 | 1.7 | 0.00 | 0.00 | 0.00 | 67 | 1016.0 |
| 20260902044645 | 79 | 229 | 0.0 | 1.7 | 0.00 | 0.00 | 0.00 | 67 | 1016.0 |
| 20260902044527 | 79 | 229 | 0.9 | 1.7 | 0.00 | 0.00 | 0.00 | 67 | 1016.0 |
| 20260902044428 | 79 | 227 | 1.7 | 1.7 | 0.00 | 0.00 | 0.00 | 68 | 1016.0 |
| 20260902044326 | 79 | 227 | 0.9 | 1.7 | 0.00 | 0.00 | 0.00 | 68 | 1016.0 |
| 20260902044226 | 79 | 227 | 0.9 | 1.7 | 0.00 | 0.00 | 0.00 | 67 | 1016.0 |
| 20260902044124 | 79 | 229 | 0.9 | 1.7 | 0.00 | 0.00 | 0.00 | 68 | 1016.0 |
| 20260902044041 | 79 | 229 | 0.9 | 1.7 | 0.00 | 0.00 | 0.00 | 67 | 1016.0 |
| 20260902044000 | 79 | 227 | 0.9 | 1.7 | 0.00 | 0.00 | 0.00 | 68 | 1016.0 |
| 20260902043841 | 79 | 229 | 0.9 | 1.7 | 0.00 | 0.00 | 0.00 | 68 | 1016.0 |
| 20260902043740 | 79 | 226 | 0.9 | 1.7 | 0.00 | 0.00 | 0.00 | 68 | 1016.0 |
| 20260902043638 | 79 | 229 | 0.9 | 1.7 | 0.00 | 0.00 | 0.00 | 68 | 1016.0 |
| 20260902043557 | 79 | 227 | 0.9 | 1.7 | 0.00 | 0.00 | 0.00 | 67 | 1016.0 |
| 20260902043434 | 79 | 229 | 0.0 | 0.0 | 0.00 | 0.00 | 0.00 | 66 | 1016.0 |
| 20260902043333 | 79 | 227 | 0.0 | 0.0 | 0.00 | 0.00 | 0.00 | 66 | 1016.0 |
| 20260902043242 | 79 | 227 | 0.0 | 0.0 | 0.00 | 0.00 | 0.00 | 66 | 1016.0 |
| 20260902043152 | 79 | 224 | 0.0 | 0.0 | 0.00 | 0.00 | 0.00 | 67 | 1016.0 |
| 20260902043032 | 79 | 227 | 0.0 | 0.0 | 0.00 | 0.00 | 0.00 | 67 | 1016.0 |
| 20260902042931 | 79 | 227 | 0.0 | 0.0 | 0.00 | 0.00 | 0.00 | 67 | 1016.0 |
| 20260902042830 | 79 | 227 | 0.0 | 0.0 | 0.00 | 0.00 | 0.00 | 67 | 1016.0 |
| 20260902042729 | 79 | 227 | 0.0 | 0.0 | 0.00 | 0.00 | 0.00 | 67 | 1016.0 |
| 20260902042627 | 79 | 226 | 0.0 | 0.9 | 0.00 | 0.00 | 0.00 | 66 | 1016.0 |
| 20260902042526 | 79 | 229 | 0.0 | 0.9 | 0.00 | 0.00 | 0.00 | 66 | 1016.0 |
| 20260902042427 | 79 | 226 | 0.0 | 1.7 | 0.00 | 0.00 | 0.00 | 66 | 1016.0 |
| 20260902042328 | 79 | 229 | 0.0 | 1.7 | 0.00 | 0.00 | 0.00 | 66 | 1016.0 |
| 20260902042227 | 79 | 229 | 0.0 | 1.7 | 0.00 | 0.00 | 0.00 | 66 | 1016.0 |
| 20260902042125 | 79 | 227 | 0.0 | 1.7 | 0.00 | 0.00 | 0.00 | 66 | 1016.0 |
| 20260902042042 | 79 | 227 | 0.0 | 1.7 | 0.00 | 0.00 | 0.00 | 66 | 1016.0 |
| 20260902042000 | 79 | 226 | 0.0 | 1.7 | 0.00 | 0.00 | 0.00 | 66 | 1016.0 |
| 20260902041919 | 79 | 229 | 0.0 | 1.7 | 0.00 | 0.00 | 0.00 | 66 | 1016.0 |
| 20260902041816 | 79 | 229 | 0.9 | 1.7 | 0.00 | 0.00 | 0.00 | 66 | 1016.0 |
| 20260902041703 | 79 | 226 | 0.9 | 1.7 | 0.00 | 0.00 | 0.00 | 66 | 1016.0 |
| 20260902041545 | 79 | 227 | 0.9 | 1.7 | 0.00 | 0.00 | 0.00 | 66 | 1016.0 |
| 20260902041445 | 79 | 226 | 0.9 | 1.7 | 0.00 | 0.00 | 0.00 | 66 | 1016.0 |
| 20260902041403 | 79 | 227 | 0.9 | 1.7 | 0.00 | 0.00 | 0.00 | 66 | 1016.0 |
| 20260902041303 | 79 | 227 | 0.9 | 1.7 | 0.00 | 0.00 | 0.00 | 66 | 1016.1 |
| 20260902041140 | 79 | 224 | 0.9 | 1.7 | 0.00 | 0.00 | 0.00 | 66 | 1016.1 |
| 20260902041038 | 79 | 227 | 0.9 | 1.7 | 0.00 | 0.00 | 0.00 | 66 | 1016.1 |
| 20260902040936 | 79 | 229 | 0.9 | 2.6 | 0.00 | 0.00 | 0.00 | 66 | 1016.1 |
| 20260902040836 | 79 | 226 | 0.9 | 2.6 | 0.00 | 0.00 | 0.00 | 66 | 1016.1 |
| 20260902040739 | 79 | 226 | 0.9 | 2.6 | 0.00 | 0.00 | 0.00 | 66 | 1016.1 |
| 20260902040638 | 79 | 227 | 0.9 | 2.6 | 0.00 | 0.00 | 0.00 | 66 | 1016.1 |
| 20260902040557 | 79 | 227 | 1.7 | 2.6 | 0.00 | 0.00 | 0.00 | 66 | 1016.1 |
| 20260902040455 | 79 | 226 | 0.9 | 2.6 | 0.00 | 0.00 | 0.00 | 66 | 1016.1 |
| 20260902040353 | 79 | 227 | 1.7 | 2.6 | 0.00 | 0.00 | 0.00 | 66 | 1016.1 |
| 20260902040239 | 79 | 229 | 1.7 | 2.6 | 0.00 | 0.00 | 0.00 | 66 | 1016.1 |
| 20260902040148 | 79 | 229 | 1.7 | 2.6 | 0.00 | 0.00 | 0.00 | 66 | 1016.1 |
| 20260902040024 | 79 | 227 | 1.7 | 2.6 | 0.00 | 0.00 | 0.00 | 66 | 1016.1 |
| 20260902035925 | 79 | 227 | 1.7 | 2.6 | 0.00 | 0.00 | 0.00 | 66 | 1016.1 |
| 20260902035828 | 79 | 224 | 1.7 | 2.6 | 0.00 | 0.00 | 0.00 | 66 | 1016.1 |
| 20260902035726 | 79 | 227 | 1.7 | 2.6 | 0.00 | 0.00 | 0.00 | 66 | 1016.2 |
| 20260902035645 | 79 | 227 | 1.7 | 2.6 | 0.00 | 0.00 | 0.00 | 66 | 1016.2 |
| 20260902035603 | 79 | 227 | 1.7 | 2.6 | 0.00 | 0.00 | 0.00 | 66 | 1016.2 |
| 20260902035441 | 79 | 227 | 2.6 | 2.6 | 0.00 | 0.00 | 0.00 | 67 | 1016.2 |
| 20260902035340 | 79 | 229 | 2.6 | 2.6 | 0.00 | 0.00 | 0.00 | 67 | 1016.2 |
| 20260902035238 | 79 | 226 | 2.6 | 2.6 | 0.00 | 0.00 | 0.00 | 67 | 1016.2 |
| 20260902035141 | 79 | 227 | 2.6 | 2.6 | 0.00 | 0.00 | 0.00 | 67 | 1016.2 |
| 20260902035040 | 79 | 229 | 1.7 | 2.6 | 0.00 | 0.00 | 0.00 | 67 | 1016.2 |
| 20260902034938 | 79 | 227 | 1.7 | 2.6 | 0.00 | 0.00 | 0.00 | 67 | 1016.2 |
| 20260902034836 | 79 | 227 | 1.7 | 2.6 | 0.00 | 0.00 | 0.00 | 67 | 1016.2 |
| 20260902034755 | 79 | 224 | 1.7 | 2.6 | 0.00 | 0.00 | 0.00 | 66 | 1016.2 |
| 20260902034725 | 79 | 226 | 1.7 | 2.6 | 0.00 | 0.00 | 0.00 | 66 | 1016.2 |
| 20260902034602 | 79 | 227 | 1.7 | 2.6 | 0.00 | 0.00 | 0.00 | 66 | 1016.2 |
| 20260902034438 | 79 | 229 | 1.7 | 2.6 | 0.00 | 0.00 | 0.00 | 66 | 1016.2 |
| 20260902034337 | 79 | 226 | 1.7 | 2.6 | 0.00 | 0.00 | 0.00 | 67 | 1016.2 |
| 20260902034240 | 79 | 226 | 1.7 | 2.6 | 0.00 | 0.00 | 0.00 | 66 | 1016.2 |
| 20260902034140 | 79 | 226 | 1.7 | 2.6 | 0.00 | 0.00 | 0.00 | 66 | 1016.2 |
| 20260902034037 | 79 | 229 | 1.7 | 2.6 | 0.00 | 0.00 | 0.00 | 66 | 1016.2 |
| 20260902033937 | 79 | 229 | 1.7 | 2.6 | 0.00 | 0.00 | 0.00 | 66 | 1016.2 |
| 20260902033835 | 79 | 227 | 1.7 | 2.6 | 0.00 | 0.00 | 0.00 | 66 | 1016.2 |
| 20260902033753 | 79 | 229 | 1.7 | 2.6 | 0.00 | 0.00 | 0.00 | 66 | 1016.2 |
| 20260902033652 | 79 | 227 | 1.7 | 2.6 | 0.00 | 0.00 | 0.00 | 66 | 1016.2 |
| 20260902033549 | 79 | 229 | 1.7 | 2.6 | 0.00 | 0.00 | 0.00 | 66 | 1016.2 |
| 20260902033430 | 79 | 227 | 1.7 | 2.6 | 0.00 | 0.00 | 0.00 | 66 | 1016.2 |
| 20260902033329 | 79 | 227 | 2.6 | 2.6 | 0.00 | 0.00 | 0.00 | 66 | 1016.2 |
| 20260902033222 | 79 | 227 | 1.7 | 2.6 | 0.00 | 0.00 | 0.00 | 66 | 1016.2 |
| 20260902033036 | 79 | 224 | 1.7 | 2.6 | 0.00 | 0.00 | 0.00 | 66 | 1016.2 |
| 20260902032957 | 79 | 229 | 2.6 | 2.6 | 0.00 | 0.00 | 0.00 | 66 | 1016.2 |
| 20260902032835 | 79 | 229 | 1.7 | 2.6 | 0.00 | 0.00 | 0.00 | 66 | 1016.2 |
| 20260902032735 | 79 | 229 | 1.7 | 2.6 | 0.00 | 0.00 | 0.00 | 65 | 1016.3 |
| 20260902032636 | 79 | 227 | 2.6 | 2.6 | 0.00 | 0.00 | 0.00 | 65 | 1016.3 |
| 20260902032535 | 79 | 227 | 1.7 | 2.6 | 0.00 | 0.00 | 0.00 | 66 | 1016.3 |
| 20260902032455 | 79 | 229 | 1.7 | 2.6 | 0.00 | 0.00 | 0.00 | 66 | 1016.3 |
| 20260902032335 | 79 | 226 | 1.7 | 2.6 | 0.00 | 0.00 | 0.00 | 66 | 1016.3 |
| 20260902032254 | 79 | 226 | 1.7 | 2.6 | 0.00 | 0.00 | 0.00 | 66 | 1016.3 |
| 20260902032131 | 79 | 229 | 1.7 | 2.6 | 0.00 | 0.00 | 0.00 | 66 | 1016.3 |
| 20260902032030 | 79 | 229 | 2.6 | 2.6 | 0.00 | 0.00 | 0.00 | 66 | 1016.3 |
| 20260902031934 | 79 | 227 | 2.6 | 2.6 | 0.00 | 0.00 | 0.00 | 66 | 1016.3 |
| 20260902031831 | 79 | 229 | 2.6 | 2.6 | 0.00 | 0.00 | 0.00 | 67 | 1016.3 |
| 20260902031730 | 79 | 229 | 1.7 | 2.6 | 0.00 | 0.00 | 0.00 | 67 | 1016.3 |
| 20260902031701 | 79 | 229 | 2.6 | 2.6 | 0.00 | 0.00 | 0.00 | 67 | 1016.3 |
| 20260902031539 | 79 | 227 | 2.6 | 2.6 | 0.00 | 0.00 | 0.00 | 67 | 1016.3 |
| 20260902031437 | 79 | 229 | 2.6 | 2.6 | 0.00 | 0.00 | 0.00 | 67 | 1016.3 |
| 20260902031336 | 79 | 227 | 1.7 | 2.6 | 0.00 | 0.00 | 0.00 | 67 | 1016.3 |
| 20260902031237 | 79 | 229 | 2.6 | 2.6 | 0.00 | 0.00 | 0.00 | 67 | 1016.4 |
| 20260902031136 | 79 | 227 | 1.7 | 2.6 | 0.00 | 0.00 | 0.00 | 67 | 1016.4 |
| 20260902031035 | 79 | 229 | 2.6 | 2.6 | 0.00 | 0.00 | 0.00 | 67 | 1016.4 |
| 20260902030935 | 80 | 227 | 2.6 | 2.6 | 0.00 | 0.00 | 0.00 | 67 | 1016.4 |
| 20260902030833 | 80 | 229 | 2.6 | 2.6 | 0.00 | 0.00 | 0.00 | 66 | 1016.4 |
| 20260902030732 | 80 | 226 | 1.7 | 2.6 | 0.00 | 0.00 | 0.00 | 66 | 1016.4 |
| 20260902030631 | 80 | 226 | 1.7 | 2.6 | 0.00 | 0.00 | 0.00 | 66 | 1016.4 |
| 20260902030555 | 80 | 227 | 1.7 | 2.6 | 0.00 | 0.00 | 0.00 | 66 | 1016.4 |
| 20260902030453 | 80 | 226 | 1.7 | 2.6 | 0.00 | 0.00 | 0.00 | 67 | 1016.4 |
| 20260902030350 | 80 | 229 | 1.7 | 2.6 | 0.00 | 0.00 | 0.00 | 67 | 1016.4 |
| 20260902030237 | 80 | 227 | 1.7 | 2.6 | 0.00 | 0.00 | 0.00 | 67 | 1016.4 |
| 20260902030148 | 80 | 229 | 2.6 | 2.6 | 0.00 | 0.00 | 0.00 | 67 | 1016.4 |
| 20260902030024 | 80 | 229 | 2.6 | 2.6 | 0.00 | 0.00 | 0.00 | 66 | 1016.4 |
| 20260902025942 | 80 | 229 | 2.6 | 2.6 | 0.00 | 0.00 | 0.00 | 66 | 1016.4 |
| 20260902025840 | 80 | 229 | 1.7 | 2.6 | 0.00 | 0.00 | 0.00 | 66 | 1016.4 |
| 20260902025740 | 80 | 229 | 1.7 | 2.6 | 0.00 | 0.00 | 0.00 | 65 | 1016.4 |
| 20260902025642 | 80 | 227 | 1.7 | 2.6 | 0.00 | 0.00 | 0.00 | 65 | 1016.4 |
| 20260902025541 | 80 | 227 | 1.7 | 2.6 | 0.00 | 0.00 | 0.00 | 65 | 1016.4 |
| 20260902025500 | 80 | 226 | 1.7 | 2.6 | 0.00 | 0.00 | 0.00 | 65 | 1016.4 |
| 20260902025340 | 80 | 227 | 1.7 | 2.6 | 0.00 | 0.00 | 0.00 | 65 | 1016.4 |
| 20260902025237 | 80 | 227 | 1.7 | 2.6 | 0.00 | 0.00 | 0.00 | 65 | 1016.4 |
| 20260902025135 | 80 | 229 | 1.7 | 2.6 | 0.00 | 0.00 | 0.00 | 65 | 1016.4 |
| 20260902025054 | 80 | 229 | 1.7 | 2.6 | 0.00 | 0.00 | 0.00 | 65 | 1016.4 |
| 20260902024930 | 80 | 229 | 1.7 | 2.6 | 0.00 | 0.00 | 0.00 | 65 | 1016.4 |
| 20260902024833 | 80 | 227 | 1.7 | 2.6 | 0.00 | 0.00 | 0.00 | 65 | 1016.4 |
| 20260902024732 | 80 | 229 | 1.7 | 2.6 | 0.00 | 0.00 | 0.00 | 65 | 1016.4 |
| 20260902024702 | 80 | 227 | 1.7 | 2.6 | 0.00 | 0.00 | 0.00 | 65 | 1016.4 |
| 20260902024540 | 80 | 229 | 1.7 | 2.6 | 0.00 | 0.00 | 0.00 | 65 | 1016.4 |
| 20260902024439 | 80 | 226 | 1.7 | 2.6 | 0.00 | 0.00 | 0.00 | 65 | 1016.4 |
| 20260902024339 | 80 | 227 | 1.7 | 2.6 | 0.00 | 0.00 | 0.00 | 65 | 1016.4 |
| 20260902024257 | 80 | 229 | 1.7 | 2.6 | 0.00 | 0.00 | 0.00 | 65 | 1016.3 |
| 20260902024154 | 80 | 229 | 1.7 | 2.6 | 0.00 | 0.00 | 0.00 | 65 | 1016.3 |
| 20260902024034 | 80 | 229 | 1.7 | 2.6 | 0.00 | 0.00 | 0.00 | 65 | 1016.3 |
| 20260902023933 | 80 | 226 | 1.7 | 2.6 | 0.00 | 0.00 | 0.00 | 65 | 1016.3 |
| 20260902023831 | 80 | 227 | 1.7 | 2.6 | 0.00 | 0.00 | 0.00 | 65 | 1016.3 |
| 20260902023730 | 80 | 227 | 1.7 | 2.6 | 0.00 | 0.00 | 0.00 | 65 | 1016.3 |
| 20260902023629 | 80 | 226 | 1.7 | 2.6 | 0.00 | 0.00 | 0.00 | 65 | 1016.3 |
| 20260902023526 | 80 | 224 | 1.7 | 2.6 | 0.00 | 0.00 | 0.00 | 65 | 1016.3 |
| 20260902023444 | 80 | 229 | 1.7 | 2.6 | 0.00 | 0.00 | 0.00 | 65 | 1016.3 |
| 20260902023326 | 80 | 229 | 1.7 | 2.6 | 0.00 | 0.00 | 0.00 | 65 | 1016.3 |
| 20260902023224 | 80 | 226 | 1.7 | 2.6 | 0.00 | 0.00 | 0.00 | 65 | 1016.3 |
| 20260902023155 | 80 | 229 | 1.7 | 2.6 | 0.00 | 0.00 | 0.00 | 64 | 1016.3 |
| 20260902023032 | 80 | 229 | 1.7 | 1.7 | 0.00 | 0.00 | 0.00 | 64 | 1016.3 |
| 20260902022931 | 80 | 229 | 0.0 | 1.7 | 0.00 | 0.00 | 0.00 | 64 | 1016.3 |
| 20260902022852 | 80 | 229 | 0.0 | 0.0 | 0.00 | 0.00 | 0.00 | 64 | 1016.3 |
| 20260902022730 | 80 | 227 | 0.0 | 0.0 | 0.00 | 0.00 | 0.00 | 64 | 1016.3 |
| 20260902022649 | 80 | 229 | 0.0 | 0.0 | 0.00 | 0.00 | 0.00 | 64 | 1016.3 |
| 20260902022532 | 80 | 229 | 0.0 | 0.0 | 0.00 | 0.00 | 0.00 | 64 | 1016.3 |
| 20260902022429 | 80 | 227 | 0.0 | 0.0 | 0.00 | 0.00 | 0.00 | 64 | 1016.3 |
| 20260902022328 | 80 | 227 | 0.0 | 0.0 | 0.00 | 0.00 | 0.00 | 64 | 1016.3 |
| 20260902022226 | 80 | 229 | 0.0 | 0.0 | 0.00 | 0.00 | 0.00 | 64 | 1016.3 |
| 20260902022144 | 80 | 229 | 0.0 | 0.0 | 0.00 | 0.00 | 0.00 | 64 | 1016.3 |
| 20260902022103 | 80 | 229 | 0.0 | 0.0 | 0.00 | 0.00 | 0.00 | 64 | 1016.3 |
| 20260902021940 | 80 | 227 | 0.0 | 0.0 | 0.00 | 0.00 | 0.00 | 64 | 1016.3 |
| 20260902021842 | 80 | 229 | 0.0 | 0.0 | 0.00 | 0.00 | 0.00 | 64 | 1016.3 |
| 20260902021740 | 80 | 229 | 0.0 | 0.0 | 0.00 | 0.00 | 0.00 | 64 | 1016.3 |
| 20260902021710 | 80 | 224 | 0.0 | 0.0 | 0.00 | 0.00 | 0.00 | 64 | 1016.3 |
| 20260902021527 | 80 | 229 | 0.0 | 0.0 | 0.00 | 0.00 | 0.00 | 64 | 1016.3 |
| 20260902021425 | 80 | 229 | 0.0 | 0.0 | 0.00 | 0.00 | 0.00 | 64 | 1016.3 |
| 20260902021343 | 80 | 227 | 0.0 | 0.0 | 0.00 | 0.00 | 0.00 | 64 | 1016.3 |
| 20260902021242 | 80 | 226 | 0.0 | 0.0 | 0.00 | 0.00 | 0.00 | 64 | 1016.2 |
| 20260902021125 | 80 | 227 | 0.0 | 0.0 | 0.00 | 0.00 | 0.00 | 64 | 1016.2 |
| 20260902021042 | 80 | 227 | 0.0 | 0.0 | 0.00 | 0.00 | 0.00 | 63 | 1016.2 |
| 20260902020941 | 80 | 227 | 0.0 | 0.0 | 0.00 | 0.00 | 0.00 | 63 | 1016.2 |
| 20260902020839 | 80 | 227 | 0.0 | 0.0 | 0.00 | 0.00 | 0.00 | 63 | 1016.2 |
| 20260902020738 | 80 | 229 | 0.0 | 0.0 | 0.00 | 0.00 | 0.00 | 63 | 1016.2 |
| 20260902020638 | 80 | 229 | 0.0 | 0.0 | 0.00 | 0.00 | 0.00 | 63 | 1016.2 |
| 20260902020537 | 80 | 226 | 0.0 | 0.0 | 0.00 | 0.00 | 0.00 | 63 | 1016.2 |
| 20260902020439 | 81 | 229 | 0.0 | 0.0 | 0.00 | 0.00 | 0.00 | 63 | 1016.2 |
| 20260902020338 | 81 | 227 | 0.0 | 0.0 | 0.00 | 0.00 | 0.00 | 63 | 1016.2 |
| 20260902020236 | 81 | 229 | 0.0 | 0.0 | 0.00 | 0.00 | 0.00 | 63 | 1016.2 |
| 20260902020205 | 81 | 229 | 0.0 | 0.0 | 0.00 | 0.00 | 0.00 | 63 | 1016.2 |
| 20260902020042 | 81 | 229 | 0.0 | 0.0 | 0.00 | 0.00 | 0.00 | 63 | 1016.2 |
| 20260902020001 | 81 | 229 | 0.0 | 0.0 | 0.00 | 0.00 | 0.00 | 63 | 1016.2 |
| 20260902015839 | 81 | 229 | 0.0 | 0.0 | 0.00 | 0.00 | 0.00 | 63 | 1016.2 |
| 20260902015738 | 81 | 227 | 0.0 | 0.0 | 0.00 | 0.00 | 0.00 | 63 | 1016.0 |
| 20260902015640 | 81 | 229 | 0.0 | 0.0 | 0.00 | 0.00 | 0.00 | 63 | 1016.0 |
| 20260902015538 | 81 | 229 | 0.0 | 1.7 | 0.00 | 0.00 | 0.00 | 63 | 1016.0 |
| 20260902015438 | 81 | 227 | 0.0 | 1.7 | 0.00 | 0.00 | 0.00 | 63 | 1016.0 |
| 20260902015341 | 81 | 229 | 0.0 | 1.7 | 0.00 | 0.00 | 0.00 | 63 | 1016.0 |
| 20260902015239 | 81 | 227 | 0.0 | 1.7 | 0.00 | 0.00 | 0.00 | 63 | 1016.0 |
| 20260902015157 | 81 | 229 | 0.0 | 1.7 | 0.00 | 0.00 | 0.00 | 63 | 1016.0 |
| 20260902015034 | 81 | 229 | 0.0 | 1.7 | 0.00 | 0.00 | 0.00 | 63 | 1016.0 |
| 20260902014958 | 81 | 229 | 0.0 | 1.7 | 0.00 | 0.00 | 0.00 | 63 | 1016.0 |
| 20260902014835 | 81 | 229 | 0.0 | 2.6 | 0.00 | 0.00 | 0.00 | 63 | 1016.0 |
| 20260902014732 | 81 | 229 | 0.9 | 2.6 | 0.00 | 0.00 | 0.00 | 63 | 1016.0 |
| 20260902014702 | 81 | 226 | 0.9 | 2.6 | 0.00 | 0.00 | 0.00 | 63 | 1016.0 |
| 20260902014540 | 81 | 229 | 0.9 | 2.6 | 0.00 | 0.00 | 0.00 | 63 | 1016.0 |
| 20260902014440 | 81 | 229 | 0.9 | 2.6 | 0.00 | 0.00 | 0.00 | 63 | 1016.0 |
| 20260902014357 | 81 | 229 | 0.9 | 4.3 | 0.00 | 0.00 | 0.00 | 62 | 1016.0 |
| 20260902014255 | 81 | 223 | 0.9 | 4.3 | 0.00 | 0.00 | 0.00 | 63 | 1015.9 |
| 20260902014133 | 81 | 227 | 0.9 | 4.3 | 0.00 | 0.00 | 0.00 | 63 | 1015.9 |
| 20260902014057 | 81 | 229 | 1.7 | 4.3 | 0.00 | 0.00 | 0.00 | 63 | 1015.9 |
| 20260902013934 | 81 | 227 | 1.7 | 4.3 | 0.00 | 0.00 | 0.00 | 62 | 1015.9 |
| 20260902013834 | 81 | 227 | 1.7 | 4.3 | 0.00 | 0.00 | 0.00 | 62 | 1015.9 |
| 20260902013732 | 81 | 227 | 1.7 | 4.3 | 0.00 | 0.00 | 0.00 | 63 | 1015.9 |
| 20260902013630 | 81 | 222 | 0.9 | 4.3 | 0.00 | 0.00 | 0.00 | 63 | 1015.9 |
| 20260902013529 | 81 | 227 | 2.6 | 4.3 | 0.00 | 0.00 | 0.00 | 63 | 1015.9 |
| 20260902013427 | 81 | 229 | 0.9 | 4.3 | 0.00 | 0.00 | 0.00 | 62 | 1015.9 |
| 20260902013331 | 81 | 224 | 2.6 | 4.3 | 0.00 | 0.00 | 0.00 | 62 | 1015.9 |
| 20260902013250 | 81 | 229 | 2.6 | 4.3 | 0.00 | 0.00 | 0.00 | 62 | 1015.9 |
| 20260902013158 | 81 | 227 | 1.7 | 4.3 | 0.00 | 0.00 | 0.00 | 62 | 1015.9 |
| 20260902013035 | 81 | 229 | 1.7 | 4.3 | 0.00 | 0.00 | 0.00 | 62 | 1015.9 |
| 20260902012953 | 81 | 227 | 2.6 | 4.3 | 0.00 | 0.00 | 0.00 | 62 | 1015.9 |
| 20260902012830 | 81 | 229 | 2.6 | 4.3 | 0.00 | 0.00 | 0.00 | 63 | 1015.9 |
| 20260902012729 | 81 | 229 | 2.6 | 4.3 | 0.00 | 0.00 | 0.00 | 63 | 1015.7 |
| 20260902012627 | 81 | 229 | 2.6 | 4.3 | 0.00 | 0.00 | 0.00 | 63 | 1015.7 |
| 20260902012530 | 81 | 209 | 1.7 | 4.3 | 0.00 | 0.00 | 0.00 | 63 | 1015.7 |
| 20260902012428 | 81 | 229 | 2.6 | 4.3 | 0.00 | 0.00 | 0.00 | 62 | 1015.7 |
| 20260902012327 | 81 | 226 | 2.6 | 4.3 | 0.00 | 0.00 | 0.00 | 62 | 1015.7 |
| 20260902012225 | 81 | 229 | 2.6 | 4.3 | 0.00 | 0.00 | 0.00 | 62 | 1015.7 |
| 20260902012123 | 81 | 229 | 2.6 | 4.3 | 0.00 | 0.00 | 0.00 | 62 | 1015.7 |
| 20260902012045 | 81 | 229 | 2.6 | 4.3 | 0.00 | 0.00 | 0.00 | 62 | 1015.7 |
| 20260902011943 | 81 | 229 | 2.6 | 4.3 | 0.00 | 0.00 | 0.00 | 62 | 1015.7 |
| 20260902011902 | 81 | 226 | 3.5 | 4.3 | 0.00 | 0.00 | 0.00 | 63 | 1015.7 |
| 20260902011804 | 81 | 229 | 2.6 | 4.3 | 0.00 | 0.00 | 0.00 | 63 | 1015.7 |
| 20260902011711 | 81 | 223 | 3.5 | 4.3 | 0.00 | 0.00 | 0.00 | 63 | 1015.7 |
| 20260902011548 | 81 | 229 | 2.6 | 4.3 | 0.00 | 0.00 | 0.00 | 62 | 1015.7 |
| 20260902011425 | 81 | 229 | 3.5 | 4.3 | 0.00 | 0.00 | 0.00 | 62 | 1015.7 |
| 20260902011344 | 81 | 229 | 2.6 | 4.3 | 0.00 | 0.00 | 0.00 | 62 | 1015.7 |
| 20260902011301 | 81 | 229 | 2.6 | 4.3 | 0.00 | 0.00 | 0.00 | 62 | 1015.6 |
| 20260902011138 | 81 | 227 | 3.5 | 4.3 | 0.00 | 0.00 | 0.00 | 62 | 1015.6 |
| 20260902011057 | 81 | 229 | 2.6 | 4.3 | 0.00 | 0.00 | 0.00 | 62 | 1015.6 |
| 20260902010934 | 81 | 226 | 2.6 | 4.3 | 0.00 | 0.00 | 0.00 | 62 | 1015.6 |
| 20260902010839 | 81 | 229 | 2.6 | 4.3 | 0.00 | 0.00 | 0.00 | 62 | 1015.6 |
| 20260902010737 | 81 | 230 | 2.6 | 4.3 | 0.00 | 0.00 | 0.00 | 62 | 1015.6 |
| 20260902010655 | 82 | 227 | 1.7 | 4.3 | 0.00 | 0.00 | 0.00 | 62 | 1015.6 |
| 20260902010532 | 82 | 229 | 2.6 | 4.3 | 0.00 | 0.00 | 0.00 | 62 | 1015.6 |
| 20260902010430 | 82 | 229 | 1.7 | 4.3 | 0.00 | 0.00 | 0.00 | 62 | 1015.6 |
| 20260902010329 | 82 | 227 | 2.6 | 5.2 | 0.00 | 0.00 | 0.00 | 62 | 1015.6 |
| 20260902010248 | 82 | 226 | 3.5 | 5.2 | 0.00 | 0.00 | 0.00 | 62 | 1015.6 |
| 20260902010219 | 82 | 227 | 2.6 | 5.2 | 0.00 | 0.00 | 0.00 | 62 | 1015.6 |
| 20260902010040 | 82 | 227 | 2.6 | 5.2 | 0.00 | 0.00 | 0.00 | 62 | 1015.6 |
| 20260902005939 | 82 | 226 | 1.7 | 5.2 | 0.00 | 0.00 | 0.00 | 62 | 1015.6 |
| 20260902005857 | 82 | 226 | 2.6 | 6.1 | 0.00 | 0.00 | 0.00 | 62 | 1015.6 |
| 20260902005754 | 82 | 223 | 2.6 | 6.1 | 0.00 | 0.00 | 0.00 | 62 | 1015.6 |
| 20260902005631 | 82 | 227 | 3.5 | 6.1 | 0.00 | 0.00 | 0.00 | 62 | 1015.6 |
| 20260902005533 | 82 | 226 | 2.6 | 6.1 | 0.00 | 0.00 | 0.00 | 63 | 1015.6 |
| 20260902005436 | 82 | 226 | 3.5 | 6.1 | 0.00 | 0.00 | 0.00 | 63 | 1015.6 |
| 20260902005335 | 82 | 220 | 3.5 | 6.1 | 0.00 | 0.00 | 0.00 | 63 | 1015.6 |
| 20260902005236 | 82 | 222 | 2.6 | 6.1 | 0.00 | 0.00 | 0.00 | 62 | 1015.6 |
| 20260902005135 | 82 | 224 | 2.6 | 6.1 | 0.00 | 0.00 | 0.00 | 62 | 1015.6 |
| 20260902005034 | 82 | 223 | 3.5 | 6.1 | 0.00 | 0.00 | 0.00 | 62 | 1015.6 |
| 20260902004931 | 82 | 223 | 3.5 | 5.2 | 0.00 | 0.00 | 0.00 | 62 | 1015.6 |
| 20260902004852 | 82 | 224 | 1.7 | 5.2 | 0.00 | 0.00 | 0.00 | 62 | 1015.6 |
| 20260902004728 | 82 | 224 | 3.5 | 5.2 | 0.00 | 0.00 | 0.00 | 62 | 1015.6 |
| 20260902004657 | 82 | 223 | 3.5 | 5.2 | 0.00 | 0.00 | 0.00 | 62 | 1015.6 |
| 20260902004535 | 82 | 222 | 2.6 | 5.2 | 0.00 | 0.00 | 0.00 | 62 | 1015.6 |
| 20260902004438 | 82 | 223 | 1.7 | 5.2 | 0.00 | 0.00 | 0.00 | 62 | 1015.6 |
| 20260902004337 | 82 | 224 | 2.6 | 5.2 | 0.00 | 0.00 | 0.00 | 62 | 1015.6 |
| 20260902004234 | 82 | 224 | 3.5 | 5.2 | 0.00 | 0.00 | 0.00 | 62 | 1015.5 |
| 20260902004133 | 82 | 226 | 2.6 | 5.2 | 0.00 | 0.00 | 0.00 | 62 | 1015.5 |
| 20260902004031 | 82 | 226 | 4.3 | 5.2 | 0.00 | 0.00 | 0.00 | 62 | 1015.5 |
| 20260902003930 | 82 | 224 | 2.6 | 5.2 | 0.00 | 0.00 | 0.00 | 63 | 1015.5 |
| 20260902003833 | 82 | 226 | 3.5 | 5.2 | 0.00 | 0.00 | 0.00 | 63 | 1015.5 |
| 20260902003735 | 82 | 226 | 2.6 | 5.2 | 0.00 | 0.00 | 0.00 | 62 | 1015.5 |
| 20260902003633 | 83 | 227 | 2.6 | 5.2 | 0.00 | 0.00 | 0.00 | 62 | 1015.5 |
| 20260902003532 | 83 | 226 | 3.5 | 5.2 | 0.00 | 0.00 | 0.00 | 62 | 1015.5 |
| 20260902003431 | 83 | 227 | 2.6 | 5.2 | 0.00 | 0.00 | 0.00 | 62 | 1015.5 |
| 20260902003330 | 83 | 224 | 2.6 | 5.2 | 0.00 | 0.00 | 0.00 | 62 | 1015.5 |
| 20260902003239 | 83 | 227 | 3.5 | 6.1 | 0.00 | 0.00 | 0.00 | 62 | 1015.5 |
| 20260902003152 | 83 | 229 | 4.3 | 6.1 | 0.00 | 0.00 | 0.00 | 62 | 1015.5 |
| 20260902003029 | 83 | 230 | 3.5 | 6.1 | 0.00 | 0.00 | 0.00 | 62 | 1015.5 |
| 20260902002928 | 83 | 232 | 2.6 | 6.1 | 0.00 | 0.00 | 0.00 | 62 | 1015.5 |
| 20260902002826 | 83 | 226 | 2.6 | 6.1 | 0.00 | 0.00 | 0.00 | 62 | 1015.5 |
| 20260902002743 | 83 | 227 | 2.6 | 6.1 | 0.00 | 0.00 | 0.00 | 62 | 1015.5 |
| 20260902002641 | 83 | 227 | 3.5 | 6.1 | 0.00 | 0.00 | 0.00 | 62 | 1015.5 |
| 20260902002540 | 83 | 227 | 3.5 | 6.1 | 0.00 | 0.00 | 0.00 | 62 | 1015.5 |
| 20260902002443 | 83 | 229 | 3.5 | 6.1 | 0.00 | 0.00 | 0.00 | 61 | 1015.5 |
| 20260902002341 | 83 | 227 | 5.2 | 6.1 | 0.00 | 0.00 | 0.00 | 61 | 1015.5 |
| 20260902002301 | 83 | 233 | 3.5 | 6.1 | 0.00 | 0.00 | 0.00 | 61 | 1015.5 |
| 20260902002138 | 83 | 263 | 1.7 | 5.2 | 0.00 | 0.00 | 0.00 | 61 | 1015.5 |
| 20260902002058 | 83 | 264 | 2.6 | 5.2 | 0.00 | 0.00 | 0.00 | 61 | 1015.5 |
| 20260902001955 | 83 | 267 | 2.6 | 5.2 | 0.00 | 0.00 | 0.00 | 61 | 1015.5 |
| 20260902001913 | 83 | 267 | 1.7 | 5.2 | 0.00 | 0.00 | 0.00 | 61 | 1015.5 |
| 20260902001811 | 83 | 268 | 2.6 | 5.2 | 0.00 | 0.00 | 0.00 | 60 | 1015.5 |
| 20260902001658 | 83 | 267 | 3.5 | 5.2 | 0.00 | 0.00 | 0.00 | 60 | 1015.5 |
| 20260902001536 | 83 | 268 | 1.7 | 5.2 | 0.00 | 0.00 | 0.00 | 60 | 1015.5 |
| 20260902001438 | 83 | 268 | 3.5 | 5.2 | 0.00 | 0.00 | 0.00 | 60 | 1015.5 |
| 20260902001336 | 83 | 281 | 2.6 | 5.2 | 0.00 | 0.00 | 0.00 | 60 | 1015.5 |
| 20260902001235 | 83 | 288 | 2.6 | 5.2 | 0.00 | 0.00 | 0.00 | 61 | 1015.6 |
| 20260902001133 | 83 | 288 | 1.7 | 5.2 | 0.00 | 0.00 | 0.00 | 61 | 1015.6 |
| 20260902001032 | 83 | 292 | 2.6 | 5.2 | 0.00 | 0.00 | 0.00 | 61 | 1015.6 |
| 20260902000932 | 84 | 360 | 1.7 | 2.6 | 0.00 | 0.00 | 0.00 | 61 | 1015.6 |
| 20260902000833 | 84 | 360 | 0.9 | 1.7 | 0.00 | 0.00 | 0.00 | 61 | 1015.6 |
| 20260902000732 | 84 | 360 | 0.0 | 0.0 | 0.00 | 0.00 | 0.00 | 61 | 1015.6 |
| 20260902000630 | 84 | 360 | 0.0 | 0.0 | 0.00 | 0.00 | 0.00 | 60 | 1015.6 |
| 20260902000529 | 84 | 360 | 0.0 | 0.0 | 0.00 | 0.00 | 0.00 | 60 | 1015.6 |
| 20260902000429 | 84 | 360 | 0.0 | 0.0 | 0.00 | 0.00 | 0.00 | 60 | 1015.6 |
| 20260902000325 | 84 | 360 | 0.0 | 0.0 | 0.00 | 0.00 | 0.00 | 60 | 1015.6 |
| 20260902000235 | 84 | 360 | 0.0 | 0.0 | 0.00 | 0.00 | 0.00 | 60 | 1015.6 |
| 20260902000149 | 84 | 360 | 0.0 | 0.0 | 0.00 | 0.00 | 0.00 | 60 | 1015.6 |
| 20260902000026 | 84 | 360 | 0.0 | 0.0 | 0.00 | 0.00 | 0.00 | 60 | 1015.6 |
| 20260901235944 | 84 | 360 | 0.0 | 0.0 | 0.00 | 0.00 | 0.00 | 60 | 1015.6 |
| 20260901235903 | 84 | 360 | 0.0 | 0.0 | 0.00 | 0.00 | 0.00 | 60 | 1015.6 |
| 20260901235740 | 84 | 360 | 0.0 | 0.0 | 0.00 | 0.00 | 0.00 | 60 | 1015.6 |
| 20260901235639 | 84 | 1 | 0.0 | 0.0 | 0.00 | 0.00 | 0.00 | 60 | 1015.6 |
| 20260901235537 | 84 | 1 | 0.0 | 0.0 | 0.00 | 0.00 | 0.00 | 60 | 1015.6 |
| 20260901235436 | 84 | 1 | 0.0 | 0.0 | 0.00 | 0.00 | 0.00 | 60 | 1015.6 |
| 20260901235338 | 84 | 360 | 0.0 | 0.0 | 0.00 | 0.00 | 0.00 | 60 | 1015.6 |
| 20260901235236 | 84 | 360 | 0.0 | 0.0 | 0.00 | 0.00 | 0.00 | 60 | 1015.6 |
| 20260901235135 | 84 | 1 | 0.0 | 0.0 | 0.00 | 0.00 | 0.00 | 60 | 1015.6 |
| 20260901235033 | 84 | 360 | 0.0 | 0.0 | 0.00 | 0.00 | 0.00 | 60 | 1015.6 |
| 20260901234932 | 84 | 360 | 0.0 | 0.0 | 0.00 | 0.00 | 0.00 | 59 | 1015.6 |
| 20260901234831 | 84 | 360 | 0.0 | 0.0 | 0.00 | 0.00 | 0.00 | 59 | 1015.6 |
| 20260901234733 | 84 | 360 | 0.0 | 0.0 | 0.00 | 0.00 | 0.00 | 59 | 1015.6 |
| 20260901234703 | 84 | 360 | 0.0 | 0.0 | 0.00 | 0.00 | 0.00 | 59 | 1015.6 |
| 20260901234541 | 84 | 360 | 0.0 | 0.0 | 0.00 | 0.00 | 0.00 | 59 | 1015.6 |
| 20260901234440 | 84 | 360 | 0.0 | 0.0 | 0.00 | 0.00 | 0.00 | 59 | 1015.6 |
| 20260901234338 | 84 | 360 | 0.0 | 0.0 | 0.00 | 0.00 | 0.00 | 59 | 1015.6 |
| 20260901234258 | 84 | 360 | 0.0 | 0.0 | 0.00 | 0.00 | 0.00 | 59 | 1015.6 |
| 20260901234134 | 84 | 360 | 0.0 | 0.0 | 0.00 | 0.00 | 0.00 | 60 | 1015.6 |
| 20260901234032 | 84 | 360 | 0.0 | 0.0 | 0.00 | 0.00 | 0.00 | 60 | 1015.6 |
| 20260901233956 | 84 | 360 | 0.0 | 0.0 | 0.00 | 0.00 | 0.00 | 60 | 1015.6 |
| 20260901233832 | 84 | 360 | 0.0 | 0.0 | 0.00 | 0.00 | 0.00 | 60 | 1015.6 |
| 20260901233731 | 84 | 1 | 0.0 | 0.0 | 0.00 | 0.00 | 0.00 | 60 | 1015.6 |
| 20260901233630 | 84 | 360 | 0.0 | 0.0 | 0.00 | 0.00 | 0.00 | 60 | 1015.6 |
| 20260901233528 | 84 | 360 | 0.0 | 0.0 | 0.00 | 0.00 | 0.00 | 60 | 1015.6 |
| 20260901233427 | 85 | 1 | 0.0 | 0.0 | 0.00 | 0.00 | 0.00 | 60 | 1015.6 |
| 20260901233325 | 85 | 360 | 0.0 | 0.0 | 0.00 | 0.00 | 0.00 | 60 | 1015.6 |
| 20260901233228 | 85 | 360 | 0.0 | 0.0 | 0.00 | 0.00 | 0.00 | 60 | 1015.6 |
| 20260901233158 | 85 | 3 | 0.0 | 0.0 | 0.00 | 0.00 | 0.00 | 60 | 1015.6 |
| 20260901233035 | 85 | 360 | 0.0 | 0.0 | 0.00 | 0.00 | 0.00 | 60 | 1015.6 |
| 20260901232935 | 85 | 1 | 0.0 | 0.0 | 0.00 | 0.00 | 0.00 | 59 | 1015.6 |
| 20260901232833 | 85 | 1 | 0.0 | 0.0 | 0.00 | 0.00 | 0.00 | 59 | 1015.6 |
| 20260901232730 | 85 | 360 | 0.0 | 0.0 | 0.00 | 0.00 | 0.00 | 59 | 1015.7 |
| 20260901232629 | 85 | 360 | 0.0 | 0.0 | 0.00 | 0.00 | 0.00 | 59 | 1015.7 |
| 20260901232533 | 85 | 360 | 0.0 | 0.0 | 0.00 | 0.00 | 0.00 | 59 | 1015.7 |
| 20260901232430 | 85 | 360 | 0.0 | 0.0 | 0.00 | 0.00 | 0.00 | 59 | 1015.7 |
| 20260901232328 | 85 | 360 | 0.0 | 0.0 | 0.00 | 0.00 | 0.00 | 59 | 1015.7 |
| 20260901232228 | 85 | 360 | 0.0 | 0.0 | 0.00 | 0.00 | 0.00 | 59 | 1015.7 |
| 20260901232126 | 85 | 360 | 0.0 | 0.0 | 0.00 | 0.00 | 0.00 | 59 | 1015.7 |
| 20260901232025 | 85 | 360 | 0.0 | 0.0 | 0.00 | 0.00 | 0.00 | 59 | 1015.7 |
| 20260901231924 | 85 | 360 | 0.0 | 0.0 | 0.00 | 0.00 | 0.00 | 59 | 1015.7 |
| 20260901231827 | 85 | 360 | 0.0 | 0.0 | 0.00 | 0.00 | 0.00 | 59 | 1015.7 |
| 20260901231735 | 85 | 360 | 0.0 | 0.0 | 0.00 | 0.00 | 0.00 | 59 | 1015.7 |
| 20260901231645 | 85 | 1 | 0.0 | 0.0 | 0.00 | 0.00 | 0.00 | 59 | 1015.7 |
| 20260901231524 | 85 | 360 | 0.0 | 0.0 | 0.00 | 0.00 | 0.00 | 59 | 1015.7 |
| 20260901231442 | 85 | 360 | 0.0 | 0.0 | 0.00 | 0.00 | 0.00 | 59 | 1015.7 |
| 20260901231341 | 85 | 360 | 0.0 | 0.0 | 0.00 | 0.00 | 0.00 | 58 | 1015.7 |
| 20260901231240 | 85 | 360 | 0.0 | 0.0 | 0.00 | 0.00 | 0.00 | 58 | 1015.7 |
| 20260901231142 | 85 | 360 | 0.0 | 0.0 | 0.00 | 0.00 | 0.00 | 58 | 1015.7 |
| 20260901231041 | 85 | 360 | 0.0 | 0.0 | 0.00 | 0.00 | 0.00 | 57 | 1015.7 |
| 20260901230940 | 85 | 360 | 0.0 | 0.0 | 0.00 | 0.00 | 0.00 | 57 | 1015.7 |
| 20260901230841 | 85 | 360 | 0.0 | 0.0 | 0.00 | 0.00 | 0.00 | 57 | 1015.7 |
| 20260901230759 | 85 | 360 | 0.0 | 0.0 | 0.00 | 0.00 | 0.00 | 57 | 1015.7 |
| 20260901230635 | 85 | 360 | 0.0 | 0.0 | 0.00 | 0.00 | 0.00 | 57 | 1015.7 |
| 20260901230553 | 85 | 360 | 0.0 | 0.0 | 0.00 | 0.00 | 0.00 | 57 | 1015.7 |
| 20260901230432 | 85 | 360 | 0.0 | 0.0 | 0.00 | 0.00 | 0.00 | 58 | 1015.7 |
| 20260901230333 | 85 | 360 | 0.0 | 0.0 | 0.00 | 0.00 | 0.00 | 58 | 1015.7 |
| 20260901230244 | 85 | 360 | 0.0 | 0.0 | 0.00 | 0.00 | 0.00 | 58 | 1015.7 |
| 20260901230155 | 85 | 360 | 0.0 | 0.0 | 0.00 | 0.00 | 0.00 | 58 | 1015.7 |
| 20260901230033 | 85 | 360 | 0.0 | 0.0 | 0.00 | 0.00 | 0.00 | 58 | 1015.7 |
| 20260901225931 | 85 | 360 | 0.0 | 0.0 | 0.00 | 0.00 | 0.00 | 58 | 1015.7 |
| 20260901225830 | 85 | 360 | 0.0 | 0.0 | 0.00 | 0.00 | 0.00 | 57 | 1015.7 |
| 20260901225727 | 85 | 360 | 0.0 | 0.0 | 0.00 | 0.00 | 0.00 | 58 | 1015.5 |
| 20260901225630 | 85 | 360 | 0.0 | 0.0 | 0.00 | 0.00 | 0.00 | 58 | 1015.5 |
| 20260901225529 | 85 | 360 | 0.0 | 0.0 | 0.00 | 0.00 | 0.00 | 57 | 1015.5 |
| 20260901225431 | 85 | 1 | 0.0 | 0.0 | 0.00 | 0.00 | 0.00 | 56 | 1015.5 |
| 20260901225330 | 85 | 360 | 0.0 | 0.0 | 0.00 | 0.00 | 0.00 | 55 | 1015.5 |
| 20260901225249 | 85 | 360 | 0.0 | 0.0 | 0.00 | 0.00 | 0.00 | 55 | 1015.5 |
| 20260901225206 | 85 | 360 | 0.0 | 0.0 | 0.00 | 0.00 | 0.00 | 55 | 1015.5 |
| 20260901225104 | 86 | 3 | 0.0 | 0.0 | 0.00 | 0.00 | 0.00 | 56 | 1015.5 |
| 20260901224941 | 86 | 360 | 0.0 | 0.0 | 0.00 | 0.00 | 0.00 | 56 | 1015.5 |
| 20260901224859 | 86 | 360 | 0.0 | 0.0 | 0.00 | 0.00 | 0.00 | 57 | 1015.5 |
| 20260901224801 | 86 | 1 | 0.0 | 0.0 | 0.00 | 0.00 | 0.00 | 58 | 1015.5 |
| 20260901224709 | 86 | 360 | 0.0 | 0.0 | 0.00 | 0.00 | 0.00 | 57 | 1015.5 |
| 20260901224546 | 86 | 1 | 0.0 | 0.0 | 0.00 | 0.00 | 0.00 | 57 | 1015.5 |
| 20260901224444 | 86 | 360 | 0.0 | 0.0 | 0.00 | 0.00 | 0.00 | 57 | 1015.5 |
| 20260901224341 | 86 | 360 | 0.0 | 0.0 | 0.00 | 0.00 | 0.00 | 57 | 1015.5 |
| 20260901224240 | 86 | 1 | 0.0 | 0.0 | 0.00 | 0.00 | 0.00 | 57 | 1015.5 |
| 20260901224139 | 86 | 360 | 0.0 | 0.0 | 0.00 | 0.00 | 0.00 | 57 | 1015.5 |
| 20260901224056 | 86 | 360 | 0.0 | 0.0 | 0.00 | 0.00 | 0.00 | 56 | 1015.5 |
| 20260901223934 | 86 | 1 | 0.0 | 0.0 | 0.00 | 0.00 | 0.00 | 56 | 1015.5 |
| 20260901223836 | 86 | 360 | 0.0 | 0.0 | 0.00 | 0.00 | 0.00 | 56 | 1015.5 |
| 20260901223735 | 86 | 360 | 0.0 | 0.0 | 0.00 | 0.00 | 0.00 | 57 | 1015.5 |
| 20260901223635 | 86 | 360 | 0.0 | 0.0 | 0.00 | 0.00 | 0.00 | 56 | 1015.5 |
| 20260901223533 | 86 | 360 | 0.0 | 0.0 | 0.00 | 0.00 | 0.00 | 56 | 1015.5 |
| 20260901223451 | 86 | 360 | 0.0 | 0.0 | 0.00 | 0.00 | 0.00 | 56 | 1015.5 |
| 20260901223350 | 86 | 360 | 0.0 | 0.0 | 0.00 | 0.00 | 0.00 | 56 | 1015.5 |
| 20260901223249 | 86 | 360 | 0.0 | 0.0 | 0.00 | 0.00 | 0.00 | 56 | 1015.5 |
| 20260901223221 | 86 | 360 | 0.0 | 1.7 | 0.00 | 0.00 | 0.00 | 55 | 1015.5 |
| 20260901223057 | 86 | 360 | 0.0 | 1.7 | 0.00 | 0.00 | 0.00 | 54 | 1015.5 |
| 20260901222940 | 86 | 360 | 0.0 | 1.7 | 0.00 | 0.00 | 0.00 | 55 | 1015.5 |
| 20260901222837 | 86 | 360 | 0.0 | 1.7 | 0.00 | 0.00 | 0.00 | 57 | 1015.5 |
| 20260901222736 | 86 | 360 | 0.0 | 1.7 | 0.00 | 0.00 | 0.00 | 58 | 1015.5 |
| 20260901222633 | 86 | 360 | 0.0 | 1.7 | 0.00 | 0.00 | 0.00 | 58 | 1015.5 |
| 20260901222535 | 86 | 360 | 0.0 | 1.7 | 0.00 | 0.00 | 0.00 | 58 | 1015.5 |
| 20260901222433 | 86 | 360 | 0.0 | 2.6 | 0.00 | 0.00 | 0.00 | 57 | 1015.5 |
| 20260901222332 | 86 | 360 | 0.9 | 2.6 | 0.00 | 0.00 | 0.00 | 57 | 1015.5 |
| 20260901222235 | 86 | 360 | 0.9 | 2.6 | 0.00 | 0.00 | 0.00 | 56 | 1015.5 |
| 20260901222133 | 86 | 360 | 0.0 | 2.6 | 0.00 | 0.00 | 0.00 | 56 | 1015.5 |
| 20260901222032 | 86 | 360 | 0.0 | 2.6 | 0.00 | 0.00 | 0.00 | 56 | 1015.5 |
| 20260901221930 | 86 | 1 | 0.0 | 2.6 | 0.00 | 0.00 | 0.00 | 56 | 1015.5 |
| 20260901221828 | 86 | 360 | 0.0 | 2.6 | 0.00 | 0.00 | 0.00 | 57 | 1015.5 |
| 20260901221748 | 86 | 360 | 0.9 | 2.6 | 0.00 | 0.00 | 0.00 | 56 | 1015.5 |
| 20260901221721 | 86 | 360 | 1.7 | 2.6 | 0.00 | 0.00 | 0.00 | 55 | 1015.5 |
| 20260901221557 | 86 | 1 | 1.7 | 2.6 | 0.00 | 0.00 | 0.00 | 55 | 1015.5 |
| 20260901221442 | 86 | 1 | 0.0 | 1.7 | 0.00 | 0.00 | 0.00 | 54 | 1015.5 |
| 20260901221400 | 86 | 360 | 0.9 | 1.7 | 0.00 | 0.00 | 0.00 | 54 | 1015.5 |
| 20260901221301 | 86 | 1 | 0.9 | 1.7 | 0.00 | 0.00 | 0.00 | 53 | 1015.5 |
| 20260901221157 | 86 | 360 | 0.9 | 1.7 | 0.00 | 0.00 | 0.00 | 53 | 1015.5 |
| 20260901221035 | 86 | 360 | 0.0 | 0.9 | 0.00 | 0.00 | 0.00 | 53 | 1015.5 |
| 20260901220933 | 86 | 360 | 0.0 | 0.9 | 0.00 | 0.00 | 0.00 | 53 | 1015.5 |
| 20260901220852 | 86 | 360 | 0.0 | 0.9 | 0.00 | 0.00 | 0.00 | 53 | 1015.5 |
| 20260901220729 | 86 | 1 | 0.0 | 1.7 | 0.00 | 0.00 | 0.00 | 54 | 1015.5 |
| 20260901220635 | 86 | 360 | 0.0 | 2.6 | 0.00 | 0.00 | 0.00 | 54 | 1015.5 |
| 20260901220533 | 86 | 360 | 0.9 | 2.6 | 0.00 | 0.00 | 0.00 | 54 | 1015.5 |
| 20260901220453 | 86 | 1 | 0.0 | 2.6 | 0.00 | 0.00 | 0.00 | 53 | 1015.5 |
| 20260901220330 | 86 | 360 | 0.0 | 2.6 | 0.00 | 0.00 | 0.00 | 53 | 1015.5 |
| 20260901220240 | 86 | 360 | 0.0 | 2.6 | 0.00 | 0.00 | 0.00 | 54 | 1015.5 |
| 20260901220149 | 86 | 360 | 0.0 | 2.6 | 0.00 | 0.00 | 0.00 | 53 | 1015.5 |
| 20260901220026 | 86 | 360 | 0.9 | 2.6 | 0.00 | 0.00 | 0.00 | 53 | 1015.5 |
| 20260901215924 | 86 | 360 | 0.9 | 2.6 | 0.00 | 0.00 | 0.00 | 53 | 1015.5 |
| 20260901215827 | 86 | 1 | 1.7 | 3.5 | 0.00 | 0.00 | 0.00 | 52 | 1015.5 |
| 20260901215725 | 86 | 3 | 1.7 | 3.5 | 0.00 | 0.00 | 0.00 | 52 | 1015.5 |
| 20260901215643 | 86 | 1 | 0.9 | 3.5 | 0.00 | 0.00 | 0.00 | 51 | 1015.5 |
| 20260901215542 | 86 | 1 | 0.9 | 3.5 | 0.00 | 0.00 | 0.00 | 51 | 1015.5 |
| 20260901215441 | 86 | 360 | 1.7 | 3.5 | 0.00 | 0.00 | 0.00 | 50 | 1015.5 |
| 20260901215339 | 86 | 360 | 0.9 | 3.5 | 0.00 | 0.00 | 0.00 | 53 | 1015.5 |
| 20260901215237 | 86 | 360 | 1.7 | 3.5 | 0.00 | 0.00 | 0.00 | 53 | 1015.5 |
| 20260901215140 | 86 | 1 | 0.9 | 3.5 | 0.00 | 0.00 | 0.00 | 53 | 1015.5 |
| 20260901215038 | 86 | 1 | 1.7 | 3.5 | 0.00 | 0.00 | 0.00 | 53 | 1015.5 |
| 20260901214937 | 86 | 360 | 1.7 | 3.5 | 0.00 | 0.00 | 0.00 | 53 | 1015.5 |
| 20260901214856 | 86 | 326 | 1.7 | 3.5 | 0.00 | 0.00 | 0.00 | 53 | 1015.5 |
| 20260901214744 | 86 | 326 | 1.7 | 3.5 | 0.00 | 0.00 | 0.00 | 53 | 1015.5 |
| 20260901214653 | 86 | 326 | 1.7 | 3.5 | 0.00 | 0.00 | 0.00 | 53 | 1015.5 |
| 20260901214531 | 86 | 326 | 2.6 | 3.5 | 0.00 | 0.00 | 0.00 | 53 | 1015.5 |
| 20260901214449 | 86 | 329 | 1.7 | 2.6 | 0.00 | 0.00 | 0.00 | 53 | 1015.5 |
| 20260901214330 | 86 | 328 | 0.0 | 2.6 | 0.00 | 0.00 | 0.00 | 52 | 1015.5 |
| 20260901214228 | 86 | 330 | 0.0 | 2.6 | 0.00 | 0.00 | 0.00 | 51 | 1015.5 |
| 20260901214126 | 86 | 329 | 1.7 | 2.6 | 0.00 | 0.00 | 0.00 | 51 | 1015.5 |
| 20260901214027 | 86 | 329 | 0.9 | 2.6 | 0.00 | 0.00 | 0.00 | 53 | 1015.5 |
| 20260901213925 | 86 | 328 | 1.7 | 2.6 | 0.00 | 0.00 | 0.00 | 53 | 1015.5 |
| 20260901213825 | 86 | 330 | 0.9 | 1.7 | 0.00 | 0.00 | 0.00 | 53 | 1015.5 |
| 20260901213728 | 86 | 328 | 0.9 | 1.7 | 0.00 | 0.00 | 0.00 | 54 | 1015.5 |
| 20260901213626 | 86 | 330 | 0.9 | 1.7 | 0.00 | 0.00 | 0.00 | 54 | 1015.5 |
| 20260901213524 | 86 | 329 | 0.0 | 1.7 | 0.00 | 0.00 | 0.00 | 54 | 1015.5 |
| 20260901213442 | 86 | 329 | 0.0 | 1.7 | 0.00 | 0.00 | 0.00 | 54 | 1015.5 |
| 20260901213341 | 86 | 329 | 0.0 | 1.7 | 0.00 | 0.00 | 0.00 | 54 | 1015.5 |
| 20260901213259 | 86 | 329 | 0.0 | 1.7 | 0.00 | 0.00 | 0.00 | 54 | 1015.5 |
| 20260901213207 | 86 | 329 | 0.9 | 1.7 | 0.00 | 0.00 | 0.00 | 53 | 1015.5 |
| 20260901213043 | 86 | 329 | 0.9 | 1.7 | 0.00 | 0.00 | 0.00 | 53 | 1015.5 |
| 20260901212924 | 86 | 328 | 0.0 | 1.7 | 0.00 | 0.00 | 0.00 | 53 | 1015.5 |
| 20260901212843 | 86 | 330 | 0.0 | 1.7 | 0.00 | 0.00 | 0.00 | 53 | 1015.5 |
| 20260901212742 | 86 | 329 | 0.0 | 1.7 | 0.00 | 0.00 | 0.00 | 52 | 1015.7 |
| 20260901212640 | 86 | 329 | 0.0 | 1.7 | 0.00 | 0.00 | 0.00 | 52 | 1015.7 |
| 20260901212539 | 86 | 329 | 0.0 | 1.7 | 0.00 | 0.00 | 0.00 | 54 | 1015.7 |
| 20260901212437 | 86 | 328 | 0.9 | 1.7 | 0.00 | 0.00 | 0.00 | 54 | 1015.7 |
| 20260901212335 | 86 | 329 | 0.9 | 2.6 | 0.00 | 0.00 | 0.00 | 53 | 1015.7 |
| 20260901212238 | 86 | 326 | 0.9 | 2.6 | 0.00 | 0.00 | 0.00 | 52 | 1015.7 |
| 20260901212136 | 86 | 329 | 0.9 | 2.6 | 0.00 | 0.00 | 0.00 | 51 | 1015.7 |
| 20260901212055 | 86 | 330 | 0.9 | 2.6 | 0.00 | 0.00 | 0.00 | 51 | 1015.7 |
| 20260901211932 | 86 | 329 | 0.9 | 2.6 | 0.00 | 0.00 | 0.00 | 50 | 1015.7 |
| 20260901211831 | 86 | 330 | 0.9 | 2.6 | 0.00 | 0.00 | 0.00 | 51 | 1015.7 |
| 20260901211740 | 86 | 329 | 0.9 | 2.6 | 0.00 | 0.00 | 0.00 | 50 | 1015.7 |
| 20260901211649 | 86 | 329 | 0.0 | 2.6 | 0.00 | 0.00 | 0.00 | 50 | 1015.7 |
| 20260901211527 | 86 | 329 | 1.7 | 2.6 | 0.00 | 0.00 | 0.00 | 51 | 1015.7 |
| 20260901211429 | 86 | 329 | 1.7 | 2.6 | 0.00 | 0.00 | 0.00 | 50 | 1015.7 |
| 20260901211326 | 86 | 330 | 0.9 | 2.6 | 0.00 | 0.00 | 0.00 | 51 | 1015.7 |
| 20260901211225 | 86 | 329 | 0.0 | 2.6 | 0.00 | 0.00 | 0.00 | 53 | 1015.9 |
| 20260901211123 | 86 | 326 | 0.0 | 2.6 | 0.00 | 0.00 | 0.00 | 53 | 1015.9 |
| 20260901211025 | 86 | 328 | 0.9 | 2.6 | 0.00 | 0.00 | 0.00 | 53 | 1015.9 |
| 20260901210943 | 86 | 329 | 0.9 | 2.6 | 0.00 | 0.00 | 0.00 | 53 | 1015.9 |
| 20260901210839 | 86 | 326 | 0.9 | 2.6 | 0.00 | 0.00 | 0.00 | 55 | 1015.9 |
| 20260901210738 | 86 | 326 | 1.7 | 2.6 | 0.00 | 0.00 | 0.00 | 55 | 1015.9 |
| 20260901210640 | 86 | 328 | 1.7 | 2.6 | 0.00 | 0.00 | 0.00 | 55 | 1015.9 |
| 20260901210559 | 86 | 287 | 0.9 | 2.6 | 0.00 | 0.00 | 0.00 | 54 | 1015.9 |
| 20260901210436 | 86 | 285 | 0.0 | 2.6 | 0.00 | 0.00 | 0.00 | 53 | 1015.9 |
| 20260901210335 | 86 | 285 | 0.0 | 2.6 | 0.00 | 0.00 | 0.00 | 53 | 1015.9 |
| 20260901210234 | 86 | 285 | 0.0 | 5.2 | 0.00 | 0.00 | 0.00 | 53 | 1015.9 |
| 20260901210205 | 86 | 284 | 0.9 | 5.2 | 0.00 | 0.00 | 0.00 | 53 | 1015.9 |
| 20260901210042 | 86 | 285 | 1.7 | 5.2 | 0.00 | 0.00 | 0.00 | 53 | 1015.9 |
| 20260901205944 | 86 | 285 | 0.9 | 5.2 | 0.00 | 0.00 | 0.00 | 53 | 1015.9 |
| 20260901205903 | 86 | 285 | 0.0 | 5.2 | 0.00 | 0.00 | 0.00 | 53 | 1015.9 |
| 20260901205741 | 86 | 282 | 0.0 | 5.2 | 0.00 | 0.00 | 0.00 | 53 | 1015.9 |
| 20260901205639 | 86 | 285 | 0.0 | 5.2 | 0.00 | 0.00 | 0.00 | 53 | 1015.9 |
| 20260901205538 | 86 | 285 | 0.9 | 5.2 | 0.00 | 0.00 | 0.00 | 53 | 1015.9 |
| 20260901205457 | 86 | 285 | 2.6 | 5.2 | 0.00 | 0.00 | 0.00 | 52 | 1015.9 |
| 20260901205335 | 86 | 16 | 0.0 | 1.7 | 0.00 | 0.00 | 0.00 | 52 | 1015.9 |
| 20260901205233 | 86 | 16 | 0.0 | 1.7 | 0.00 | 0.00 | 0.00 | 52 | 1015.9 |
| 20260901205136 | 86 | 11 | 0.0 | 2.6 | 0.00 | 0.00 | 0.00 | 52 | 1015.9 |
| 20260901205035 | 86 | 16 | 0.0 | 2.6 | 0.00 | 0.00 | 0.00 | 52 | 1015.9 |
| 20260901204932 | 86 | 16 | 0.0 | 2.6 | 0.00 | 0.00 | 0.00 | 53 | 1015.9 |
| 20260901204831 | 86 | 16 | 0.9 | 2.6 | 0.00 | 0.00 | 0.00 | 53 | 1015.9 |
| 20260901204729 | 86 | 17 | 0.0 | 2.6 | 0.00 | 0.00 | 0.00 | 53 | 1015.9 |
| 20260901204658 | 86 | 14 | 0.0 | 3.5 | 0.00 | 0.00 | 0.00 | 52 | 1015.9 |
| 20260901204536 | 86 | 16 | 0.0 | 3.5 | 0.00 | 0.00 | 0.00 | 51 | 1015.9 |
| 20260901204440 | 86 | 16 | 0.0 | 4.3 | 0.00 | 0.00 | 0.00 | 51 | 1015.9 |
| 20260901204338 | 86 | 16 | 1.7 | 4.3 | 0.00 | 0.00 | 0.00 | 51 | 1015.9 |
| 20260901204237 | 86 | 17 | 1.7 | 4.3 | 0.00 | 0.00 | 0.00 | 52 | 1016.1 |
| 20260901204135 | 86 | 23 | 0.9 | 4.3 | 0.00 | 0.00 | 0.00 | 51 | 1016.1 |
| 20260901204034 | 86 | 21 | 1.7 | 4.3 | 0.00 | 0.00 | 0.00 | 50 | 1016.1 |
| 20260901203932 | 86 | 21 | 1.7 | 4.3 | 0.00 | 0.00 | 0.00 | 51 | 1016.1 |
| 20260901203834 | 86 | 24 | 1.7 | 4.3 | 0.00 | 0.00 | 0.00 | 50 | 1016.1 |
| 20260901203732 | 86 | 32 | 1.7 | 4.3 | 0.00 | 0.00 | 0.00 | 50 | 1016.1 |
| 20260901203631 | 86 | 37 | 2.6 | 4.3 | 0.00 | 0.00 | 0.00 | 51 | 1016.1 |
| 20260901203530 | 86 | 38 | 2.6 | 4.3 | 0.00 | 0.00 | 0.00 | 51 | 1016.1 |
| 20260901203428 | 86 | 40 | 0.9 | 4.3 | 0.00 | 0.00 | 0.00 | 54 | 1016.1 |
| 20260901203326 | 86 | 41 | 0.0 | 4.3 | 0.00 | 0.00 | 0.00 | 53 | 1016.1 |
| 20260901203246 | 86 | 44 | 0.0 | 4.3 | 0.00 | 0.00 | 0.00 | 53 | 1016.1 |
| 20260901203155 | 86 | 44 | 0.9 | 4.3 | 0.00 | 0.00 | 0.00 | 53 | 1016.1 |
| 20260901203056 | 86 | 42 | 2.6 | 4.3 | 0.00 | 0.00 | 0.00 | 52 | 1016.1 |
| 20260901202933 | 86 | 42 | 2.6 | 4.3 | 0.00 | 0.00 | 0.00 | 55 | 1016.1 |
| 20260901202835 | 86 | 11 | 1.7 | 2.6 | 0.00 | 0.00 | 0.00 | 54 | 1016.1 |
| 20260901202753 | 86 | 10 | 0.9 | 2.6 | 0.00 | 0.00 | 0.00 | 51 | 1016.2 |
| 20260901202650 | 86 | 10 | 0.9 | 2.6 | 0.00 | 0.00 | 0.00 | 53 | 1016.2 |
| 20260901202548 | 86 | 11 | 0.9 | 2.6 | 0.00 | 0.00 | 0.00 | 53 | 1016.2 |
| 20260901202425 | 86 | 8 | 0.0 | 2.6 | 0.00 | 0.00 | 0.00 | 53 | 1016.2 |
| 20260901202344 | 86 | 11 | 0.9 | 2.6 | 0.00 | 0.00 | 0.00 | 52 | 1016.2 |
| 20260901202301 | 86 | 10 | 0.9 | 2.6 | 0.00 | 0.00 | 0.00 | 51 | 1016.2 |
| 20260901202200 | 86 | 10 | 0.9 | 2.6 | 0.00 | 0.00 | 0.00 | 51 | 1016.2 |
| 20260901202102 | 86 | 11 | 1.7 | 2.6 | 0.00 | 0.00 | 0.00 | 51 | 1016.2 |
| 20260901202021 | 86 | 11 | 1.7 | 2.6 | 0.00 | 0.00 | 0.00 | 52 | 1016.2 |
| 20260901201918 | 86 | 11 | 1.7 | 2.6 | 0.00 | 0.00 | 0.00 | 53 | 1016.2 |
| 20260901201815 | 86 | 11 | 1.7 | 2.6 | 0.00 | 0.00 | 0.00 | 52 | 1016.2 |
| 20260901201704 | 86 | 10 | 1.7 | 2.6 | 0.00 | 0.00 | 0.00 | 52 | 1016.2 |
| 20260901201541 | 86 | 10 | 0.9 | 1.7 | 0.00 | 0.00 | 0.00 | 52 | 1016.2 |
| 20260901201441 | 86 | 11 | 0.9 | 1.7 | 0.00 | 0.00 | 0.00 | 52 | 1016.2 |
| 20260901201342 | 86 | 10 | 0.9 | 1.7 | 0.00 | 0.00 | 0.00 | 52 | 1016.2 |
| 20260901201239 | 86 | 11 | 1.7 | 1.7 | 0.00 | 0.00 | 0.00 | 52 | 1016.3 |
| 20260901201141 | 86 | 11 | 1.7 | 1.7 | 0.00 | 0.00 | 0.00 | 52 | 1016.3 |
| 20260901201041 | 86 | 11 | 0.9 | 1.7 | 0.00 | 0.00 | 0.00 | 52 | 1016.3 |
| 20260901201000 | 86 | 11 | 0.0 | 4.3 | 0.00 | 0.00 | 0.00 | 51 | 1016.3 |
| 20260901200837 | 86 | 11 | 0.0 | 4.3 | 0.00 | 0.00 | 0.00 | 52 | 1016.3 |
| 20260901200735 | 86 | 10 | 0.9 | 4.3 | 0.00 | 0.00 | 0.00 | 52 | 1016.3 |
| 20260901200633 | 86 | 10 | 0.9 | 4.3 | 0.00 | 0.00 | 0.00 | 54 | 1016.3 |
| 20260901200532 | 86 | 10 | 0.0 | 4.3 | 0.00 | 0.00 | 0.00 | 54 | 1016.3 |
| 20260901200434 | 86 | 11 | 0.0 | 4.3 | 0.00 | 0.00 | 0.00 | 54 | 1016.3 |
| 20260901200332 | 86 | 8 | 0.0 | 4.3 | 0.00 | 0.00 | 0.00 | 54 | 1016.3 |
| 20260901200231 | 86 | 10 | 1.7 | 4.3 | 0.00 | 0.00 | 0.00 | 54 | 1016.3 |
| 20260901200201 | 86 | 11 | 1.7 | 4.3 | 0.00 | 0.00 | 0.00 | 56 | 1016.3 |
| 20260901200038 | 86 | 13 | 2.6 | 4.3 | 0.00 | 0.00 | 0.00 | 53 | 1016.3 |
| 20260901195957 | 86 | 3 | 0.9 | 2.6 | 0.00 | 0.00 | 0.00 | 53 | 1016.3 |
| 20260901195835 | 86 | 1 | 0.9 | 2.6 | 0.00 | 0.00 | 0.00 | 53 | 1016.3 |
| 20260901195734 | 86 | 1 | 0.9 | 2.6 | 0.00 | 0.00 | 0.00 | 53 | 1016.3 |
| 20260901195636 | 86 | 1 | 1.7 | 2.6 | 0.00 | 0.00 | 0.00 | 52 | 1016.3 |
| 20260901195554 | 86 | 360 | 1.7 | 2.6 | 0.00 | 0.00 | 0.00 | 53 | 1016.3 |
| 20260901195432 | 86 | 1 | 1.7 | 2.6 | 0.00 | 0.00 | 0.00 | 51 | 1016.3 |
| 20260901195331 | 86 | 360 | 0.9 | 1.7 | 0.00 | 0.00 | 0.00 | 52 | 1016.3 |
| 20260901195229 | 86 | 360 | 0.9 | 1.7 | 0.00 | 0.00 | 0.00 | 54 | 1016.3 |
| 20260901195127 | 86 | 360 | 0.0 | 2.6 | 0.00 | 0.00 | 0.00 | 54 | 1016.3 |
| 20260901195026 | 86 | 360 | 0.0 | 2.6 | 0.00 | 0.00 | 0.00 | 57 | 1016.3 |
| 20260901194928 | 87 | 360 | 0.0 | 2.6 | 0.00 | 0.00 | 0.00 | 57 | 1016.3 |
| 20260901194826 | 87 | 360 | 0.0 | 2.6 | 0.00 | 0.00 | 0.00 | 56 | 1016.3 |
| 20260901194736 | 87 | 360 | 0.9 | 2.6 | 0.00 | 0.00 | 0.00 | 56 | 1016.3 |
| 20260901194645 | 87 | 1 | 0.9 | 2.6 | 0.00 | 0.00 | 0.00 | 56 | 1016.3 |
| 20260901194543 | 87 | 360 | 0.9 | 2.6 | 0.00 | 0.00 | 0.00 | 56 | 1016.3 |
| 20260901194442 | 87 | 360 | 0.9 | 2.6 | 0.00 | 0.00 | 0.00 | 55 | 1016.3 |
| 20260901194400 | 87 | 360 | 1.7 | 2.6 | 0.00 | 0.00 | 0.00 | 54 | 1016.3 |
| 20260901194237 | 87 | 360 | 1.7 | 2.6 | 0.00 | 0.00 | 0.00 | 55 | 1016.5 |
| 20260901194140 | 87 | 360 | 0.0 | 2.6 | 0.00 | 0.00 | 0.00 | 55 | 1016.5 |
| 20260901194058 | 87 | 360 | 0.0 | 2.6 | 0.00 | 0.00 | 0.00 | 55 | 1016.5 |
| 20260901193935 | 87 | 360 | 0.0 | 2.6 | 0.00 | 0.00 | 0.00 | 52 | 1016.5 |
| 20260901193853 | 87 | 360 | 0.0 | 2.6 | 0.00 | 0.00 | 0.00 | 53 | 1016.5 |
| 20260901193751 | 87 | 360 | 0.9 | 2.6 | 0.00 | 0.00 | 0.00 | 52 | 1016.5 |
| 20260901193628 | 87 | 360 | 0.9 | 4.3 | 0.00 | 0.00 | 0.00 | 52 | 1016.5 |
| 20260901193547 | 87 | 360 | 1.7 | 4.3 | 0.00 | 0.00 | 0.00 | 53 | 1016.5 |
| 20260901193425 | 87 | 360 | 1.7 | 4.3 | 0.00 | 0.00 | 0.00 | 54 | 1016.5 |
| 20260901193343 | 87 | 360 | 1.7 | 4.3 | 0.00 | 0.00 | 0.00 | 54 | 1016.5 |
| 20260901193238 | 87 | 1 | 0.9 | 4.3 | 0.00 | 0.00 | 0.00 | 53 | 1016.5 |
| 20260901193149 | 87 | 360 | 0.9 | 4.3 | 0.00 | 0.00 | 0.00 | 52 | 1016.5 |
| 20260901193027 | 87 | 1 | 1.7 | 4.3 | 0.00 | 0.00 | 0.00 | 50 | 1016.5 |
| 20260901192926 | 87 | 360 | 2.6 | 4.3 | 0.00 | 0.00 | 0.00 | 50 | 1016.5 |
| 20260901192825 | 87 | 360 | 2.6 | 4.3 | 0.00 | 0.00 | 0.00 | 50 | 1016.5 |
| 20260901192743 | 87 | 1 | 3.5 | 4.3 | 0.00 | 0.00 | 0.00 | 51 | 1016.6 |
| 20260901192642 | 87 | 360 | 3.5 | 4.3 | 0.00 | 0.00 | 0.00 | 50 | 1016.6 |
| 20260901192600 | 87 | 1 | 1.7 | 4.3 | 0.00 | 0.00 | 0.00 | 50 | 1016.6 |
| 20260901192457 | 87 | 1 | 1.7 | 4.3 | 0.00 | 0.00 | 0.00 | 49 | 1016.6 |
| 20260901192338 | 87 | 360 | 1.7 | 4.3 | 0.00 | 0.00 | 0.00 | 49 | 1016.6 |
| 20260901192237 | 87 | 1 | 2.6 | 4.3 | 0.00 | 0.00 | 0.00 | 49 | 1016.6 |
| 20260901192134 | 87 | 360 | 1.7 | 4.3 | 0.00 | 0.00 | 0.00 | 50 | 1016.6 |
| 20260901192052 | 87 | 1 | 0.9 | 2.6 | 0.00 | 0.00 | 0.00 | 50 | 1016.6 |
| 20260901191929 | 87 | 1 | 1.7 | 2.6 | 0.00 | 0.00 | 0.00 | 50 | 1016.6 |
| 20260901191829 | 87 | 360 | 1.7 | 3.5 | 0.00 | 0.00 | 0.00 | 52 | 1016.6 |
| 20260901191728 | 87 | 1 | 0.9 | 4.3 | 0.00 | 0.00 | 0.00 | 51 | 1016.6 |
| 20260901191702 | 87 | 3 | 0.9 | 4.3 | 0.00 | 0.00 | 0.00 | 50 | 1016.6 |
| 20260901191540 | 87 | 3 | 1.7 | 4.3 | 0.00 | 0.00 | 0.00 | 50 | 1016.6 |
| 20260901191458 | 87 | 1 | 2.6 | 4.3 | 0.00 | 0.00 | 0.00 | 52 | 1016.6 |
| 20260901191335 | 87 | 1 | 0.9 | 4.3 | 0.00 | 0.00 | 0.00 | 52 | 1016.6 |
| 20260901191234 | 87 | 6 | 0.9 | 4.3 | 0.00 | 0.00 | 0.00 | 52 | 1016.8 |
| 20260901191132 | 87 | 1 | 0.9 | 4.3 | 0.00 | 0.00 | 0.00 | 51 | 1016.8 |
| 20260901191030 | 87 | 1 | 1.7 | 4.3 | 0.00 | 0.00 | 0.00 | 51 | 1016.8 |
| 20260901190932 | 87 | 1 | 3.5 | 4.3 | 0.00 | 0.00 | 0.00 | 50 | 1016.8 |
| 20260901190828 | 87 | 325 | 0.9 | 3.5 | 0.00 | 0.00 | 0.00 | 50 | 1016.8 |
| 20260901190727 | 87 | 326 | 1.7 | 3.5 | 0.00 | 0.00 | 0.00 | 50 | 1016.8 |
| 20260901190624 | 87 | 325 | 0.9 | 4.3 | 0.00 | 0.00 | 0.00 | 50 | 1016.8 |
| 20260901190542 | 87 | 326 | 1.7 | 4.3 | 0.00 | 0.00 | 0.00 | 50 | 1016.8 |
| 20260901190441 | 87 | 328 | 1.7 | 4.3 | 0.00 | 0.00 | 0.00 | 51 | 1016.8 |
| 20260901190338 | 87 | 326 | 2.6 | 4.3 | 0.00 | 0.00 | 0.00 | 50 | 1016.8 |
| 20260901190237 | 87 | 360 | 2.6 | 4.3 | 0.00 | 0.00 | 0.00 | 49 | 1016.8 |
| 20260901190207 | 87 | 360 | 2.6 | 4.3 | 0.00 | 0.00 | 0.00 | 49 | 1016.8 |
| 20260901190027 | 87 | 360 | 2.6 | 4.3 | 0.00 | 0.00 | 0.00 | 51 | 1016.8 |
| 20260901185926 | 87 | 1 | 2.6 | 4.3 | 0.00 | 0.00 | 0.00 | 50 | 1016.8 |
| 20260901185824 | 87 | 1 | 1.7 | 4.3 | 0.00 | 0.00 | 0.00 | 51 | 1016.8 |
| 20260901185743 | 87 | 4 | 1.7 | 2.6 | 0.00 | 0.00 | 0.00 | 50 | 1016.9 |
| 20260901185643 | 87 | 4 | 1.7 | 2.6 | 0.00 | 0.00 | 0.00 | 50 | 1016.9 |
| 20260901185522 | 87 | 6 | 0.0 | 1.7 | 0.00 | 0.00 | 0.00 | 50 | 1016.9 |
| 20260901185426 | 87 | 6 | 0.0 | 1.7 | 0.00 | 0.00 | 0.00 | 49 | 1016.9 |
| 20260901185324 | 86 | 4 | 0.0 | 1.7 | 0.00 | 0.00 | 0.00 | 48 | 1016.9 |
| 20260901185243 | 86 | 6 | 0.0 | 2.6 | 0.00 | 0.00 | 0.00 | 47 | 1016.9 |
| 20260901185142 | 86 | 6 | 0.9 | 2.6 | 0.00 | 0.00 | 0.00 | 47 | 1016.9 |
| 20260901185040 | 86 | 6 | 0.9 | 2.6 | 0.00 | 0.00 | 0.00 | 48 | 1016.9 |
| 20260901184938 | 86 | 6 | 0.0 | 2.6 | 0.00 | 0.00 | 0.00 | 48 | 1016.9 |
| 20260901184858 | 86 | 6 | 0.0 | 2.6 | 0.00 | 0.00 | 0.00 | 48 | 1016.9 |
| 20260901184815 | 86 | 6 | 0.0 | 2.6 | 0.00 | 0.00 | 0.00 | 50 | 1016.9 |
| 20260901184725 | 86 | 4 | 0.0 | 2.6 | 0.00 | 0.00 | 0.00 | 50 | 1016.9 |
| 20260901184544 | 86 | 6 | 0.0 | 2.6 | 0.00 | 0.00 | 0.00 | 50 | 1016.9 |
| 20260901184502 | 86 | 6 | 0.9 | 2.6 | 0.00 | 0.00 | 0.00 | 52 | 1016.9 |
| 20260901184338 | 86 | 6 | 0.9 | 2.6 | 0.00 | 0.00 | 0.00 | 50 | 1016.9 |
| 20260901184257 | 86 | 7 | 1.7 | 2.6 | 0.00 | 0.00 | 0.00 | 51 | 1017.2 |
| 20260901184133 | 86 | 3 | 1.7 | 2.6 | 0.00 | 0.00 | 0.00 | 52 | 1017.2 |
| 20260901184033 | 86 | 1 | 0.0 | 2.6 | 0.00 | 0.00 | 0.00 | 52 | 1017.2 |
| 20260901183935 | 86 | 360 | 0.9 | 3.5 | 0.00 | 0.00 | 0.00 | 52 | 1017.2 |
| 20260901183832 | 86 | 360 | 1.7 | 3.5 | 0.00 | 0.00 | 0.00 | 51 | 1017.2 |
| 20260901183734 | 86 | 360 | 0.9 | 3.5 | 0.00 | 0.00 | 0.00 | 50 | 1017.2 |
| 20260901183653 | 86 | 360 | 0.9 | 3.5 | 0.00 | 0.00 | 0.00 | 51 | 1017.2 |
| 20260901183531 | 86 | 360 | 1.7 | 3.5 | 0.00 | 0.00 | 0.00 | 52 | 1017.2 |
| 20260901183429 | 86 | 1 | 0.0 | 3.5 | 0.00 | 0.00 | 0.00 | 51 | 1017.2 |
| 20260901183328 | 86 | 360 | 0.9 | 3.5 | 0.00 | 0.00 | 0.00 | 52 | 1017.2 |
| 20260901183237 | 86 | 360 | 2.6 | 3.5 | 0.00 | 0.00 | 0.00 | 52 | 1017.2 |
| 20260901183146 | 86 | 360 | 1.7 | 3.5 | 0.00 | 0.00 | 0.00 | 51 | 1017.2 |
| 20260901183028 | 86 | 360 | 1.7 | 3.5 | 0.00 | 0.00 | 0.00 | 52 | 1017.2 |
| 20260901182929 | 86 | 360 | 0.9 | 2.6 | 0.00 | 0.00 | 0.00 | 51 | 1017.2 |
| 20260901182828 | 86 | 360 | 0.9 | 2.6 | 0.00 | 0.00 | 0.00 | 50 | 1017.2 |
| 20260901182746 | 86 | 360 | 0.9 | 2.6 | 0.00 | 0.00 | 0.00 | 52 | 1017.3 |